Provisional Data: West Branch Owego Creek near Speedsville, NY


Please select a monitoring station.
Please select start date.
Please select start date.

Toggle Unit: C/F Toggle Unit: C/F
Sample Time Temperature (C) Temperature (F) Specific Conductivity (mS/cm) pH   Turbidity (NTU+) DO (mg/L)
4/13/2022 12:00:00 AM 0 32 0 7.3 8.29 10.75
4/13/2022 12:15:00 AM 0 32 0 7.3 7.66 10.77
4/13/2022 12:30:00 AM 0 32 0 7.29 13.45 10.8
4/13/2022 12:45:00 AM 0 32 0 7.3 8.13 10.83
4/13/2022 1:00:00 AM 0 32 0 7.3 8.21 10.85
4/13/2022 1:15:00 AM 0 32 0 7.3 8.92 10.88
4/13/2022 1:30:00 AM 0 32 0 7.3 7.9 10.91
4/13/2022 1:45:00 AM 0 32 0 7.3 7.61 10.97
4/13/2022 2:00:00 AM 0 32 0 7.3 7.51 10.99
4/13/2022 2:15:00 AM 0 32 0 7.3 7.32 11.02
4/13/2022 2:30:00 AM 0 32 0 7.29 6.48 11.05
4/13/2022 2:45:00 AM 0 32 0 7.29 8.93 11.08
4/13/2022 3:00:00 AM 0 32 0 7.3 6.68 11.11
4/13/2022 3:15:00 AM 0 32 0 7.3 8.22 11.14
4/13/2022 3:30:00 AM 0 32 0 7.29 6.51 11.16
4/13/2022 3:45:00 AM 0 32 0 7.29 6.35 11.2
4/13/2022 4:00:00 AM 0 32 0 7.29 6.24 11.23
4/13/2022 4:15:00 AM 0 32 0 7.28 8.38 11.26
4/13/2022 4:30:00 AM 0 32 0 7.28 6.81 11.27
4/13/2022 4:45:00 AM 0 32 0 7.28 6.05 11.31
4/13/2022 5:00:00 AM 0 32 0 7.28 6.11 11.3
4/13/2022 5:15:00 AM 0 32 0 7.29 5.83 11.33
4/13/2022 5:30:00 AM 0 32 0 7.28 5.73 11.34
4/13/2022 5:45:00 AM 0 32 0 7.29 6.75 11.37
4/13/2022 6:00:00 AM 0 32 0 7.29 6.63 11.37
4/13/2022 6:15:00 AM 0 32 0 7.28 6.1 11.4
4/13/2022 6:30:00 AM 0 32 0 7.28 6 11.4
4/13/2022 6:45:00 AM 0 32 0 7.28 6.55 11.44
4/13/2022 7:00:00 AM 0 32 0 7.28 8.58 11.44
4/13/2022 7:15:00 AM 0 32 0 7.29 6.85 11.45
4/13/2022 7:30:00 AM 0 32 0 7.29 6.16 11.45
4/13/2022 7:45:00 AM 0 32 0 7.29 6.07 11.49
4/13/2022 8:00:00 AM 0 32 0 7.29 5.55 11.51
4/13/2022 8:15:00 AM 0 32 0 7.3 5.45 11.53
4/13/2022 8:30:00 AM 0 32 0 7.3 6.99 11.57
4/13/2022 8:45:00 AM 0 32 0 7.31 5.16 11.58
4/13/2022 9:00:00 AM 0 32 0 7.32 5.78 11.61
4/13/2022 9:15:00 AM 0 32 0 7.33 5.69 11.62
4/13/2022 9:30:00 AM 0 32 0 7.34 5.22 11.62
4/13/2022 9:45:00 AM 0 32 0 7.35 5.18 11.63
4/13/2022 10:00:00 AM 0 32 0 7.36 5.7 11.64
4/13/2022 10:15:00 AM 0 32 0 7.37 4.88 11.62
4/13/2022 10:30:00 AM 0 32 0 7.38 5.18 11.6
4/13/2022 10:45:00 AM 0 32 0 7.39 5.08 11.58
4/13/2022 11:00:00 AM 0 32 0 7.4 5.02 11.53
4/13/2022 11:15:00 AM 0 32 0 7.41 4.61 11.48
4/13/2022 11:30:00 AM 0 32 0 7.42 5.26 11.43
4/13/2022 11:45:00 AM 0 32 0 7.42 5.25 11.38
4/13/2022 12:00:00 PM 0 32 0 7.43 4.45 11.36
4/13/2022 12:15:00 PM 0 32 0 7.43 5.62 11.31
4/13/2022 12:30:00 PM 0 32 0 7.44 4.86 11.27
4/13/2022 12:45:00 PM 0 32 0 7.44 4.72 11.23
4/13/2022 1:00:00 PM 0 32 0 7.45 4.79 11.22
4/13/2022 1:15:00 PM 0 32 0 7.45 5.03 11.19
4/13/2022 1:30:00 PM 0 32 0 7.46 4.61 11.14
4/13/2022 1:45:00 PM 0 32 0 7.46 4.8 11.1
4/13/2022 2:00:00 PM 0 32 0 7.46 5.35 11.06
4/13/2022 2:15:00 PM 0 32 0 7.47 5.33 11
4/13/2022 2:30:00 PM 0 32 0 7.46 7.66 10.95
4/13/2022 2:45:00 PM 0 32 0 7.46 6.08 10.89
4/13/2022 3:00:00 PM 0 32 0 7.45 4.99 10.86
4/13/2022 3:15:00 PM 0 32 0 7.45 4.91 10.87
4/13/2022 3:30:00 PM 0 32 0 7.45 4.67 10.84
4/13/2022 3:45:00 PM 0 32 0 7.45 4.66 10.84
4/13/2022 4:00:00 PM 0 32 0 7.45 4.81 10.85
4/13/2022 4:15:00 PM 0 32 0 7.45 7.05 10.85
4/13/2022 4:30:00 PM 0 32 0 7.45 4.56 10.83
4/13/2022 4:45:00 PM 0 32 0 7.46 5.11 10.82
4/13/2022 5:00:00 PM 0 32 0 7.45 4.89 10.81
4/13/2022 5:15:00 PM 0 32 0 7.45 4.95 10.77
4/13/2022 5:30:00 PM 0 32 0 7.45 5.92 10.75
4/13/2022 5:45:00 PM 0 32 0 7.45 4.9 10.74
4/13/2022 6:00:00 PM 0 32 0 7.44 4.83 10.72
4/13/2022 6:15:00 PM 0 32 0 7.44 5.49 10.67
4/13/2022 6:30:00 PM 0 32 0 7.43 5.06 10.64
4/13/2022 6:45:00 PM 0 32 0 7.42 4.93 10.61
4/13/2022 7:00:00 PM 0 32 0 7.41 6 10.58
4/13/2022 7:15:00 PM 0 32 0 7.4 5.1 10.54
4/13/2022 7:30:00 PM 0 32 0 7.39 6.25 10.51
4/13/2022 7:45:00 PM 0 32 0 7.38 7.15 10.48
4/13/2022 8:00:00 PM 0 32 0 7.36 5.7 10.45
4/13/2022 8:15:00 PM 0 32 0 7.36 6.03 10.43
4/13/2022 8:30:00 PM 0 32 0 7.35 6.75 10.41
4/13/2022 8:45:00 PM 0 32 0 7.34 5.79 10.4
4/13/2022 9:00:00 PM 0 32 0 7.33 6.84 10.39
4/13/2022 9:15:00 PM 0 32 0 7.33 5.53 10.37
4/13/2022 9:30:00 PM 0 32 0 7.33 5.9 10.37
4/13/2022 9:45:00 PM 0 32 0 7.32 5.4 10.39
4/13/2022 10:00:00 PM 0 32 0 7.32 7.41 10.38
4/13/2022 10:15:00 PM 0 32 0 7.31 5.81 10.37
4/13/2022 10:30:00 PM 0 32 0 7.31 6.35 10.36
4/13/2022 10:45:00 PM 0 32 0 7.31 5.45 10.36
4/13/2022 11:00:00 PM 0 32 0 7.3 5.53 10.39
4/13/2022 11:15:00 PM 0 32 0 7.3 5.39 10.38
4/13/2022 11:30:00 PM 0 32 0 7.3 5.46 10.37
4/13/2022 11:45:00 PM 0 32 0 7.3 5.52 10.37
4/14/2022 12:00:00 AM 0 32 0 7.29 5.62 10.38
4/14/2022 12:15:00 AM 0 32 0 7.29 5.66 10.39
4/14/2022 12:30:00 AM 0 32 0 7.29 6.9 10.38
4/14/2022 12:45:00 AM 0 32 0 7.29 5.34 10.39
4/14/2022 1:00:00 AM 0 32 0 7.28 5.46 10.4
4/14/2022 1:15:00 AM 0 32 0 7.29 5.69 10.4
4/14/2022 1:30:00 AM 0 32 0 7.28 5.31 10.42
4/14/2022 1:45:00 AM 0 32 0 7.29 6.06 10.42
4/14/2022 2:00:00 AM 0 32 0 7.28 5.42 10.42
4/14/2022 2:15:00 AM 0 32 0 7.28 5.61 10.43
4/14/2022 2:30:00 AM 0 32 0 7.28 5.68 10.43
4/14/2022 2:45:00 AM 0 32 0 7.27 5.52 10.46
4/14/2022 3:00:00 AM 0 32 0 7.28 5.75 10.46
4/14/2022 3:15:00 AM 0 32 0 7.27 5.67 10.48
4/14/2022 3:30:00 AM 0 32 0 7.27 5.98 10.48
4/14/2022 3:45:00 AM 0 32 0 7.27 5.95 10.49
4/14/2022 4:00:00 AM 0 32 0 7.27 5.64 10.5
4/14/2022 4:15:00 AM 0 32 0 7.27 5.35 10.51
4/14/2022 4:30:00 AM 0 32 0 7.27 5.36 10.53
4/14/2022 4:45:00 AM 0 32 0 7.27 5.4 10.52
4/14/2022 5:00:00 AM 0 32 0 7.27 5.84 10.54
4/14/2022 5:15:00 AM 0 32 0 7.27 5.24 10.54
4/14/2022 5:30:00 AM 0 32 0 7.27 5.81 10.57
4/14/2022 5:45:00 AM 0 32 0 7.27 5.65 10.57
4/14/2022 6:00:00 AM 0 32 0 7.27 5.7 10.59
4/14/2022 6:15:00 AM 0 32 0 7.28 5.54 10.59
4/14/2022 6:30:00 AM 0 32 0 7.28 5.57 10.62
4/14/2022 6:45:00 AM 0 32 0 7.28 5.64 10.62
4/14/2022 7:00:00 AM 0 32 0 7.28 5.86 10.65
4/14/2022 7:15:00 AM 0 32 0 7.29 5.64 10.66
4/14/2022 7:30:00 AM 0 32 0 7.29 5.53 10.7
4/14/2022 7:45:00 AM 0 32 0 7.3 5.68 10.72
4/14/2022 8:00:00 AM 0 32 0 7.31 5.56 10.74
4/14/2022 8:15:00 AM 0 32 0 7.32 5.22 10.77
4/14/2022 8:30:00 AM 0 32 0 7.33 5.28 10.79
4/14/2022 8:45:00 AM 0 32 0 7.34 5.03 10.82
4/14/2022 9:00:00 AM 0 32 0 7.36 4.97 10.85
4/14/2022 9:15:00 AM 0 32 0 7.37 5 10.86
4/14/2022 9:30:00 AM 0 32 0 7.39 4.88 10.88
4/14/2022 9:45:00 AM 0 32 0 7.4 5 10.87
4/14/2022 10:00:00 AM 0 32 0 7.42 4.84 10.89
4/14/2022 10:15:00 AM 0 32 0 7.43 5.01 10.86
4/14/2022 10:30:00 AM 0 32 0 7.44 5.1 10.86
4/14/2022 10:45:00 AM 0 32 0 7.45 5.18 10.82
4/14/2022 11:00:00 AM 0 32 0 7.46 4.99 10.81
4/14/2022 11:15:00 AM 0 32 0 7.47 4.9 10.76
4/14/2022 11:30:00 AM 0 32 0 7.49 4.8 10.74
4/14/2022 11:45:00 AM 0 32 0 7.49 4.92 10.68
4/14/2022 12:00:00 PM 0 32 0 7.49 4.73 10.61
4/14/2022 12:15:00 PM 0 32 0 7.49 4.96 10.57
4/14/2022 12:30:00 PM 0 32 0 7.49 4.81 10.52
4/14/2022 12:45:00 PM 0 32 0 7.49 4.85 10.5
4/14/2022 1:00:00 PM 0 32 0 7.48 4.95 10.47
4/14/2022 1:15:00 PM 0 32 0 7.48 4.9 10.46
4/14/2022 1:30:00 PM 0 32 0 7.48 5.14 10.46
4/14/2022 1:45:00 PM 0 32 0 7.47 5.07 10.46
4/14/2022 2:00:00 PM 0 32 0 7.47 5.59 10.48
4/14/2022 2:15:00 PM 0 32 0 7.48 5.07 10.51
4/14/2022 2:30:00 PM 0 32 0 7.48 5.46 10.52
4/14/2022 2:45:00 PM 0 32 0 7.48 5.86 10.54
4/14/2022 3:00:00 PM 0 32 0 7.48 5.79 10.53
4/14/2022 3:15:00 PM 0 32 0 7.47 5.78 10.52
4/14/2022 3:30:00 PM 0 32 0 7.47 5.53 10.52
4/14/2022 3:45:00 PM 0 32 0 7.47 5.46 10.53
4/14/2022 4:00:00 PM 0 32 0 7.47 5.5 10.56
4/14/2022 4:15:00 PM 0 32 0 7.48 5.39 10.58
4/14/2022 4:30:00 PM 0 32 0 7.48 5.42 10.6
4/14/2022 4:45:00 PM 0 32 0 7.48 7.6 10.62
4/14/2022 5:00:00 PM 0 32 0 7.49 5.55 10.62
4/14/2022 5:15:00 PM 0 32 0 7.48 5.58 10.65
4/14/2022 5:30:00 PM 0 32 0 7.48 6.16 10.63
4/14/2022 5:45:00 PM 0 32 0 7.47 5.7 10.61
4/14/2022 6:00:00 PM 0 32 0 7.47 6.29 10.6
4/14/2022 6:15:00 PM 0 32 0 7.47 6.48 10.61
4/14/2022 6:30:00 PM 0 32 0 7.46 5.85 10.59
4/14/2022 6:45:00 PM 0 32 0 7.45 6.33 10.6
4/14/2022 7:00:00 PM 0 32 0 7.45 7.97 10.57
4/14/2022 7:15:00 PM 0 32 0 7.44 6.19 10.57
4/14/2022 7:30:00 PM 0 32 0 7.43 6.68 10.55
4/14/2022 7:45:00 PM 0 32 0 7.42 7.22 10.54
4/14/2022 8:00:00 PM 0 32 0 7.42 6.9 10.53
4/14/2022 8:15:00 PM 0 32 0 7.41 6.99 10.53
4/14/2022 8:30:00 PM 0 32 0 7.4 6.44 10.53
4/14/2022 8:45:00 PM 0 32 0 7.39 9.56 10.54
4/14/2022 9:00:00 PM 0 32 0 7.39 10.3 10.54
4/14/2022 9:15:00 PM 0 32 0 7.38 6.4 10.56
4/14/2022 9:30:00 PM 0 32 0 7.38 7.25 10.58
4/14/2022 9:45:00 PM 0 32 0 7.37 6.2 10.61
4/14/2022 10:00:00 PM 0 32 0 7.37 6.96 10.63
4/14/2022 10:15:00 PM 0 32 0 7.36 6.7 10.64
4/14/2022 10:30:00 PM 0 32 0 7.36 5.91 10.67
4/14/2022 10:45:00 PM 0 32 0 7.36 7.09 10.69
4/14/2022 11:00:00 PM 0 32 0 7.35 7.28 10.7
4/14/2022 11:15:00 PM 0 32 0 7.35 11.44 10.74
4/14/2022 11:30:00 PM 0 32 0 7.35 6.08 10.75
4/14/2022 11:45:00 PM 0 32 0 7.35 6.53 10.79
4/15/2022 12:00:00 AM 0 32 0 7.35 6.01 10.81
4/15/2022 12:15:00 AM 0 32 0 7.35 6.28 10.82
4/15/2022 12:30:00 AM 0 32 0 7.35 6.26 10.86
4/15/2022 12:45:00 AM 0 32 0 7.35 7.55 10.92
4/15/2022 1:00:00 AM 0 32 0 7.35 6.09 10.93
4/15/2022 1:15:00 AM 0 32 0 7.35 6.2 10.95
4/15/2022 1:30:00 AM 0 32 0 7.35 6.09 10.98
4/15/2022 1:45:00 AM 0 32 0 7.35 5.95 11.01
4/15/2022 2:00:00 AM 0 32 0 7.35 6.61 11.04
4/15/2022 2:15:00 AM 0 32 0 7.35 5.85 11.06
4/15/2022 2:30:00 AM 0 32 0 7.35 6.04 11.08
4/15/2022 2:45:00 AM 0 32 0 7.35 6.61 11.12
4/15/2022 3:00:00 AM 0 32 0 7.35 6.3 11.14
4/15/2022 3:15:00 AM 0 32 0 7.35 5.66 11.18
4/15/2022 3:30:00 AM 0 32 0 7.35 5.52 11.17
4/15/2022 3:45:00 AM 0 32 0 7.35 5.79 11.2
4/15/2022 4:00:00 AM 0 32 0 7.35 5.39 11.24
4/15/2022 4:15:00 AM 0 32 0 7.35 5.33 11.27
4/15/2022 4:30:00 AM 0 32 0 7.34 5.33 11.31
4/15/2022 4:45:00 AM 0 32 0 7.33 5.52 11.33
4/15/2022 5:00:00 AM 0 32 0 7.34 5.6 11.33
4/15/2022 5:15:00 AM 0 32 0 7.34 5.58 11.36
4/15/2022 5:30:00 AM 0 32 0 7.33 5.21 11.39
4/15/2022 5:45:00 AM 0 32 0 7.33 5.17 11.42
4/15/2022 6:00:00 AM 0 32 0 7.33 5.26 11.45
4/15/2022 6:15:00 AM 0 32 0 7.33 5.18 11.48
4/15/2022 6:30:00 AM 0 32 0 7.32 5.2 11.51
4/15/2022 6:45:00 AM 0 32 0 7.32 5.42 11.55
4/15/2022 7:00:00 AM 0 32 0 7.32 5.36 11.56
4/15/2022 7:15:00 AM 0 32 0 7.32 5.41 11.62
4/15/2022 7:30:00 AM 0 32 0 7.32 5.47 11.66
4/15/2022 7:45:00 AM 0 32 0 7.33 5.13 11.68
4/15/2022 8:00:00 AM 0 32 0 7.33 5.23 11.74
4/15/2022 8:15:00 AM 0 32 0 7.34 5.02 11.76
4/15/2022 8:30:00 AM 0 32 0 7.34 5.09 11.79
4/15/2022 8:45:00 AM 0 32 0 7.35 4.89 11.82
4/15/2022 9:00:00 AM 0 32 0 7.36 4.81 11.86
4/15/2022 9:15:00 AM 0 32 0 7.37 5.06 11.87
4/15/2022 9:30:00 AM 0 32 0 7.38 4.68 11.91
4/15/2022 9:45:00 AM 0 32 0 7.39 4.6 11.89
4/15/2022 10:00:00 AM 0 32 0 7.4 4.72 11.9
4/15/2022 10:15:00 AM 0 32 0 7.41 4.41 11.88
4/15/2022 10:30:00 AM 0 32 0 7.43 4.47 11.86
4/15/2022 10:45:00 AM 0 32 0 7.44 4.6 11.83
4/15/2022 11:00:00 AM 0 32 0 7.45 4.52 11.78
4/15/2022 11:15:00 AM 0 32 0 7.46 4.46 11.76
4/15/2022 11:30:00 AM 0 32 0 7.47 4.28 11.68
4/15/2022 11:45:00 AM 0 32 0 7.48 4.16 11.65
4/15/2022 12:00:00 PM 0 32 0 7.49 4.49 11.57
4/15/2022 12:15:00 PM 0 32 0 7.5 4.24 11.53
4/15/2022 12:30:00 PM 0 32 0 7.5 4.31 11.48
4/15/2022 12:45:00 PM 0 32 0 7.51 4.09 11.43
4/15/2022 1:00:00 PM 0 32 0 7.52 4.42 11.37
4/15/2022 1:15:00 PM 0 32 0 7.52 4.13 11.32
4/15/2022 1:30:00 PM 0 32 0 7.52 4.21 11.28
4/15/2022 1:45:00 PM 0 32 0 7.53 4.7 11.24
4/15/2022 2:00:00 PM 0 32 0 7.53 4.3 11.19
4/15/2022 2:15:00 PM 0 32 0 7.54 4.29 11.17
4/15/2022 2:30:00 PM 0 32 0 7.54 4.32 11.16
4/15/2022 2:45:00 PM 0 32 0 7.54 4.22 11.15
4/15/2022 3:00:00 PM 0 32 0 7.55 4.4 11.11
4/15/2022 3:15:00 PM 0 32 0 7.55 4.24 11.1
4/15/2022 3:30:00 PM 0 32 0 7.55 4.19 11.1
4/15/2022 3:45:00 PM 0 32 0 7.55 4.23 11.06
4/15/2022 4:00:00 PM 0 32 0 7.55 4.21 11.05
4/15/2022 4:15:00 PM 0 32 0 7.56 4.32 11.04
4/15/2022 4:30:00 PM 0 32 0 7.56 4.36 11
4/15/2022 4:45:00 PM 0 32 0 7.55 4.29 10.99
4/15/2022 5:00:00 PM 0 32 0 7.55 4.37 10.96
4/15/2022 5:15:00 PM 0 32 0 7.55 4.48 10.93
4/15/2022 5:30:00 PM 0 32 0 7.54 4.07 10.92
4/15/2022 5:45:00 PM 0 32 0 7.54 4.35 10.89
4/15/2022 6:00:00 PM 0 32 0 7.53 4.39 10.9
4/15/2022 6:15:00 PM 0 32 0 7.53 4.59 10.88
4/15/2022 6:30:00 PM 0 32 0 7.52 4.6 10.86
4/15/2022 6:45:00 PM 0 32 0 7.52 4.44 10.85
4/15/2022 7:00:00 PM 0 32 0 7.51 4.41 10.85
4/15/2022 7:15:00 PM 0 32 0 7.5 4.46 10.81
4/15/2022 7:30:00 PM 0 32 0 7.49 4.52 10.78
4/15/2022 7:45:00 PM 0 32 0 7.48 4.45 10.77
4/15/2022 8:00:00 PM 0 32 0 7.47 4.58 10.75
4/15/2022 8:15:00 PM 0 32 0 7.46 4.64 10.72
4/15/2022 8:30:00 PM 0 32 0 7.46 4.77 10.7
4/15/2022 8:45:00 PM 0 32 0 7.45 4.78 10.69
4/15/2022 9:00:00 PM 0 32 0 7.45 5.12 10.68
4/15/2022 9:15:00 PM 0 32 0 7.44 4.77 10.67
4/15/2022 9:30:00 PM 0 32 0 7.44 4.83 10.67
4/15/2022 9:45:00 PM 0 32 0 7.43 4.72 10.67
4/15/2022 10:00:00 PM 0 32 0 7.43 4.95 10.67
4/15/2022 10:15:00 PM 0 32 0 7.43 4.87 10.67
4/15/2022 10:30:00 PM 0 32 0 7.42 4.74 10.65
4/15/2022 10:45:00 PM 0 32 0 7.42 4.62 10.66
4/15/2022 11:00:00 PM 0 32 0 7.42 4.59 10.68
4/15/2022 11:15:00 PM 0 32 0 7.41 4.6 10.67
4/15/2022 11:30:00 PM 0 32 0 7.41 5.05 10.67
4/15/2022 11:45:00 PM 0 32 0 7.41 5.16 10.67
4/16/2022 12:00:00 AM 0 32 0 7.41 4.63 10.69
4/16/2022 12:15:00 AM 0 32 0 7.41 4.8 10.69
4/16/2022 12:30:00 AM 0 32 0 7.4 4.68 10.69
4/16/2022 12:45:00 AM 0 32 0 7.41 4.67 10.69
4/16/2022 1:00:00 AM 0 32 0 7.4 4.93 10.72
4/16/2022 1:15:00 AM 0 32 0 7.4 4.68 10.72
4/16/2022 1:30:00 AM 0 32 0 7.4 5.06 10.72
4/16/2022 1:45:00 AM 0 32 0 7.4 4.78 10.74
4/16/2022 2:00:00 AM 0 32 0 7.41 4.69 10.74
4/16/2022 2:15:00 AM 0 32 0 7.41 5.43 10.77
4/16/2022 2:30:00 AM 0 32 0 7.41 5.04 10.77
4/16/2022 2:45:00 AM 0 32 0 7.41 4.97 10.8
4/16/2022 3:00:00 AM 0 32 0 7.41 4.67 10.8
4/16/2022 3:15:00 AM 0 32 0 7.41 4.91 10.83
4/16/2022 3:30:00 AM 0 32 0 7.41 4.65 10.84
4/16/2022 3:45:00 AM 0 32 0 7.41 4.66 10.83
4/16/2022 4:00:00 AM 0 32 0 7.41 4.66 10.86
4/16/2022 4:15:00 AM 0 32 0 7.4 4.8 10.86
4/16/2022 4:30:00 AM 0 32 0 7.41 4.57 10.89
4/16/2022 4:45:00 AM 0 32 0 7.4 4.51 10.89
4/16/2022 5:00:00 AM 0 32 0 7.4 4.57 10.92
4/16/2022 5:15:00 AM 0 32 0 7.4 4.56 10.93
4/16/2022 5:30:00 AM 0 32 0 7.4 4.72 10.93
4/16/2022 5:45:00 AM 0 32 0 7.4 4.52 10.95
4/16/2022 6:00:00 AM 0 32 0 7.4 4.61 10.95
4/16/2022 6:15:00 AM 0 32 0 7.4 4.84 10.98
4/16/2022 6:30:00 AM 0 32 0 7.4 5 10.99
4/16/2022 6:45:00 AM 0 32 0 7.4 4.81 11.02
4/16/2022 7:00:00 AM 0 32 0 7.4 5.15 11.02
4/16/2022 7:15:00 AM 0 32 0 7.4 5.05 11.03
4/16/2022 7:30:00 AM 0 32 0 7.4 4.75 11.07
4/16/2022 7:45:00 AM 0 32 0 7.4 4.73 11.08
4/16/2022 8:00:00 AM 0 32 0 7.41 4.67 11.1
4/16/2022 8:15:00 AM 0 32 0 7.41 4.67 11.12
4/16/2022 8:30:00 AM 0 32 0 7.42 4.65 11.16
4/16/2022 8:45:00 AM 0 32 0 7.42 4.58 11.17
4/16/2022 9:00:00 AM 0 32 0 7.43 4.64 11.19
4/16/2022 9:15:00 AM 0 32 0 7.43 4.54 11.2
4/16/2022 9:30:00 AM 0 32 0 7.44 4.56 11.23
4/16/2022 9:45:00 AM 0 32 0 7.45 4.47 11.28
4/16/2022 10:00:00 AM 0 32 0 7.45 4.43 11.3
4/16/2022 10:15:00 AM 0 32 0 7.46 4.32 11.31
4/16/2022 10:30:00 AM 0 32 0 7.47 4.48 11.33
4/16/2022 10:45:00 AM 0 32 0 7.47 4.52 11.36
4/16/2022 11:00:00 AM 0 32 0 7.48 4.44 11.37
4/16/2022 11:15:00 AM 0 32 0 7.48 4.4 11.39
4/16/2022 11:30:00 AM 0 32 0 7.49 4.34 11.42
4/16/2022 11:45:00 AM 0 32 0 7.49 4.28 11.45
4/16/2022 12:00:00 PM 0 32 0 7.49 4.17 11.44
4/16/2022 12:15:00 PM 0 32 0 7.49 4.14 11.43
4/16/2022 12:30:00 PM 0 32 0 7.49 3.89 11.42
4/16/2022 12:45:00 PM 0 32 0 7.49 4.2 11.43
4/16/2022 1:00:00 PM 0 32 0 7.49 4.39 11.41
4/16/2022 1:15:00 PM 0 32 0 7.48 4.92 11.43
4/16/2022 1:30:00 PM 0 32 0 7.48 5.28 11.43
4/16/2022 1:45:00 PM 0 32 0 7.48 5.91 11.46
4/16/2022 2:00:00 PM 0 32 0 7.48 6.44 11.46
4/16/2022 2:15:00 PM 0 32 0 7.47 6.7 11.48
4/16/2022 2:30:00 PM 0 32 0 7.47 8.05 11.5
4/16/2022 2:45:00 PM 0 32 0 7.46 11.03 11.53
4/16/2022 3:00:00 PM 0 32 0 7.44 12.98 11.55
4/16/2022 3:15:00 PM 0 32 0 7.42 37.51 11.55
4/16/2022 3:30:00 PM 0 32 0 7.41 15.72 11.57
4/16/2022 3:45:00 PM 0 32 0 7.4 17.7 11.57
4/16/2022 4:00:00 PM 0 32 0 7.4 15.89 11.6
4/16/2022 4:15:00 PM 0 32 0 7.39 15.32 11.6
4/16/2022 4:30:00 PM 0 32 0 7.39 12.58 11.61
4/16/2022 4:45:00 PM 0 32 0 7.38 14.9 11.64
4/16/2022 5:00:00 PM 0 32 0 7.38 13.33 11.65
4/16/2022 5:15:00 PM 0 32 0 7.38 13.35 11.64
4/16/2022 5:30:00 PM 0 32 0 7.38 14.53 11.64
4/16/2022 5:45:00 PM 0 32 0 7.37 12.43 11.63
4/16/2022 6:00:00 PM 0 32 0 7.36 17.47 11.61
4/16/2022 6:15:00 PM 0 32 0 7.36 15.14 11.61
4/16/2022 6:30:00 PM 0 32 0 7.36 16.91 11.59
4/16/2022 6:45:00 PM 0 32 0 7.35 18.26 11.58
4/16/2022 7:00:00 PM 0 32 0 7.35 18.18 11.56
4/16/2022 7:15:00 PM 0 32 0 7.33 16.45 11.54
4/16/2022 7:30:00 PM 0 32 0 7.33 19.44 11.56
4/16/2022 7:45:00 PM 0 32 0 7.32 19.22 11.55
4/16/2022 8:00:00 PM 0 32 0 7.31 19.67 11.56
4/16/2022 8:15:00 PM 0 32 0 7.31 20.96 11.56
4/16/2022 8:30:00 PM 0 32 0 7.3 21.2 11.59
4/16/2022 8:45:00 PM 0 32 0 7.29 21.88 11.58
4/16/2022 9:00:00 PM 0 32 0 7.29 23.26 11.58
4/16/2022 9:15:00 PM 0 32 0 7.29 21.64 11.58
4/16/2022 9:30:00 PM 0 32 0 7.28 20.91 11.62
4/16/2022 9:45:00 PM 0 32 0 7.28 17.22 11.62
4/16/2022 10:00:00 PM 0 32 0 7.27 23.54 11.62
4/16/2022 10:15:00 PM 0 32 0 7.26 19.29 11.64
4/16/2022 10:30:00 PM 0 32 0 7.26 19.85 11.64
4/16/2022 10:45:00 PM 0 32 0 7.26 21.8 11.65
4/16/2022 11:00:00 PM 0 32 0 7.26 17.83 11.67
4/16/2022 11:15:00 PM 0 32 0 7.26 20.09 11.67
4/16/2022 11:30:00 PM 0 32 0 7.25 16.97 11.68
4/16/2022 11:45:00 PM 0 32 0 7.25 17.27 11.7
4/17/2022 12:00:00 AM 0 32 0 7.25 18.94 11.69
4/17/2022 12:15:00 AM 0 32 0 7.26 15.04 11.7
4/17/2022 12:30:00 AM 0 32 0 7.25 13.87 11.73
4/17/2022 12:45:00 AM 0 32 0 7.26 13.3 11.73
4/17/2022 1:00:00 AM 0 32 0 7.26 13.42 11.76
4/17/2022 1:15:00 AM 0 32 0 7.26 12.28 11.74
4/17/2022 1:30:00 AM 0 32 0 7.26 12.75 11.77
4/17/2022 1:45:00 AM 0 32 0 7.25 13.53 11.77
4/17/2022 2:00:00 AM 0 32 0 7.25 11.04 11.8
4/17/2022 2:15:00 AM 0 32 0 7.24 11.63 11.8
4/17/2022 2:30:00 AM 0 32 0 7.24 13.86 11.83
4/17/2022 2:45:00 AM 0 32 0 7.24 9.26 11.86
4/17/2022 3:00:00 AM 0 32 0 7.24 10.82 11.86
4/17/2022 3:15:00 AM 0 32 0 7.24 11.07 11.89
4/17/2022 3:30:00 AM 0 32 0 7.24 9.39 11.92
4/17/2022 3:45:00 AM 0 32 0 7.24 11.61 11.93
4/17/2022 4:00:00 AM 0 32 0 7.23 11.07 11.96
4/17/2022 4:15:00 AM 0 32 0 7.23 9.33 11.99
4/17/2022 4:30:00 AM 0 32 0 7.23 9.2 11.99
4/17/2022 4:45:00 AM 0 32 0 7.23 9.32 12.02
4/17/2022 5:00:00 AM 0 32 0 7.23 9.23 12.04
4/17/2022 5:15:00 AM 0 32 0 7.23 8.63 12.07
4/17/2022 5:30:00 AM 0 32 0 7.23 12.3 12.07
4/17/2022 5:45:00 AM 0 32 0 7.23 10.73 12.11
4/17/2022 6:00:00 AM 0 32 0 7.24 7.09 12.11
4/17/2022 6:15:00 AM 0 32 0 7.24 9.49 12.14
4/17/2022 6:30:00 AM 0 32 0 7.24 10.14 12.15
4/17/2022 6:45:00 AM 0 32 0 7.24 9.44 12.19
4/17/2022 7:00:00 AM 0 32 0 7.25 7.25 12.2
4/17/2022 7:15:00 AM 0 32 0 7.25 7.05 12.22
4/17/2022 7:30:00 AM 0 32 0 7.26 6.45 12.29
4/17/2022 7:45:00 AM 0 32 0 7.26 6.78 12.3
4/17/2022 8:00:00 AM 0 32 0 7.27 6.28 12.34
4/17/2022 8:15:00 AM 0 32 0 7.29 6.63 12.38
4/17/2022 8:30:00 AM 0 32 0 7.3 5.45 12.41
4/17/2022 8:45:00 AM 0 32 0 7.31 6.43 12.43
4/17/2022 9:00:00 AM 0 32 0 7.32 6.27 12.46
4/17/2022 9:15:00 AM 0 32 0 7.33 5.22 12.46
4/17/2022 9:30:00 AM 0 32 0 7.34 5.59 12.48
4/17/2022 9:45:00 AM 0 32 0 7.35 4.96 12.49
4/17/2022 10:00:00 AM 0 32 0 7.36 5.02 12.49
4/17/2022 10:15:00 AM 0 32 0 7.37 4.84 12.51
4/17/2022 10:30:00 AM 0 32 0 7.38 4.84 12.5
4/17/2022 10:45:00 AM 0 32 0 7.38 4.69 12.51
4/17/2022 11:00:00 AM 0 32 0 7.39 4.98 12.48
4/17/2022 11:15:00 AM 0 32 0 7.4 4.5 12.47
4/17/2022 11:30:00 AM 0 32 0 7.41 4.45 12.44
4/17/2022 11:45:00 AM 0 32 0 7.42 4.51 12.43
4/17/2022 12:00:00 PM 0 32 0 7.43 4.38 12.39
4/17/2022 12:15:00 PM 0 32 0 7.43 4.62 12.37
4/17/2022 12:30:00 PM 0 32 0 7.43 4.33 12.32
4/17/2022 12:45:00 PM 0 32 0 7.45 4.33 12.29
4/17/2022 1:00:00 PM 0 32 0 7.45 4.31 12.28
4/17/2022 1:15:00 PM 0 32 0 7.45 4.39 12.25
4/17/2022 1:30:00 PM 0 32 0 7.46 4.15 12.24
4/17/2022 1:45:00 PM 0 32 0 7.46 4.18 12.19
4/17/2022 2:00:00 PM 0 32 0 7.47 4 12.18
4/17/2022 2:15:00 PM 0 32 0 7.47 4.38 12.12
4/17/2022 2:30:00 PM 0 32 0 7.47 4.37 12.11
4/17/2022 2:45:00 PM 0 32 0 7.48 4.18 12.07
4/17/2022 3:00:00 PM 0 32 0 7.49 4.1 12.08
4/17/2022 3:15:00 PM 0 32 0 7.49 4.13 12.06
4/17/2022 3:30:00 PM 0 32 0 7.49 4.3 12.04
4/17/2022 3:45:00 PM 0 32 0 7.49 4.23 12.04
4/17/2022 4:00:00 PM 0 32 0 7.49 4.11 12.02
4/17/2022 4:15:00 PM 0 32 0 7.5 4.34 12.04
4/17/2022 4:30:00 PM 0 32 0 7.5 4.32 12.01
4/17/2022 4:45:00 PM 0 32 0 7.5 3.99 11.98
4/17/2022 5:00:00 PM 0 32 0 7.5 3.95 11.99
4/17/2022 5:15:00 PM 0 32 0 7.5 4.09 11.97
4/17/2022 5:30:00 PM 0 32 0 7.49 3.95 11.95
4/17/2022 5:45:00 PM 0 32 0 7.49 4.33 11.96
4/17/2022 6:00:00 PM 0 32 0 7.49 4.06 11.94
4/17/2022 6:15:00 PM 0 32 0 7.48 3.99 11.95
4/17/2022 6:30:00 PM 0 32 0 7.48 4.11 11.92
4/17/2022 6:45:00 PM 0 32 0 7.48 3.93 11.93
4/17/2022 7:00:00 PM 0 32 0 7.47 3.82 11.94
4/17/2022 7:15:00 PM 0 32 0 7.46 3.97 11.9
4/17/2022 7:30:00 PM 0 32 0 7.46 3.89 11.92
4/17/2022 7:45:00 PM 0 32 0 7.45 3.99 11.9
4/17/2022 8:00:00 PM 0 32 0 7.45 4.14 11.88
4/17/2022 8:15:00 PM 0 32 0 7.44 3.88 11.88
4/17/2022 8:30:00 PM 0 32 0 7.43 4.13 11.85
4/17/2022 8:45:00 PM 0 32 0 7.43 4.38 11.88
4/17/2022 9:00:00 PM 0 32 0 7.42 4.51 11.86
4/17/2022 9:15:00 PM 0 32 0 7.42 4.05 11.88
4/17/2022 9:30:00 PM 0 32 0 7.41 4.14 11.87
4/17/2022 9:45:00 PM 0 32 0 7.41 4.1 11.89
4/17/2022 10:00:00 PM 0 32 0 7.41 4.35 11.89
4/17/2022 10:15:00 PM 0 32 0 7.4 4.16 11.91
4/17/2022 10:30:00 PM 0 32 0 7.4 4.27 11.91
4/17/2022 10:45:00 PM 0 32 0 7.4 4.12 11.94
4/17/2022 11:00:00 PM 0 32 0 7.4 4.13 11.94
4/17/2022 11:15:00 PM 0 32 0 7.4 4.46 11.97
4/17/2022 11:30:00 PM 0 32 0 7.39 3.98 11.97
4/17/2022 11:45:00 PM 0 32 0 7.39 4.41 11.99
4/18/2022 12:00:00 AM 0 32 0 7.39 4.2 11.99
4/18/2022 12:15:00 AM 0 32 0 7.39 4.07 11.99
4/18/2022 12:30:00 AM 0 32 0 7.39 4.05 12.03
4/18/2022 12:45:00 AM 0 32 0 7.39 4.05 12.05
4/18/2022 1:00:00 AM 0 32 0 7.39 4.72 12.06
4/18/2022 1:15:00 AM 0 32 0 7.38 4.09 12.08
4/18/2022 1:30:00 AM 0 32 0 7.38 4.2 12.09
4/18/2022 1:45:00 AM 0 32 0 7.38 4.24 12.12
4/18/2022 2:00:00 AM 0 32 0 7.38 4.07 12.15
4/18/2022 2:15:00 AM 0 32 0 7.38 3.99 12.16
4/18/2022 2:30:00 AM 0 32 0 7.38 3.97 12.19
4/18/2022 2:45:00 AM 0 32 0 7.38 3.98 12.19
4/18/2022 3:00:00 AM 0 32 0 7.38 3.93 12.23
4/18/2022 3:15:00 AM 0 32 0 7.38 4.1 12.26
4/18/2022 3:30:00 AM 0 32 0 7.38 3.98 12.26
4/18/2022 3:45:00 AM 0 32 0 7.37 3.81 12.3
4/18/2022 4:00:00 AM 0 32 0 7.37 3.88 12.33
4/18/2022 4:15:00 AM 0 32 0 7.37 3.98 12.33
4/18/2022 4:30:00 AM 0 32 0 7.37 3.82 12.36
4/18/2022 4:45:00 AM 0 32 0 7.37 3.85 12.39
4/18/2022 5:00:00 AM 0 32 0 7.37 3.92 12.42
4/18/2022 5:15:00 AM 0 32 0 7.37 3.87 12.43
4/18/2022 5:30:00 AM 0 32 0 7.37 3.65 12.46
4/18/2022 5:45:00 AM 0 32 0 7.37 3.73 12.49
4/18/2022 6:00:00 AM 0 32 0 7.35 3.78 12.5
4/18/2022 6:15:00 AM 0 32 0 7.35 3.88 12.53
4/18/2022 6:30:00 AM 0 32 0 7.35 4.08 12.58
4/18/2022 6:45:00 AM 0 32 0 7.35 4.07 12.58
4/18/2022 7:00:00 AM 0 32 0 7.35 3.77 12.62
4/18/2022 7:15:00 AM 0 32 0 7.35 4.35 12.64
4/18/2022 7:30:00 AM 0 32 0 7.36 4.09 12.69
4/18/2022 7:45:00 AM 0 32 0 7.36 3.76 12.71
4/18/2022 8:00:00 AM 0 32 0 7.37 3.56 12.74
4/18/2022 8:15:00 AM 0 32 0 7.37 3.54 12.77
4/18/2022 8:30:00 AM 0 32 0 7.38 3.6 12.8
4/18/2022 8:45:00 AM 0 32 0 7.38 3.32 12.83
4/18/2022 9:00:00 AM 0 32 0 7.39 3.32 12.83
4/18/2022 9:15:00 AM 0 32 0 7.39 3.37 12.83
4/18/2022 9:30:00 AM 0 32 0 7.41 3.3 12.84
4/18/2022 9:45:00 AM 0 32 0 7.41 3.3 12.84
4/18/2022 10:00:00 AM 0 32 0 7.42 3.36 12.81
4/18/2022 10:15:00 AM 0 32 0 7.43 3.25 12.81
4/18/2022 10:30:00 AM 0 32 0 7.44 3.51 12.75
4/18/2022 10:45:00 AM 0 32 0 7.44 3.35 12.71
4/18/2022 11:00:00 AM 0 32 0 7.45 3.23 12.67
4/18/2022 11:15:00 AM 0 32 0 7.46 3.2 12.6
4/18/2022 11:30:00 AM 0 32 0 7.47 3.2 12.56
4/18/2022 11:45:00 AM 0 32 0 7.47 3.28 12.51
4/18/2022 12:00:00 PM 0 32 0 7.48 3.33 12.42
4/18/2022 12:15:00 PM 0 32 0 7.48 3.09 12.39
4/18/2022 12:30:00 PM 0 32 0 7.49 3.12 12.31
4/18/2022 12:45:00 PM 0 32 0 7.5 3.16 12.28
4/18/2022 1:00:00 PM 0 32 0 7.5 3.18 12.24
4/18/2022 1:15:00 PM 0 32 0 7.51 3.24 12.2
4/18/2022 1:30:00 PM 0 32 0 7.51 3.1 12.16
4/18/2022 1:45:00 PM 0 32 0 7.51 3.15 12.16
4/18/2022 2:00:00 PM 0 32 0 7.52 3.32 12.12
4/18/2022 2:15:00 PM 0 32 0 7.52 3.43 12.11
4/18/2022 2:30:00 PM 0 32 0 7.52 3.39 12.09
4/18/2022 2:45:00 PM 0 32 0 7.52 3.24 12.07
4/18/2022 3:00:00 PM 0 32 0 7.52 3.2 12.05
4/18/2022 3:15:00 PM 0 32 0 7.53 3.28 12.03
4/18/2022 3:30:00 PM 0 32 0 7.52 3.22 12.01
4/18/2022 3:45:00 PM 0 32 0 7.53 3.17 12.02
4/18/2022 4:00:00 PM 0 32 0 7.53 3.25 12
4/18/2022 4:15:00 PM 0 32 0 7.52 3.17 11.99
4/18/2022 4:30:00 PM 0 32 0 7.53 3.32 11.99
4/18/2022 4:45:00 PM 0 32 0 7.52 3.21 11.99
4/18/2022 5:00:00 PM 0 32 0 7.52 3.18 11.98
4/18/2022 5:15:00 PM 0 32 0 7.52 3.22 11.95
4/18/2022 5:30:00 PM 0 32 0 7.52 3.2 11.96
4/18/2022 5:45:00 PM 0 32 0 7.52 3.32 11.93
4/18/2022 6:00:00 PM 0 32 0 7.51 3.31 11.88
4/18/2022 6:15:00 PM 0 32 0 7.5 3.24 11.89
4/18/2022 6:30:00 PM 0 32 0 7.5 3.37 11.84
4/18/2022 6:45:00 PM 0 32 0 7.49 3.35 11.85
4/18/2022 7:00:00 PM 0 32 0 7.48 3.38 11.83
4/18/2022 7:15:00 PM 0 32 0 7.48 3.39 11.8
4/18/2022 7:30:00 PM 0 32 0 7.47 3.5 11.79
4/18/2022 7:45:00 PM 0 32 0 7.46 3.77 11.78
4/18/2022 8:00:00 PM 0 32 0 7.45 3.58 11.79
4/18/2022 8:15:00 PM 0 32 0 7.45 3.7 11.81
4/18/2022 8:30:00 PM 0 32 0 7.44 3.71 11.79
4/18/2022 8:45:00 PM 0 32 0 7.44 3.73 11.81
4/18/2022 9:00:00 PM 0 32 0 7.43 3.83 11.8
4/18/2022 9:15:00 PM 0 32 0 7.43 4.09 11.81
4/18/2022 9:30:00 PM 0 32 0 7.42 4.1 11.81
4/18/2022 9:45:00 PM 0 32 0 7.42 3.97 11.82
4/18/2022 10:00:00 PM 0 32 0 7.42 4.2 11.85
4/18/2022 10:15:00 PM 0 32 0 7.41 4.19 11.87
4/18/2022 10:30:00 PM 0 32 0 7.41 3.9 11.89
4/18/2022 10:45:00 PM 0 32 0 7.41 4 11.9
4/18/2022 11:00:00 PM 0 32 0 7.41 4.19 11.92
4/18/2022 11:15:00 PM 0 32 0 7.4 4.22 11.95
4/18/2022 11:30:00 PM 0 32 0 7.4 4.24 11.95
4/18/2022 11:45:00 PM 0 32 0 7.4 4.16 11.98
4/19/2022 12:00:00 AM 0 32 0 7.4 4.12 12.02
4/19/2022 12:15:00 AM 0 32 0 7.39 4.44 12.05
4/19/2022 12:30:00 AM 0 32 0 7.39 4.47 12.07
4/19/2022 12:45:00 AM 0 32 0 7.39 4.4 12.09
4/19/2022 1:00:00 AM 0 32 0 7.39 4.22 12.12
4/19/2022 1:15:00 AM 0 32 0 7.39 4.42 12.12
4/19/2022 1:30:00 AM 0 32 0 7.38 4.41 12.14
4/19/2022 1:45:00 AM 0 32 0 7.38 4.39 12.17
4/19/2022 2:00:00 AM 0 32 0 7.38 4.47 12.18
4/19/2022 2:15:00 AM 0 32 0 7.38 4.42 12.22
4/19/2022 2:30:00 AM 0 32 0 7.38 4.54 12.24
4/19/2022 2:45:00 AM 0 32 0 7.37 4.29 12.27
4/19/2022 3:00:00 AM 0 32 0 7.37 4.47 12.31
4/19/2022 3:15:00 AM 0 32 0 7.36 4.42 12.37
4/19/2022 3:30:00 AM 0 32 0 7.35 4.62 12.38
4/19/2022 3:45:00 AM 0 32 0 7.36 4.49 12.42
4/19/2022 4:00:00 AM 0 32 0 7.35 4.94 12.5
4/19/2022 4:15:00 AM 0 32 0 7.34 4.41 12.55
4/19/2022 4:30:00 AM 0 32 0 7.34 6.9 12.56
4/19/2022 4:45:00 AM 0 32 0 7.33 4.88 12.6
4/19/2022 5:00:00 AM 0 32 0 7.33 6 12.63
4/19/2022 5:15:00 AM 0 32 0 7.32 6.52 12.67
4/19/2022 5:30:00 AM 0 32 0 7.31 7.02 12.71
4/19/2022 5:45:00 AM 0 32 0 7.31 5.25 12.71
4/19/2022 6:00:00 AM 0 32 0 7.3 8.76 12.74
4/19/2022 6:15:00 AM 0 32 0 7.29 4.79 12.78
4/19/2022 6:30:00 AM 0 32 0 7.29 5.14 12.79
4/19/2022 6:45:00 AM 0 32 0 7.29 6.08 12.82
4/19/2022 7:00:00 AM 0 32 0 7.29 4.96 12.84
4/19/2022 7:15:00 AM 0 32 0 7.28 8.13 12.86
4/19/2022 7:30:00 AM 0 32 0 7.28 7 12.91
4/19/2022 7:45:00 AM 0 32 0 7.28 4.82 12.94
4/19/2022 8:00:00 AM 0 32 0 7.29 5.18 12.95
4/19/2022 8:15:00 AM 0 32 0 7.29 11.27 12.98
4/19/2022 8:30:00 AM 0 32 0 7.29 4.93 13
4/19/2022 8:45:00 AM 0 32 0 7.3 5.45 13.02
4/19/2022 9:00:00 AM 0 32 0 7.31 4.23 13.03
4/19/2022 9:15:00 AM 0 32 0 7.31 10.43 13.07
4/19/2022 9:30:00 AM 0 32 0 7.31 4.69 13.1
4/19/2022 9:45:00 AM 0 32 0 7.32 4.96 13.12
4/19/2022 10:00:00 AM 0 32 0 7.32 6.41 13.1
4/19/2022 10:15:00 AM 0 32 0 7.33 5.34 13.13
4/19/2022 10:30:00 AM 0 32 0 7.34 8.17 13.12
4/19/2022 10:45:00 AM 0 32 0 7.35 4.02 13.12
4/19/2022 11:00:00 AM 0 32 0 7.35 5.15 13.15
4/19/2022 11:15:00 AM 0 32 0 7.35 4.87 13.13
4/19/2022 11:30:00 AM 0 32 0 7.36 5.13 13.14
4/19/2022 11:45:00 AM 0 32 0 7.36 13 13.13
4/19/2022 12:00:00 PM 0 32 0 7.37 4.2 13.13
4/19/2022 12:15:00 PM 0 32 0 7.37 7.49 13.1
4/19/2022 12:30:00 PM 0 32 0 7.37 7.84 13.11
4/19/2022 12:45:00 PM 0 32 0 7.37 4.66 13.08
4/19/2022 1:00:00 PM 0 32 0 7.38 6.53 13.08
4/19/2022 1:15:00 PM 0 32 0 7.38 7.76 13.06
4/19/2022 1:30:00 PM 0 32 0 7.39 5.19 13.08
4/19/2022 1:45:00 PM 0 32 0 7.39 4.74 13.06
4/19/2022 2:00:00 PM 0 32 0 7.39 6.53 13.03
4/19/2022 2:15:00 PM 0 32 0 7.39 9.19 13.01
4/19/2022 2:30:00 PM 0 32 0 7.4 6.29 12.99
4/19/2022 2:45:00 PM 0 32 0 7.4 5.41 12.96
4/19/2022 3:00:00 PM 0 32 0 7.41 5.68 12.95
4/19/2022 3:15:00 PM 0 32 0 7.41 4.66 12.91
4/19/2022 3:30:00 PM 0 32 0 7.4 8.69 12.87
4/19/2022 3:45:00 PM 0 32 0 7.41 10.15 12.85
4/19/2022 4:00:00 PM 0 32 0 7.41 8.06 12.84
4/19/2022 4:15:00 PM 0 32 0 7.41 5.64 12.83
4/19/2022 4:30:00 PM 0 32 0 7.4 11.15 12.79
4/19/2022 4:45:00 PM 0 32 0 7.41 6.03 12.78
4/19/2022 5:00:00 PM 0 32 0 7.41 6.26 12.78
4/19/2022 5:15:00 PM 0 32 0 7.41 8.78 12.76
4/19/2022 5:30:00 PM 0 32 0 7.41 5.96 12.75
4/19/2022 5:45:00 PM 0 32 0 7.4 9.34 12.75
4/19/2022 6:00:00 PM 0 32 0 7.4 9.72 12.72
4/19/2022 6:15:00 PM 0 32 0 7.4 9.71 12.71
4/19/2022 6:30:00 PM 0 32 0 7.39 4.21 12.7
4/19/2022 6:45:00 PM 0 32 0 7.39 7.29 12.69
4/19/2022 7:00:00 PM 0 32 0 7.39 13.3 12.67
4/19/2022 7:15:00 PM 0 32 0 7.38 10.55 12.65
4/19/2022 7:30:00 PM 0 32 0 7.38 6.15 12.64
4/19/2022 7:45:00 PM 0 32 0 7.37 7.72 12.62
4/19/2022 8:00:00 PM 0 32 0 7.37 6.86 12.63
4/19/2022 8:15:00 PM 0 32 0 7.36 8.35 12.61
4/19/2022 8:30:00 PM 0 32 0 7.36 5.32 12.59
4/19/2022 8:45:00 PM 0 32 0 7.35 10.4 12.58
4/19/2022 9:00:00 PM 0 32 0 7.35 8.65 12.57
4/19/2022 9:15:00 PM 0 32 0 7.35 4.59 12.57
4/19/2022 9:30:00 PM 0 32 0 7.34 5.5 12.56
4/19/2022 9:45:00 PM 0 32 0 7.34 8.09 12.56
4/19/2022 10:00:00 PM 0 32 0 7.34 7.67 12.55
4/19/2022 10:15:00 PM 0 32 0 7.33 10.7 12.55
4/19/2022 10:30:00 PM 0 32 0 7.34 7.97 12.55
4/19/2022 10:45:00 PM 0 32 0 7.33 4.66 12.58
4/19/2022 11:00:00 PM 0 32 0 7.33 10.73 12.58
4/19/2022 11:15:00 PM 0 32 0 7.33 5.65 12.58
4/19/2022 11:30:00 PM 0 32 0 7.33 5.09 12.58
4/19/2022 11:45:00 PM 0 32 0 7.33 5.03 12.58
4/20/2022 12:00:00 AM 0 32 0 7.33 7.73 12.59
4/20/2022 12:15:00 AM 0 32 0 7.33 7.79 12.59
4/20/2022 12:30:00 AM 0 32 0 7.32 4.51 12.59
4/20/2022 12:45:00 AM 0 32 0 7.33 4.93 12.61
4/20/2022 1:00:00 AM 0 32 0 7.32 8.26 12.64
4/20/2022 1:15:00 AM 0 32 0 7.32 6.26 12.64
4/20/2022 1:30:00 AM 0 32 0 7.32 4.16 12.65
4/20/2022 1:45:00 AM 0 32 0 7.32 7.21 12.65
4/20/2022 2:00:00 AM 0 32 0 7.32 5.24 12.66
4/20/2022 2:15:00 AM 0 32 0 7.32 5.61 12.66
4/20/2022 2:30:00 AM 0 32 0 7.32 4.47 12.67
4/20/2022 2:45:00 AM 0 32 0 7.32 3.84 12.66
4/20/2022 3:00:00 AM 0 32 0 7.32 5.77 12.68
4/20/2022 3:15:00 AM 0 32 0 7.32 5.06 12.72
4/20/2022 3:30:00 AM 0 32 0 7.32 4.4 12.71
4/20/2022 3:45:00 AM 0 32 0 7.32 9.24 12.72
4/20/2022 4:00:00 AM 0 32 0 7.32 3.89 12.71
4/20/2022 4:15:00 AM 0 32 0 7.32 4.16 12.72
4/20/2022 4:30:00 AM 0 32 0 7.32 3.9 12.72
4/20/2022 4:45:00 AM 0 32 0 7.31 3.99 12.72
4/20/2022 5:00:00 AM 0 32 0 7.31 9.06 12.76
4/20/2022 5:15:00 AM 0 32 0 7.32 4.23 12.77
4/20/2022 5:30:00 AM 0 32 0 7.32 5.46 12.77
4/20/2022 5:45:00 AM 0 32 0 7.32 3.62 12.77
4/20/2022 6:00:00 AM 0 32 0 7.32 4.99 12.78
4/20/2022 6:15:00 AM 0 32 0 7.32 4.1 12.78
4/20/2022 6:30:00 AM 0 32 0 7.32 3.6 12.78
4/20/2022 6:45:00 AM 0 32 0 7.32 3.8 12.79
4/20/2022 7:00:00 AM 0 32 0 7.32 7.13 12.8
4/20/2022 7:15:00 AM 0 32 0 7.33 3.54 12.82
4/20/2022 7:30:00 AM 0 32 0 7.33 3.59 12.84
4/20/2022 7:45:00 AM 0 32 0 7.34 3.63 12.86
4/20/2022 8:00:00 AM 0 32 0 7.35 4.01 12.9
4/20/2022 8:15:00 AM 0 32 0 7.35 3.88 12.93
4/20/2022 8:30:00 AM 0 32 0 7.36 4.42 12.93
4/20/2022 8:45:00 AM 0 32 0 7.37 3.5 12.94
4/20/2022 9:00:00 AM 0 32 0 7.37 3.37 12.94
4/20/2022 9:15:00 AM 0 32 0 7.38 4.23 12.98
4/20/2022 9:30:00 AM 0 32 0 7.39 3.33 12.99
4/20/2022 9:45:00 AM 0 32 0 7.4 3.41 12.93
4/20/2022 10:00:00 AM 0 32 0 7.41 3.31 12.91
4/20/2022 10:15:00 AM 0 32 0 7.41 3.4 12.89
4/20/2022 10:30:00 AM 0 32 0 7.42 3.38 12.89
4/20/2022 10:45:00 AM 0 32 0 7.43 4.01 12.82
4/20/2022 11:00:00 AM 0 32 0 7.44 3.39 12.79
4/20/2022 11:15:00 AM 0 32 0 7.44 3.21 12.74
4/20/2022 11:30:00 AM 0 32 0 7.44 3.51 12.67
4/20/2022 11:45:00 AM 0 32 0 7.45 3.18 12.61
4/20/2022 12:00:00 PM 0 32 0 7.45 3.47 12.54
4/20/2022 12:15:00 PM 0 32 0 7.45 3.26 12.47
4/20/2022 12:30:00 PM 0 32 0 7.45 3.23 12.37
4/20/2022 12:45:00 PM 0 32 0 7.46 3.29 12.31
4/20/2022 1:00:00 PM 0 32 0 7.46 3.3 12.22
4/20/2022 1:15:00 PM 0 32 0 7.45 3.48 12.14
4/20/2022 1:30:00 PM 0 32 0 7.45 6.19 12.1
4/20/2022 1:45:00 PM 0 32 0 7.44 4.16 12.01
4/20/2022 2:00:00 PM 0 32 0 7.44 3.87 11.94
4/20/2022 2:15:00 PM 0 32 0 7.44 4.56 11.89
4/20/2022 2:30:00 PM 0 32 0 7.43 11.84 11.85
4/20/2022 2:45:00 PM 0 32 0 7.43 7.8 11.78
4/20/2022 3:00:00 PM 0 32 0 7.43 6.77 11.73
4/20/2022 3:15:00 PM 0 32 0 7.43 5.44 11.72
4/20/2022 3:30:00 PM 0 32 0 7.43 8.54 11.68
4/20/2022 3:45:00 PM 0 32 0 7.43 11.58 11.65
4/20/2022 4:00:00 PM 0 32 0 7.43 10.58 11.63
4/20/2022 4:15:00 PM 0 32 0 7.44 8.99 11.61
4/20/2022 4:30:00 PM 0 32 0 7.43 13.24 11.58
4/20/2022 4:45:00 PM 0 32 0 7.43 12.87 11.58
4/20/2022 5:00:00 PM 0 32 0 7.42 9.98 11.55
4/20/2022 5:15:00 PM 0 32 0 7.41 10.62 11.54
4/20/2022 5:30:00 PM 0 32 0 7.4 11.52 11.51
4/20/2022 5:45:00 PM 0 32 0 7.4 11.99 11.5
4/20/2022 6:00:00 PM 0 32 0 7.4 11.4 11.48
4/20/2022 6:15:00 PM 0 32 0 7.39 11.68 11.48
4/20/2022 6:30:00 PM 0 32 0 7.39 11.94 11.44
4/20/2022 6:45:00 PM 0 32 0 7.38 12.63 11.41
4/20/2022 7:00:00 PM 0 32 0 7.37 13.09 11.38
4/20/2022 7:15:00 PM 0 32 0 7.37 13.97 11.35
4/20/2022 7:30:00 PM 0 32 0 7.36 14.41 11.33
4/20/2022 7:45:00 PM 0 32 0 7.36 18.68 11.3
4/20/2022 8:00:00 PM 0 32 0 7.35 15.73 11.29
4/20/2022 8:15:00 PM 0 32 0 7.34 15.45 11.27
4/20/2022 8:30:00 PM 0 32 0 7.33 16.13 11.25
4/20/2022 8:45:00 PM 0 32 0 7.32 20.99 11.27
4/20/2022 9:00:00 PM 0 32 0 7.32 17.71 11.29
4/20/2022 9:15:00 PM 0 32 0 7.31 17.61 11.31
4/20/2022 9:30:00 PM 0 32 0 7.3 21.2 11.33
4/20/2022 9:45:00 PM 0 32 0 7.29 18 11.36
4/20/2022 10:00:00 PM 0 32 0 7.29 17.02 11.38
4/20/2022 10:15:00 PM 0 32 0 7.28 17.33 11.41
4/20/2022 10:30:00 PM 0 32 0 7.27 13.73 11.44
4/20/2022 10:45:00 PM 0 32 0 7.26 16.49 11.49
4/20/2022 11:00:00 PM 0 32 0 7.26 15.95 11.52
4/20/2022 11:15:00 PM 0 32 0 7.26 14.76 11.58
4/20/2022 11:30:00 PM 0 32 0 7.25 15.05 11.61
4/20/2022 11:45:00 PM 0 32 0 7.25 14.4 11.65
4/21/2022 12:00:00 AM 0 32 0 7.24 13.67 11.72
4/21/2022 12:15:00 AM 0 32 0 7.24 13.28 11.76
4/21/2022 12:30:00 AM 0 32 0 7.24 12.83 11.77
4/21/2022 12:45:00 AM 0 32 0 7.24 12.25 11.81
4/21/2022 1:00:00 AM 0 32 0 7.23 13.35 11.87
4/21/2022 1:15:00 AM 0 32 0 7.23 11.46 11.91
4/21/2022 1:30:00 AM 0 32 0 7.23 11.2 11.92
4/21/2022 1:45:00 AM 0 32 0 7.22 12.83 11.96
4/21/2022 2:00:00 AM 0 32 0 7.22 12.14 12
4/21/2022 2:15:00 AM 0 32 0 7.22 11.48 12.03
4/21/2022 2:30:00 AM 0 32 0 7.22 13.59 12.06
4/21/2022 2:45:00 AM 0 32 0 7.22 11.36 12.07
4/21/2022 3:00:00 AM 0 32 0 7.22 10.65 12.09
4/21/2022 3:15:00 AM 0 32 0 7.21 13.22 12.13
4/21/2022 3:30:00 AM 0 32 0 7.22 12.65 12.13
4/21/2022 3:45:00 AM 0 32 0 7.21 11.04 12.17
4/21/2022 4:00:00 AM 0 32 0 7.22 11.49 12.2
4/21/2022 4:15:00 AM 0 32 0 7.22 15.04 12.2
4/21/2022 4:30:00 AM 0 32 0 7.22 8.66 12.23
4/21/2022 4:45:00 AM 0 32 0 7.22 10.06 12.22
4/21/2022 5:00:00 AM 0 32 0 7.22 8.31 12.27
4/21/2022 5:15:00 AM 0 32 0 7.22 10.94 12.29
4/21/2022 5:30:00 AM 0 32 0 7.22 11.05 12.3
4/21/2022 5:45:00 AM 0 32 0 7.22 7.43 12.32
4/21/2022 6:00:00 AM 0 32 0 7.22 7.8 12.33
4/21/2022 6:15:00 AM 0 32 0 7.23 8.23 12.33
4/21/2022 6:30:00 AM 0 32 0 7.23 5.6 12.36
4/21/2022 6:45:00 AM 0 32 0 7.23 8.83 12.37
4/21/2022 7:00:00 AM 0 32 0 7.23 10.43 12.38
4/21/2022 7:15:00 AM 0 32 0 7.24 8.15 12.41
4/21/2022 7:30:00 AM 0 32 0 7.24 7.2 12.43
4/21/2022 7:45:00 AM 0 32 0 7.25 6.48 12.45
4/21/2022 8:00:00 AM 0 32 0 7.26 9.87 12.48
4/21/2022 8:15:00 AM 0 32 0 7.27 6.04 12.48
4/21/2022 8:30:00 AM 0 32 0 7.28 7 12.52
4/21/2022 8:45:00 AM 0 32 0 7.29 7.86 12.52
4/21/2022 9:00:00 AM 0 32 0 7.3 12.18 12.52
4/21/2022 9:15:00 AM 0 32 0 7.31 6.21 12.52
4/21/2022 9:30:00 AM 0 32 0 7.32 6.66 12.49
4/21/2022 9:45:00 AM 0 32 0 7.32 5.88 12.5
4/21/2022 10:00:00 AM 0 32 0 7.33 8.38 12.47
4/21/2022 10:15:00 AM 0 32 0 7.33 5.2 12.48
4/21/2022 10:30:00 AM 0 32 0 7.34 5.93 12.46
4/21/2022 10:45:00 AM 0 32 0 7.34 8.19 12.45
4/21/2022 11:00:00 AM 0 32 0 7.35 7.22 12.43
4/21/2022 11:15:00 AM 0 32 0 7.36 7.41 12.41
4/21/2022 11:30:00 AM 0 32 0 7.36 5.14 12.39
4/21/2022 11:45:00 AM 0 32 0 7.37 5.17 12.35
4/21/2022 12:00:00 PM 0 32 0 7.37 5.72 12.35
4/21/2022 12:15:00 PM 0 32 0 7.37 6.94 12.31
4/21/2022 12:30:00 PM 0 32 0 7.38 10.21 12.26
4/21/2022 12:45:00 PM 0 32 0 7.38 6.37 12.25
4/21/2022 1:00:00 PM 0 32 0 7.38 6.79 12.21
4/21/2022 1:15:00 PM 0 32 0 7.38 10.5 12.2
4/21/2022 1:30:00 PM 0 32 0 7.38 6.08 12.18
4/21/2022 1:45:00 PM 0 32 0 7.38 5.48 12.13
4/21/2022 2:00:00 PM 0 32 0 7.37 9.14 12.13
4/21/2022 2:15:00 PM 0 32 0 7.37 5.49 12.11
4/21/2022 2:30:00 PM 0 32 0 7.36 6.56 12.09
4/21/2022 2:45:00 PM 0 32 0 7.36 7.73 12.08
4/21/2022 3:00:00 PM 0 32 0 7.35 7.99 12.08
4/21/2022 3:15:00 PM 0 32 0 7.34 6.45 12.05
4/21/2022 3:30:00 PM 0 32 0 7.34 6.53 12.04
4/21/2022 3:45:00 PM 0 32 0 7.33 11.53 12.04
4/21/2022 4:00:00 PM 0 32 0 7.33 9.13 12.01
4/21/2022 4:15:00 PM 0 32 0 7.33 8.54 12.02
4/21/2022 4:30:00 PM 0 32 0 7.33 8.68 12.01
4/21/2022 4:45:00 PM 0 32 0 7.33 6.49 11.98
4/21/2022 5:00:00 PM 0 32 0 7.33 7.13 12
4/21/2022 5:15:00 PM 0 32 0 7.33 7.1 11.98
4/21/2022 5:30:00 PM 0 32 0 7.33 7.86 11.95
4/21/2022 5:45:00 PM 0 32 0 7.33 7.47 11.95
4/21/2022 6:00:00 PM 0 32 0 7.33 7.81 11.94
4/21/2022 6:15:00 PM 0 32 0 7.34 8 11.92
4/21/2022 6:30:00 PM 0 32 0 7.33 8.4 11.92
4/21/2022 6:45:00 PM 0 32 0 7.34 8.44 11.92
4/21/2022 7:00:00 PM 0 32 0 7.33 8.42 11.89
4/21/2022 7:15:00 PM 0 32 0 7.33 8.84 11.88
4/21/2022 7:30:00 PM 0 32 0 7.32 8.92 11.86
4/21/2022 7:45:00 PM 0 32 0 7.32 8.8 11.87
4/21/2022 8:00:00 PM 0 32 0 7.31 9.27 11.85
4/21/2022 8:15:00 PM 0 32 0 7.3 9.36 11.82
4/21/2022 8:30:00 PM 0 32 0 7.29 9.29 11.84
4/21/2022 8:45:00 PM 0 32 0 7.28 9.38 11.82
4/21/2022 9:00:00 PM 0 32 0 7.27 9.06 11.82
4/21/2022 9:15:00 PM 0 32 0 7.26 9.34 11.83
4/21/2022 9:30:00 PM 0 32 0 7.26 9.16 11.83
4/21/2022 9:45:00 PM 0 32 0 7.25 9.28 11.81
4/21/2022 10:00:00 PM 0 32 0 7.25 10.21 11.84
4/21/2022 10:15:00 PM 0 32 0 7.24 9.55 11.84
4/21/2022 10:30:00 PM 0 32 0 7.24 8.73 11.85
4/21/2022 10:45:00 PM 0 32 0 7.23 8.56 11.87
4/21/2022 11:00:00 PM 0 32 0 7.23 9.02 11.87
4/21/2022 11:15:00 PM 0 32 0 7.23 8.22 11.88
4/21/2022 11:30:00 PM 0 32 0 7.22 9.14 11.9
4/21/2022 11:45:00 PM 0 32 0 7.23 9.07 11.91
4/22/2022 12:00:00 AM 0 32 0 7.22 8.44 11.93
4/22/2022 12:15:00 AM 0 32 0 7.22 9.55 11.93
4/22/2022 12:30:00 AM 0 32 0 7.21 8.77 11.93
4/22/2022 12:45:00 AM 0 32 0 7.21 8.92 11.95
4/22/2022 1:00:00 AM 0 32 0 7.21 9.51 11.96
4/22/2022 1:15:00 AM 0 32 0 7.2 7.35 11.99
4/22/2022 1:30:00 AM 0 32 0 7.2 8.49 11.99
4/22/2022 1:45:00 AM 0 32 0 7.2 9.07 12.01
4/22/2022 2:00:00 AM 0 32 0 7.2 10.42 12.02
4/22/2022 2:15:00 AM 0 32 0 7.19 12.31 12.06
4/22/2022 2:30:00 AM 0 32 0 7.19 9.64 12.05
4/22/2022 2:45:00 AM 0 32 0 7.2 8.96 12.06
4/22/2022 3:00:00 AM 0 32 0 7.19 7.04 12.09
4/22/2022 3:15:00 AM 0 32 0 7.19 7.6 12.1
4/22/2022 3:30:00 AM 0 32 0 7.2 12.77 12.1
4/22/2022 3:45:00 AM 0 32 0 7.2 9.37 12.11
4/22/2022 4:00:00 AM 0 32 0 7.2 7.96 12.12
4/22/2022 4:15:00 AM 0 32 0 7.2 5.81 12.13
4/22/2022 4:30:00 AM 0 32 0 7.2 11.12 12.12
4/22/2022 4:45:00 AM 0 32 0 7.2 7.87 12.13
4/22/2022 5:00:00 AM 0 32 0 7.2 12.1 12.16
4/22/2022 5:15:00 AM 0 32 0 7.21 7.8 12.15
4/22/2022 5:30:00 AM 0 32 0 7.21 9.43 12.16
4/22/2022 5:45:00 AM 0 32 0 7.21 5.81 12.17
4/22/2022 6:00:00 AM 0 32 0 7.21 9.83 12.19
4/22/2022 6:15:00 AM 0 32 0 7.21 5.36 12.2
4/22/2022 6:30:00 AM 0 32 0 7.2 10.81 12.19
4/22/2022 6:45:00 AM 0 32 0 7.21 4.92 12.24
4/22/2022 7:00:00 AM 0 32 0 7.21 8.72 12.25
4/22/2022 7:15:00 AM 0 32 0 7.22 11.28 12.26
4/22/2022 7:30:00 AM 0 32 0 7.21 9.93 12.28
4/22/2022 7:45:00 AM 0 32 0 7.22 9.96 12.3
4/22/2022 8:00:00 AM 0 32 0 7.23 4.54 12.33
4/22/2022 8:15:00 AM 0 32 0 7.23 20.15 12.35
4/22/2022 8:30:00 AM 0 32 0 7.24 9.21 12.38
4/22/2022 8:45:00 AM 0 32 0 7.25 11.35 12.41
4/22/2022 9:00:00 AM 0 32 0 7.26 5.28 12.41
4/22/2022 9:15:00 AM 0 32 0 7.26 11.29 12.42
4/22/2022 9:30:00 AM 0 32 0 7.27 6.7 12.43
4/22/2022 9:45:00 AM 0 32 0 7.28 11.81 12.42
4/22/2022 10:00:00 AM 0 32 0 7.29 13 12.39
4/22/2022 10:15:00 AM 0 32 0 7.29 11.23 12.39
4/22/2022 10:30:00 AM 0 32 0 7.3 10.75 12.35
4/22/2022 10:45:00 AM 0 32 0 7.31 5.24 12.33
4/22/2022 11:00:00 AM 0 32 0 7.31 5.87 12.27
4/22/2022 11:15:00 AM 0 32 0 7.32 4.38 12.24
4/22/2022 11:30:00 AM 0 32 0 7.33 10.3 12.17
4/22/2022 11:45:00 AM 0 32 0 7.34 4.38 12.13
4/22/2022 12:00:00 PM 0 32 0 7.34 4.4 12.09
4/22/2022 12:15:00 PM 0 32 0 7.35 10.24 12.03
4/22/2022 12:30:00 PM 0 32 0 7.35 4.4 11.95
4/22/2022 12:45:00 PM 0 32 0 7.36 8.44 11.91
4/22/2022 1:00:00 PM 0 32 0 7.36 9.39 11.87
4/22/2022 1:15:00 PM 0 32 0 7.37 6.21 11.78
4/22/2022 1:30:00 PM 0 32 0 7.37 4.29 11.74
4/22/2022 1:45:00 PM 0 32 0 7.38 11.21 11.68
4/22/2022 2:00:00 PM 0 32 0 7.38 7.66 11.66
4/22/2022 2:15:00 PM 0 32 0 7.38 4.1 11.6
4/22/2022 2:30:00 PM 0 32 0 7.39 5.8 11.57
4/22/2022 2:45:00 PM 0 32 0 7.39 10.46 11.53
4/22/2022 3:00:00 PM 0 32 0 7.4 4.63 11.49
4/22/2022 3:15:00 PM 0 32 0 7.39 12.03 11.44
4/22/2022 3:30:00 PM 0 32 0 7.39 6.68 11.4
4/22/2022 3:45:00 PM 0 32 0 7.4 8.73 11.38
4/22/2022 4:00:00 PM 0 32 0 7.4 7.7 11.35
4/22/2022 4:15:00 PM 0 32 0 7.39 10.86 11.29
4/22/2022 4:30:00 PM 0 32 0 7.39 8.6 11.26
4/22/2022 4:45:00 PM 0 32 0 7.39 4.51 11.24
4/22/2022 5:00:00 PM 0 32 0 7.39 7.49 11.21
4/22/2022 5:15:00 PM 0 32 0 7.39 4.67 11.18
4/22/2022 5:30:00 PM 0 32 0 7.38 4.64 11.15
4/22/2022 5:45:00 PM 0 32 0 7.38 221.58 11.16
4/22/2022 6:00:00 PM 0 32 0 7.38 13.01 11.12
4/22/2022 6:15:00 PM 0 32 0 7.37 8.56 11.12
4/22/2022 6:30:00 PM 0 32 0 7.37 5.29 11.09
4/22/2022 6:45:00 PM 0 32 0 7.37 5.49 11.07
4/22/2022 7:00:00 PM 0 32 0 7.36 4.49 11.08
4/22/2022 7:15:00 PM 0 32 0 7.36 11.32 11.05
4/22/2022 7:30:00 PM 0 32 0 7.35 11.68 11.06
4/22/2022 7:45:00 PM 0 32 0 7.34 10.26 11.03
4/22/2022 8:00:00 PM 0 32 0 7.33 7.75 11
4/22/2022 8:15:00 PM 0 32 0 7.33 10.54 11
4/22/2022 8:30:00 PM 0 32 0 7.32 10.91 10.98
4/22/2022 8:45:00 PM 0 32 0 7.31 10.48 10.99
4/22/2022 9:00:00 PM 0 32 0 7.3 8.15 11.01
4/22/2022 9:15:00 PM 0 32 0 7.3 9.98 11
4/22/2022 9:30:00 PM 0 32 0 7.29 11.31 11
4/22/2022 9:45:00 PM 0 32 0 7.29 9.34 11.03
4/22/2022 10:00:00 PM 0 32 0 7.29 8.3 11.03
4/22/2022 10:15:00 PM 0 32 0 7.29 10.99 11.05
4/22/2022 10:30:00 PM 0 32 0 7.28 6.8 11.07
4/22/2022 10:45:00 PM 0 32 0 7.28 9.69 11.09
4/22/2022 11:00:00 PM 0 32 0 7.28 5.86 11.12
4/22/2022 11:15:00 PM 0 32 0 7.27 7.04 11.14
4/22/2022 11:30:00 PM 0 32 0 7.27 6.83 11.17
4/22/2022 11:45:00 PM 0 32 0 7.27 7.51 11.2
4/23/2022 12:00:00 AM 0 32 0 7.27 9.14 11.23
4/23/2022 12:15:00 AM 0 32 0 7.26 8.53 11.26
4/23/2022 12:30:00 AM 0 32 0 7.26 10.94 11.28
4/23/2022 12:45:00 AM 0 32 0 7.26 7.18 11.31
4/23/2022 1:00:00 AM 0 32 0 7.26 5.89 11.34
4/23/2022 1:15:00 AM 0 32 0 7.26 8.61 11.37
4/23/2022 1:30:00 AM 0 32 0 7.25 6.01 11.43
4/23/2022 1:45:00 AM 0 32 0 7.25 5.81 11.45
4/23/2022 2:00:00 AM 0 32 0 7.25 12.94 11.48
4/23/2022 2:15:00 AM 0 32 0 7.25 7.78 11.51
4/23/2022 2:30:00 AM 0 32 0 7.25 4.77 11.54
4/23/2022 2:45:00 AM 0 32 0 7.25 6.82 11.57
4/23/2022 3:00:00 AM 0 32 0 7.24 9.44 11.6
4/23/2022 3:15:00 AM 0 32 0 7.24 13.16 11.63
4/23/2022 3:30:00 AM 0 32 0 7.24 8.09 11.66
4/23/2022 3:45:00 AM 0 32 0 7.24 8.98 11.7
4/23/2022 4:00:00 AM 0 32 0 7.24 6.12 11.73
4/23/2022 4:15:00 AM 0 32 0 7.24 7.28 11.73
4/23/2022 4:30:00 AM 0 32 0 7.24 7.05 11.76
4/23/2022 4:45:00 AM 0 32 0 7.23 13.88 11.79
4/23/2022 5:00:00 AM 0 32 0 7.24 7.54 11.83
4/23/2022 5:15:00 AM 0 32 0 7.24 9.86 11.83
4/23/2022 5:30:00 AM 0 32 0 7.23 6.04 11.86
4/23/2022 5:45:00 AM 0 32 0 7.24 6.29 11.87
4/23/2022 6:00:00 AM 0 32 0 7.23 9.05 11.89
4/23/2022 6:15:00 AM 0 32 0 7.23 7.66 11.9
4/23/2022 6:30:00 AM 0 32 0 7.23 10.2 11.94
4/23/2022 6:45:00 AM 0 32 0 7.23 6.66 11.95
4/23/2022 7:00:00 AM 0 32 0 7.23 9.52 11.96
4/23/2022 7:15:00 AM 0 32 0 7.24 8.77 12.01
4/23/2022 7:30:00 AM 0 32 0 7.24 12.21 12.03
4/23/2022 7:45:00 AM 0 32 0 7.24 5.72 12.04
4/23/2022 8:00:00 AM 0 32 0 7.25 6.88 12.06
4/23/2022 8:15:00 AM 0 32 0 7.25 11.42 12.07
4/23/2022 8:30:00 AM 0 32 0 7.25 12.11 12.09
4/23/2022 8:45:00 AM 0 32 0 7.26 10.02 12.12
4/23/2022 9:00:00 AM 0 32 0 7.27 5.03 12.14
4/23/2022 9:15:00 AM 0 32 0 7.27 6.77 12.16
4/23/2022 9:30:00 AM 0 32 0 7.28 6.08 12.16
4/23/2022 9:45:00 AM 0 32 0 7.29 7.32 12.2
4/23/2022 10:00:00 AM 0 32 0 7.3 5.8 12.2
4/23/2022 10:15:00 AM 0 32 0 7.31 4.48 12.2
4/23/2022 10:30:00 AM 0 32 0 7.32 7.95 12.2
4/23/2022 10:45:00 AM 0 32 0 7.32 5.1 12.19
4/23/2022 11:00:00 AM 0 32 0 7.33 5.15 12.18
4/23/2022 11:15:00 AM 0 32 0 7.34 6.41 12.12
4/23/2022 11:30:00 AM 0 32 0 7.34 6.23 12.1
4/23/2022 11:45:00 AM 0 32 0 7.35 4.82 12.04
4/23/2022 12:00:00 PM 0 32 0 7.36 8.16 11.99
4/23/2022 12:15:00 PM 0 32 0 7.36 4.66 11.92
4/23/2022 12:30:00 PM 0 32 0 7.37 7.99 11.89
4/23/2022 12:45:00 PM 0 32 0 7.38 5.61 11.82
4/23/2022 1:00:00 PM 0 32 0 7.38 6.28 11.77
4/23/2022 1:15:00 PM 0 32 0 7.39 7.33 11.73
4/23/2022 1:30:00 PM 0 32 0 7.4 9.53 11.66
4/23/2022 1:45:00 PM 0 32 0 7.4 5.58 11.6
4/23/2022 2:00:00 PM 0 32 0 7.4 6.78 11.57
4/23/2022 2:15:00 PM 0 32 0 7.4 5.19 11.54
4/23/2022 2:30:00 PM 0 32 0 7.4 5.23 11.54
4/23/2022 2:45:00 PM 0 32 0 7.4 8.05 11.52
4/23/2022 3:00:00 PM 0 32 0 7.41 4.58 11.5
4/23/2022 3:15:00 PM 0 32 0 7.4 5.64 11.48
4/23/2022 3:30:00 PM 0 32 0 7.4 5.43 11.46
4/23/2022 3:45:00 PM 0 32 0 7.41 13.32 11.45
4/23/2022 4:00:00 PM 0 32 0 7.4 5.36 11.44
4/23/2022 4:15:00 PM 0 32 0 7.4 7.85 11.41
4/23/2022 4:30:00 PM 0 32 0 7.41 4.5 11.41
4/23/2022 4:45:00 PM 0 32 0 7.41 6.76 11.36
4/23/2022 5:00:00 PM 0 32 0 7.41 5.8 11.36
4/23/2022 5:15:00 PM 0 32 0 7.41 4.95 11.35
4/23/2022 5:30:00 PM 0 32 0 7.41 5.17 11.31
4/23/2022 5:45:00 PM 0 32 0 7.41 8.37 11.31
4/23/2022 6:00:00 PM 0 32 0 7.41 5.59 11.28
4/23/2022 6:15:00 PM 0 32 0 7.4 6.72 11.27
4/23/2022 6:30:00 PM 0 32 0 7.4 6.05 11.23
4/23/2022 6:45:00 PM 0 32 0 7.4 5.96 11.2
4/23/2022 7:00:00 PM 0 32 0 7.39 7.13 11.18
4/23/2022 7:15:00 PM 0 32 0 7.39 7.06 11.12
4/23/2022 7:30:00 PM 0 32 0 7.38 6.25 11.09
4/23/2022 7:45:00 PM 0 32 0 7.37 7.3 11.05
4/23/2022 8:00:00 PM 0 32 0 7.35 6.62 11.01
4/23/2022 8:15:00 PM 0 32 0 7.34 6.31 10.98
4/23/2022 8:30:00 PM 0 32 0 7.33 5.34 10.96
4/23/2022 8:45:00 PM 0 32 0 7.32 10.89 10.93
4/23/2022 9:00:00 PM 0 32 0 7.31 6.65 10.92
4/23/2022 9:15:00 PM 0 32 0 7.31 8.57 10.9
4/23/2022 9:30:00 PM 0 32 0 7.31 6.07 10.91
4/23/2022 9:45:00 PM 0 32 0 7.31 6.77 10.93
4/23/2022 10:00:00 PM 0 32 0 7.3 7.14 10.92
4/23/2022 10:15:00 PM 0 32 0 7.3 5.19 10.95
4/23/2022 10:30:00 PM 0 32 0 7.3 6.28 10.94
4/23/2022 10:45:00 PM 0 32 0 7.29 6.88 10.97
4/23/2022 11:00:00 PM 0 32 0 7.29 5.01 10.96
4/23/2022 11:15:00 PM 0 32 0 7.29 5.43 10.98
4/23/2022 11:30:00 PM 0 32 0 7.28 5.81 10.98
4/23/2022 11:45:00 PM 0 32 0 7.28 9.54 11
4/24/2022 12:00:00 AM 0 32 0 7.27 5.53 11
4/24/2022 12:15:00 AM 0 32 0 7.27 10.44 11.01
4/24/2022 12:30:00 AM 0 32 0 7.27 5.65 11.02
4/24/2022 12:45:00 AM 0 32 0 7.27 5.47 11.03
4/24/2022 1:00:00 AM 0 32 0 7.27 5.47 11.03
4/24/2022 1:15:00 AM 0 32 0 7.27 6.96 11.06
4/24/2022 1:30:00 AM 0 32 0 7.27 6.05 11.09
4/24/2022 1:45:00 AM 0 32 0 7.27 6.85 11.09
4/24/2022 2:00:00 AM 0 32 0 7.27 6.91 11.12
4/24/2022 2:15:00 AM 0 32 0 7.26 5.39 11.14
4/24/2022 2:30:00 AM 0 32 0 7.26 7.15 11.17
4/24/2022 2:45:00 AM 0 32 0 7.27 5.14 11.16
4/24/2022 3:00:00 AM 0 32 0 7.26 5.88 11.18
4/24/2022 3:15:00 AM 0 32 0 7.26 5.14 11.22
4/24/2022 3:30:00 AM 0 32 0 7.26 4.95 11.21
4/24/2022 3:45:00 AM 0 32 0 7.26 4.82 11.24
4/24/2022 4:00:00 AM 0 32 0 7.26 4.91 11.27
4/24/2022 4:15:00 AM 0 32 0 7.26 4.72 11.27
4/24/2022 4:30:00 AM 0 32 0 7.26 5.07 11.3
4/24/2022 4:45:00 AM 0 32 0 7.26 4.85 11.3
4/24/2022 5:00:00 AM 0 32 0 7.26 5.1 11.32
4/24/2022 5:15:00 AM 0 32 0 7.26 4.5 11.36
4/24/2022 5:30:00 AM 0 32 0 7.26 4.79 11.35
4/24/2022 5:45:00 AM 0 32 0 7.26 5.41 11.39
4/24/2022 6:00:00 AM 0 32 0 7.26 6.11 11.39
4/24/2022 6:15:00 AM 0 32 0 7.26 5.38 11.42
4/24/2022 6:30:00 AM 0 32 0 7.26 7.55 11.42
4/24/2022 6:45:00 AM 0 32 0 7.26 5.08 11.46
4/24/2022 7:00:00 AM 0 32 0 7.27 6.82 11.48
4/24/2022 7:15:00 AM 0 32 0 7.27 5.72 11.53
4/24/2022 7:30:00 AM 0 32 0 7.28 5.06 11.57
4/24/2022 7:45:00 AM 0 32 0 7.29 6.04 11.6
4/24/2022 8:00:00 AM 0 32 0 7.29 5.53 11.64
4/24/2022 8:15:00 AM 0 32 0 7.3 6.31 11.65
4/24/2022 8:30:00 AM 0 32 0 7.32 4.28 11.7
4/24/2022 8:45:00 AM 0 32 0 7.32 5.28 11.71
4/24/2022 9:00:00 AM 0 32 0 7.34 7.31 11.71
4/24/2022 9:15:00 AM 0 32 0 7.35 5.51 11.71
4/24/2022 9:30:00 AM 0 32 0 7.36 4.75 11.71
4/24/2022 9:45:00 AM 0 32 0 7.36 4.86 11.71
4/24/2022 10:00:00 AM 0 32 0 7.37 3.91 11.73
4/24/2022 10:15:00 AM 0 32 0 7.38 5.83 11.69
4/24/2022 10:30:00 AM 0 32 0 7.39 4 11.7
4/24/2022 10:45:00 AM 0 32 0 7.39 5.45 11.68
4/24/2022 11:00:00 AM 0 32 0 7.4 4.35 11.65
4/24/2022 11:15:00 AM 0 32 0 7.41 4.37 11.61
4/24/2022 11:30:00 AM 0 32 0 7.42 4.47 11.57
4/24/2022 11:45:00 AM 0 32 0 7.42 5.45 11.53
4/24/2022 12:00:00 PM 0 32 0 7.43 4 11.48
4/24/2022 12:15:00 PM 0 32 0 7.44 4.19 11.41
4/24/2022 12:30:00 PM 0 32 0 7.44 3.91 11.33
4/24/2022 12:45:00 PM 0 32 0 7.45 4.19 11.27
4/24/2022 1:00:00 PM 0 32 0 7.45 5.85 11.21
4/24/2022 1:15:00 PM 0 32 0 7.46 3.75 11.16
4/24/2022 1:30:00 PM 0 32 0 7.47 3.84 11.1
4/24/2022 1:45:00 PM 0 32 0 7.48 4.39 11.05
4/24/2022 2:00:00 PM 0 32 0 7.48 4.43 10.98
4/24/2022 2:15:00 PM 0 32 0 7.49 4.09 10.92
4/24/2022 2:30:00 PM 0 32 0 7.49 4.16 10.87
4/24/2022 2:45:00 PM 0 32 0 7.49 4.05 10.82
4/24/2022 3:00:00 PM 0 32 0 7.5 4.63 10.78
4/24/2022 3:15:00 PM 0 32 0 7.5 4.14 10.72
4/24/2022 3:30:00 PM 0 32 0 7.5 4.17 10.7
4/24/2022 3:45:00 PM 0 32 0 7.51 4 10.65
4/24/2022 4:00:00 PM 0 32 0 7.51 4.09 10.6
4/24/2022 4:15:00 PM 0 32 0 7.51 4.57 10.57
4/24/2022 4:30:00 PM 0 32 0 7.51 4.58 10.52
4/24/2022 4:45:00 PM 0 32 0 7.5 4.12 10.49
4/24/2022 5:00:00 PM 0 32 0 7.5 4.43 10.46
4/24/2022 5:15:00 PM 0 32 0 7.5 4.53 10.42
4/24/2022 5:30:00 PM 0 32 0 7.5 4.17 10.39
4/24/2022 5:45:00 PM 0 32 0 7.5 4.29 10.36
4/24/2022 6:00:00 PM 0 32 0 7.49 4.39 10.35
4/24/2022 6:15:00 PM 0 32 0 7.48 6.69 10.31
4/24/2022 6:30:00 PM 0 32 0 7.48 4.19 10.27
4/24/2022 6:45:00 PM 0 32 0 7.47 4.47 10.25
4/24/2022 7:00:00 PM 0 32 0 7.46 4.34 10.22
4/24/2022 7:15:00 PM 0 32 0 7.46 4.49 10.21
4/24/2022 7:30:00 PM 0 32 0 7.44 4.43 10.17
4/24/2022 7:45:00 PM 0 32 0 7.43 4.47 10.14
4/24/2022 8:00:00 PM 0 32 0 7.42 4.38 10.11
4/24/2022 8:15:00 PM 0 32 0 7.42 4.52 10.1
4/24/2022 8:30:00 PM 0 32 0 7.4 4.72 10.06
4/24/2022 8:45:00 PM 0 32 0 7.4 4.9 10.04
4/24/2022 9:00:00 PM 0 32 0 7.39 4.76 10.02
4/24/2022 9:15:00 PM 0 32 0 7.38 4.99 10.03
4/24/2022 9:30:00 PM 0 32 0 7.37 4.91 10.01
4/24/2022 9:45:00 PM 0 32 0 7.37 5.15 10
4/24/2022 10:00:00 PM 0 32 0 7.37 5.08 9.99
4/24/2022 10:15:00 PM 0 32 0 7.36 5.15 10.01
4/24/2022 10:30:00 PM 0 32 0 7.37 4.97 10
4/24/2022 10:45:00 PM 0 32 0 7.36 5.04 10
4/24/2022 11:00:00 PM 0 32 0 7.36 5.12 10
4/24/2022 11:15:00 PM 0 32 0 7.36 5.07 10.02
4/24/2022 11:30:00 PM 0 32 0 7.36 5.01 10.02
4/24/2022 11:45:00 PM 0 32 0 7.36 5.08 10.02
4/25/2022 12:00:00 AM 0 32 0 7.36 4.96 10.04
4/25/2022 12:15:00 AM 0 32 0 7.36 5.57 10.04
4/25/2022 12:30:00 AM 0 32 0 7.36 5.37 10.05
4/25/2022 12:45:00 AM 0 32 0 7.36 5.15 10.07
4/25/2022 1:00:00 AM 0 32 0 7.36 5.14 10.07
4/25/2022 1:15:00 AM 0 32 0 7.36 5.06 10.09
4/25/2022 1:30:00 AM 0 32 0 7.36 5.15 10.11
4/25/2022 1:45:00 AM 0 32 0 7.36 5.18 10.11
4/25/2022 2:00:00 AM 0 32 0 7.36 5.07 10.14
4/25/2022 2:15:00 AM 0 32 0 7.36 5.1 10.16
4/25/2022 2:30:00 AM 0 32 0 7.36 5.14 10.18
4/25/2022 2:45:00 AM 0 32 0 7.36 5.09 10.18
4/25/2022 3:00:00 AM 0 32 0 7.36 5.13 10.2
4/25/2022 3:15:00 AM 0 32 0 7.36 5.11 10.23
4/25/2022 3:30:00 AM 0 32 0 7.36 5.08 10.25
4/25/2022 3:45:00 AM 0 32 0 7.36 5.12 10.27
4/25/2022 4:00:00 AM 0 32 0 7.36 5.08 10.3
4/25/2022 4:15:00 AM 0 32 0 7.36 5.18 10.32
4/25/2022 4:30:00 AM 0 32 0 7.36 5.01 10.35
4/25/2022 4:45:00 AM 0 32 0 7.36 4.98 10.38
4/25/2022 5:00:00 AM 0 32 0 7.36 4.86 10.38
4/25/2022 5:15:00 AM 0 32 0 7.36 4.89 10.41
4/25/2022 5:30:00 AM 0 32 0 7.36 5.12 10.43
4/25/2022 5:45:00 AM 0 32 0 7.36 5.18 10.45
4/25/2022 6:00:00 AM 0 32 0 7.36 5.12 10.48
4/25/2022 6:15:00 AM 0 32 0 7.36 5.2 10.51
4/25/2022 6:30:00 AM 0 32 0 7.37 5.12 10.52
4/25/2022 6:45:00 AM 0 32 0 7.37 5.15 10.56
4/25/2022 7:00:00 AM 0 32 0 7.37 5.02 10.6
4/25/2022 7:15:00 AM 0 32 0 7.38 5.22 10.63
4/25/2022 7:30:00 AM 0 32 0 7.39 5.18 10.69
4/25/2022 7:45:00 AM 0 32 0 7.39 5.22 10.72
4/25/2022 8:00:00 AM 0 32 0 7.41 5.06 10.76
4/25/2022 8:15:00 AM 0 32 0 7.42 4.85 10.82
4/25/2022 8:30:00 AM 0 32 0 7.43 4.9 10.86
4/25/2022 8:45:00 AM 0 32 0 7.44 4.76 10.89
4/25/2022 9:00:00 AM 0 32 0 7.45 4.52 10.93
4/25/2022 9:15:00 AM 0 32 0 7.46 4.49 10.95
4/25/2022 9:30:00 AM 0 32 0 7.47 4.54 10.99
4/25/2022 9:45:00 AM 0 32 0 7.48 4.66 11
4/25/2022 10:00:00 AM 0 32 0 7.49 4.69 11.01
4/25/2022 10:15:00 AM 0 32 0 7.51 4.47 10.99
4/25/2022 10:30:00 AM 0 32 0 7.51 4.64 11
4/25/2022 10:45:00 AM 0 32 0 7.52 4.42 10.98
4/25/2022 11:00:00 AM 0 32 0 7.53 4.53 10.97
4/25/2022 11:15:00 AM 0 32 0 7.54 4.57 10.95
4/25/2022 11:30:00 AM 0 32 0 7.54 4.5 10.92
4/25/2022 11:45:00 AM 0 32 0 7.55 4.6 10.88
4/25/2022 12:00:00 PM 0 32 0 7.55 4.3 10.85
4/25/2022 12:15:00 PM 0 32 0 7.56 4.71 10.82
4/25/2022 12:30:00 PM 0 32 0 7.56 4.6 10.77
4/25/2022 12:45:00 PM 0 32 0 7.57 4.38 10.74
4/25/2022 1:00:00 PM 0 32 0 7.58 4.49 10.68
4/25/2022 1:15:00 PM 0 32 0 7.58 4.42 10.65
4/25/2022 1:30:00 PM 0 32 0 7.59 4.3 10.59
4/25/2022 1:45:00 PM 0 32 0 7.59 4.34 10.55
4/25/2022 2:00:00 PM 0 32 0 7.59 4.25 10.51
4/25/2022 2:15:00 PM 0 32 0 7.6 4.41 10.48
4/25/2022 2:30:00 PM 0 32 0 7.6 4.86 10.43
4/25/2022 2:45:00 PM 0 32 0 7.6 4.5 10.4
4/25/2022 3:00:00 PM 0 32 0 7.6 4.47 10.37
4/25/2022 3:15:00 PM 0 32 0 7.61 4.39 10.33
4/25/2022 3:30:00 PM 0 32 0 7.61 4.3 10.29
4/25/2022 3:45:00 PM 0 32 0 7.61 4.4 10.27
4/25/2022 4:00:00 PM 0 32 0 7.61 4.38 10.24
4/25/2022 4:15:00 PM 0 32 0 7.61 4.53 10.21
4/25/2022 4:30:00 PM 0 32 0 7.6 4.53 10.18
4/25/2022 4:45:00 PM 0 32 0 7.6 4.46 10.14
4/25/2022 5:00:00 PM 0 32 0 7.6 4.59 10.13
4/25/2022 5:15:00 PM 0 32 0 7.59 4.34 10.12
4/25/2022 5:30:00 PM 0 32 0 7.59 4.68 10.08
4/25/2022 5:45:00 PM 0 32 0 7.58 4.7 10.07
4/25/2022 6:00:00 PM 0 32 0 7.57 4.38 10.06
4/25/2022 6:15:00 PM 0 32 0 7.57 4.46 10.02
4/25/2022 6:30:00 PM 0 32 0 7.56 4.5 10.01
4/25/2022 6:45:00 PM 0 32 0 7.55 4.58 9.99
4/25/2022 7:00:00 PM 0 32 0 7.55 4.66 9.96
4/25/2022 7:15:00 PM 0 32 0 7.53 4.68 9.94
4/25/2022 7:30:00 PM 0 32 0 7.52 4.63 9.92
4/25/2022 7:45:00 PM 0 32 0 7.51 4.52 9.9
4/25/2022 8:00:00 PM 0 32 0 7.5 4.58 9.87
4/25/2022 8:15:00 PM 0 32 0 7.49 4.8 9.86
4/25/2022 8:30:00 PM 0 32 0 7.48 4.61 9.85
4/25/2022 8:45:00 PM 0 32 0 7.47 5.04 9.82
4/25/2022 9:00:00 PM 0 32 0 7.47 4.86 9.83
4/25/2022 9:15:00 PM 0 32 0 7.46 5.02 9.82
4/25/2022 9:30:00 PM 0 32 0 7.46 5.16 9.83
4/25/2022 9:45:00 PM 0 32 0 7.45 5.29 9.82
4/25/2022 10:00:00 PM 0 32 0 7.45 4.92 9.84
4/25/2022 10:15:00 PM 0 32 0 7.44 5.26 9.83
4/25/2022 10:30:00 PM 0 32 0 7.44 5.02 9.85
4/25/2022 10:45:00 PM 0 32 0 7.44 5.41 9.85
4/25/2022 11:00:00 PM 0 32 0 7.43 5.15 9.87
4/25/2022 11:15:00 PM 0 32 0 7.43 5.04 9.87
4/25/2022 11:30:00 PM 0 32 0 7.43 5.41 9.86
4/25/2022 11:45:00 PM 0 32 0 7.43 5.01 9.89
4/26/2022 12:00:00 AM 0 32 0 7.43 5.26 9.89
4/26/2022 12:15:00 AM 0 32 0 7.43 5.18 9.89
4/26/2022 12:30:00 AM 0 32 0 7.42 5.31 9.91
4/26/2022 12:45:00 AM 0 32 0 7.42 5.18 9.91
4/26/2022 1:00:00 AM 0 32 0 7.42 5.08 9.91
4/26/2022 1:15:00 AM 0 32 0 7.42 5.05 9.93
4/26/2022 1:30:00 AM 0 32 0 7.42 5.08 9.93
4/26/2022 1:45:00 AM 0 32 0 7.42 4.94 9.95
4/26/2022 2:00:00 AM 0 32 0 7.42 4.95 9.95
4/26/2022 2:15:00 AM 0 32 0 7.42 5.04 9.98
4/26/2022 2:30:00 AM 0 32 0 7.42 4.96 9.97
4/26/2022 2:45:00 AM 0 32 0 7.41 5.34 10.01
4/26/2022 3:00:00 AM 0 32 0 7.41 4.98 10
4/26/2022 3:15:00 AM 0 32 0 7.41 5.21 10.03
4/26/2022 3:30:00 AM 0 32 0 7.41 5.08 10.03
4/26/2022 3:45:00 AM 0 32 0 7.41 5.14 10.05
4/26/2022 4:00:00 AM 0 32 0 7.41 4.84 10.08
4/26/2022 4:15:00 AM 0 32 0 7.41 4.86 10.08
4/26/2022 4:30:00 AM 0 32 0 7.4 5.22 10.1
4/26/2022 4:45:00 AM 0 32 0 7.4 5.06 10.11
4/26/2022 5:00:00 AM 0 32 0 7.41 5.12 10.12
4/26/2022 5:15:00 AM 0 32 0 7.41 5.31 10.15
4/26/2022 5:30:00 AM 0 32 0 7.4 5.48 10.15
4/26/2022 5:45:00 AM 0 32 0 7.4 5.15 10.18
4/26/2022 6:00:00 AM 0 32 0 7.4 5.15 10.18
4/26/2022 6:15:00 AM 0 32 0 7.4 5.05 10.2
4/26/2022 6:30:00 AM 0 32 0 7.4 5.8 10.24
4/26/2022 6:45:00 AM 0 32 0 7.4 5.5 10.24
4/26/2022 7:00:00 AM 0 32 0 7.4 5.42 10.26
4/26/2022 7:15:00 AM 0 32 0 7.41 5.07 10.28
4/26/2022 7:30:00 AM 0 32 0 7.41 4.99 10.32
4/26/2022 7:45:00 AM 0 32 0 7.41 5.29 10.33
4/26/2022 8:00:00 AM 0 32 0 7.41 5.25 10.36
4/26/2022 8:15:00 AM 0 32 0 7.42 5.22 10.39
4/26/2022 8:30:00 AM 0 32 0 7.42 4.91 10.41
4/26/2022 8:45:00 AM 0 32 0 7.43 4.63 10.46
4/26/2022 9:00:00 AM 0 32 0 7.43 4.61 10.49
4/26/2022 9:15:00 AM 0 32 0 7.44 4.56 10.51
4/26/2022 9:30:00 AM 0 32 0 7.45 4.52 10.53
4/26/2022 9:45:00 AM 0 32 0 7.45 4.44 10.57
4/26/2022 10:00:00 AM 0 32 0 7.46 4.41 10.59
4/26/2022 10:15:00 AM 0 32 0 7.47 4.47 10.62
4/26/2022 10:30:00 AM 0 32 0 7.48 4.61 10.66
4/26/2022 10:45:00 AM 0 32 0 7.48 4.61 10.66
4/26/2022 11:00:00 AM 10.75 51.35 0.122 7.66 5.05 10.68
4/26/2022 11:15:00 AM 10.78 51.404 0.122 7.61 4.89 10.71
4/26/2022 11:30:00 AM 10.83 51.494 0.122 7.62 4.98 10.73
4/26/2022 11:45:00 AM 10.89 51.602 0.122 7.64 4.74 10.75
4/26/2022 12:00:00 PM 10.94 51.692 0.122 7.63 4.78 10.76
4/26/2022 12:15:00 PM 10.95 51.71 0.122 7.65 4.76 10.75
4/26/2022 12:30:00 PM 10.98 51.764 0.122 7.65 4.62 10.75
4/26/2022 12:45:00 PM 11.01 51.818 0.122 7.67 4.62 10.75
4/26/2022 1:00:00 PM 11.01 51.818 0.122 7.66 4.5 10.74
4/26/2022 1:15:00 PM 11 51.8 0.122 7.66 4.53 10.72
4/26/2022 1:30:00 PM 10.98 51.764 0.122 7.65 4.85 10.7
4/26/2022 1:45:00 PM 10.94 51.692 0.123 7.66 4.51 10.7
4/26/2022 2:00:00 PM 10.91 51.638 0.123 7.67 4.63 10.7
4/26/2022 2:15:00 PM 10.86 51.548 0.123 7.66 4.68 10.69
4/26/2022 2:30:00 PM 10.81 51.458 0.123 7.66 4.82 10.68
4/26/2022 2:45:00 PM 10.76 51.368 0.123 7.66 4.7 10.67
4/26/2022 3:00:00 PM 10.73 51.314 0.123 7.65 4.58 10.68
4/26/2022 3:15:00 PM 10.72 51.296 0.123 7.66 4.7 10.7
4/26/2022 3:30:00 PM 10.7 51.26 0.123 7.66 4.57 10.72
4/26/2022 3:45:00 PM 10.7 51.26 0.123 7.65 4.55 10.72
4/26/2022 4:00:00 PM 10.68 51.224 0.123 7.67 4.9 10.71
4/26/2022 4:15:00 PM 10.64 51.152 0.123 7.65 4.68 10.69
4/26/2022 4:30:00 PM 10.61 51.098 0.123 7.66 4.52 10.69
4/26/2022 4:45:00 PM 10.58 51.044 0.124 7.65 4.56 10.68
4/26/2022 5:00:00 PM 10.54 50.972 0.124 7.65 4.67 10.67
4/26/2022 5:15:00 PM 10.5 50.9 0.124 7.65 4.41 10.66
4/26/2022 5:30:00 PM 10.46 50.828 0.124 7.64 4.68 10.64
4/26/2022 5:45:00 PM 10.41 50.738 0.124 7.64 4.63 10.64
4/26/2022 6:00:00 PM 10.37 50.666 0.124 7.63 4.52 10.61
4/26/2022 6:15:00 PM 10.32 50.576 0.124 7.6 4.72 10.6
4/26/2022 6:30:00 PM 10.27 50.486 0.124 7.61 4.77 10.59
4/26/2022 6:45:00 PM 10.22 50.396 0.124 7.61 4.71 10.59
4/26/2022 7:00:00 PM 10.18 50.324 0.124 7.59 4.46 10.57
4/26/2022 7:15:00 PM 10.13 50.234 0.124 7.6 4.83 10.58
4/26/2022 7:30:00 PM 10.08 50.144 0.124 7.58 4.58 10.57
4/26/2022 7:45:00 PM 10.03 50.054 0.125 7.59 4.54 10.58
4/26/2022 8:00:00 PM 9.98 49.964 0.125 7.59 4.57 10.57
4/26/2022 8:15:00 PM 9.93 49.874 0.125 7.58 4.7 10.56
4/26/2022 8:30:00 PM 9.88 49.784 0.125 7.58 4.75 10.58
4/26/2022 8:45:00 PM 9.83 49.694 0.125 7.58 4.67 10.57
4/26/2022 9:00:00 PM 9.77 49.586 0.125 7.57 4.92 10.58
4/26/2022 9:15:00 PM 9.72 49.496 0.125 7.57 4.91 10.59
4/26/2022 9:30:00 PM 9.67 49.406 0.125 7.57 5.07 10.6
4/26/2022 9:45:00 PM 9.62 49.316 0.125 7.57 5.35 10.61
4/26/2022 10:00:00 PM 9.57 49.226 0.125 7.57 5.33 10.62
4/26/2022 10:15:00 PM 9.51 49.118 0.125 7.57 5.17 10.63
4/26/2022 10:30:00 PM 9.46 49.028 0.125 7.57 5.39 10.64
4/26/2022 10:45:00 PM 9.4 48.92 0.125 7.57 5.22 10.65
4/26/2022 11:00:00 PM 9.35 48.83 0.126 7.57 4.87 10.67
4/26/2022 11:15:00 PM 9.28 48.704 0.126 7.56 4.92 10.68
4/26/2022 11:30:00 PM 9.21 48.578 0.126 7.55 4.96 10.7
4/26/2022 11:45:00 PM 9.14 48.452 0.126 7.56 5.03 10.71
4/27/2022 12:00:00 AM 9.05 48.29 0.126 7.57 5.25 10.73
4/27/2022 12:15:00 AM 8.98 48.164 0.126 7.56 5.28 10.75
4/27/2022 12:30:00 AM 8.88 47.984 0.126 7.55 5.17 10.77
4/27/2022 12:45:00 AM 8.8 47.84 0.126 7.56 5.16 10.78
4/27/2022 1:00:00 AM 8.73 47.714 0.126 7.56 5 10.81
4/27/2022 1:15:00 AM 8.66 47.588 0.126 7.56 4.85 10.84
4/27/2022 1:30:00 AM 8.59 47.462 0.127 7.56 5.36 10.84
4/27/2022 1:45:00 AM 8.54 47.372 0.127 7.55 4.83 10.87
4/27/2022 2:00:00 AM 8.49 47.282 0.127 7.56 4.98 10.88
4/27/2022 2:15:00 AM 8.44 47.192 0.127 7.55 5.09 10.89
4/27/2022 2:30:00 AM 8.39 47.102 0.127 7.56 5.04 10.91
4/27/2022 2:45:00 AM 8.33 46.994 0.127 7.56 4.93 10.93
4/27/2022 3:00:00 AM 8.28 46.904 0.127 7.56 4.87 10.94
4/27/2022 3:15:00 AM 8.23 46.814 0.127 7.55 4.85 10.95
4/27/2022 3:30:00 AM 8.19 46.742 0.128 7.56 5.17 10.96
4/27/2022 3:45:00 AM 8.14 46.652 0.128 7.56 4.98 10.98
4/27/2022 4:00:00 AM 8.1 46.58 0.128 7.57 5.24 10.99
4/27/2022 4:15:00 AM 8.07 46.526 0.128 7.57 5.17 11
4/27/2022 4:30:00 AM 8.03 46.454 0.128 7.57 5.24 11
4/27/2022 4:45:00 AM 7.98 46.364 0.128 7.57 5.26 11.02
4/27/2022 5:00:00 AM 7.94 46.292 0.128 7.57 5.06 11.04
4/27/2022 5:15:00 AM 7.9 46.22 0.128 7.57 5.21 11.05
4/27/2022 5:30:00 AM 7.84 46.112 0.128 7.57 5.19 11.06
4/27/2022 5:45:00 AM 7.79 46.022 0.128 7.57 5.19 11.07
4/27/2022 6:00:00 AM 7.74 45.932 0.128 7.57 5.33 11.08
4/27/2022 6:15:00 AM 7.68 45.824 0.128 7.56 5.21 11.1
4/27/2022 6:30:00 AM 7.63 45.734 0.128 7.57 5.01 11.12
4/27/2022 6:45:00 AM 7.57 45.626 0.128 7.57 5.31 11.14
4/27/2022 7:00:00 AM 7.52 45.536 0.128 7.58 5.17 11.18
4/27/2022 7:15:00 AM 7.45 45.41 0.128 7.58 5.06 11.21
4/27/2022 7:30:00 AM 7.38 45.284 0.128 7.59 5.08 11.25
4/27/2022 7:45:00 AM 7.32 45.176 0.128 7.58 5.06 11.3
4/27/2022 8:00:00 AM 7.28 45.104 0.128 7.6 4.9 11.36
4/27/2022 8:15:00 AM 7.24 45.032 0.128 7.62 4.86 11.4
4/27/2022 8:30:00 AM 7.23 45.014 0.128 7.61 4.87 11.45
4/27/2022 8:45:00 AM 7.21 44.978 0.128 7.63 4.81 11.51
4/27/2022 9:00:00 AM 7.2 44.96 0.128 7.65 4.75 11.55
4/27/2022 9:15:00 AM 7.22 44.996 0.128 7.66 4.53 11.58
4/27/2022 9:30:00 AM 7.22 44.996 0.128 7.66 4.67 11.61
4/27/2022 9:45:00 AM 7.23 45.014 0.128 7.67 4.58 11.63
4/27/2022 10:00:00 AM 7.24 45.032 0.128 7.66 4.5 11.65
4/27/2022 10:15:00 AM 7.29 45.122 0.128 7.69 4.52 11.67
4/27/2022 10:30:00 AM 7.38 45.284 0.128 7.69 4.52 11.68
4/27/2022 10:45:00 AM 7.41 45.338 0.128 7.69 4.46 11.69
4/27/2022 11:00:00 AM 7.48 45.464 0.128 7.7 4.49 11.69
4/27/2022 11:15:00 AM 7.64 45.752 0.128 7.71 4.25 11.68
4/27/2022 11:30:00 AM 7.78 46.004 0.128 7.71 4.28 11.67
4/27/2022 11:45:00 AM 7.84 46.112 0.128 7.72 4.47 11.65
4/27/2022 12:00:00 PM 7.89 46.202 0.128 7.72 4.57 11.64
4/27/2022 12:15:00 PM 7.98 46.364 0.128 7.72 4.44 11.64
4/27/2022 12:30:00 PM 8.18 46.724 0.128 7.73 4.31 11.61
4/27/2022 12:45:00 PM 8.2 46.76 0.128 7.73 4.44 11.58
4/27/2022 1:00:00 PM 8.28 46.904 0.128 7.73 4.28 11.57
4/27/2022 1:15:00 PM 8.54 47.372 0.128 7.73 4.38 11.55
4/27/2022 1:30:00 PM 8.51 47.318 0.128 7.72 4.28 11.51
4/27/2022 1:45:00 PM 8.54 47.372 0.128 7.73 4.46 11.49
4/27/2022 2:00:00 PM 8.74 47.732 0.128 7.74 4.29 11.48
4/27/2022 2:15:00 PM 8.69 47.642 0.128 7.74 4.36 11.44
4/27/2022 2:30:00 PM 8.7 47.66 0.129 7.74 4.29 11.45
4/27/2022 2:45:00 PM 8.7 47.66 0.129 7.74 4.31 11.44
4/27/2022 3:00:00 PM 8.64 47.552 0.129 7.74 4.54 11.41
4/27/2022 3:15:00 PM 8.66 47.588 0.129 7.74 4.36 11.4
4/27/2022 3:30:00 PM 8.57 47.426 0.129 7.74 4.23 11.4
4/27/2022 3:45:00 PM 8.52 47.336 0.129 7.74 4.33 11.41
4/27/2022 4:00:00 PM 8.46 47.228 0.129 7.74 4.31 11.4
4/27/2022 4:15:00 PM 8.42 47.156 0.129 7.74 4.37 11.42
4/27/2022 4:30:00 PM 8.39 47.102 0.13 7.74 4.33 11.42
4/27/2022 4:45:00 PM 8.33 46.994 0.13 7.74 4.47 11.42
4/27/2022 5:00:00 PM 8.22 46.796 0.13 7.74 4.41 11.42
4/27/2022 5:15:00 PM 8.1 46.58 0.13 7.73 4.48 11.43
4/27/2022 5:30:00 PM 7.97 46.346 0.13 7.72 4.45 11.44
4/27/2022 5:45:00 PM 7.85 46.13 0.13 7.7 4.4 11.44
4/27/2022 6:00:00 PM 7.74 45.932 0.13 7.71 4.38 11.45
4/27/2022 6:15:00 PM 7.65 45.77 0.13 7.7 4.43 11.44
4/27/2022 6:30:00 PM 7.55 45.59 0.13 7.69 4.29 11.44
4/27/2022 6:45:00 PM 7.45 45.41 0.13 7.69 4.27 11.44
4/27/2022 7:00:00 PM 7.34 45.212 0.13 7.68 4.11 11.45
4/27/2022 7:15:00 PM 7.24 45.032 0.131 7.67 4.24 11.45
4/27/2022 7:30:00 PM 7.16 44.888 0.131 7.67 4.23 11.46
4/27/2022 7:45:00 PM 7.08 44.744 0.131 7.66 4.52 11.46
4/27/2022 8:00:00 PM 6.99 44.582 0.131 7.65 4.24 11.47
4/27/2022 8:15:00 PM 6.9 44.42 0.131 7.63 4.37 11.46
4/27/2022 8:30:00 PM 6.83 44.294 0.131 7.64 4.41 11.47
4/27/2022 8:45:00 PM 6.76 44.168 0.131 7.63 4.48 11.47
4/27/2022 9:00:00 PM 6.69 44.042 0.131 7.62 4.63 11.48
4/27/2022 9:15:00 PM 6.62 43.916 0.131 7.62 4.52 11.49
4/27/2022 9:30:00 PM 6.56 43.808 0.131 7.6 4.37 11.49
4/27/2022 9:45:00 PM 6.49 43.682 0.131 7.61 4.32 11.5
4/27/2022 10:00:00 PM 6.42 43.556 0.131 7.61 4.4 11.51
4/27/2022 10:15:00 PM 6.37 43.466 0.131 7.61 4.61 11.52
4/27/2022 10:30:00 PM 6.31 43.358 0.131 7.6 4.41 11.54
4/27/2022 10:45:00 PM 6.26 43.268 0.132 7.6 4.53 11.56
4/27/2022 11:00:00 PM 6.21 43.178 0.132 7.6 4.54 11.58
4/27/2022 11:15:00 PM 6.17 43.106 0.132 7.59 4.5 11.58
4/27/2022 11:30:00 PM 6.12 43.016 0.132 7.6 4.53 11.6
4/27/2022 11:45:00 PM 6.08 42.944 0.132 7.6 4.52 11.62
4/28/2022 12:00:00 AM 6.04 42.872 0.132 7.6 4.44 11.62
4/28/2022 12:15:00 AM 5.99 42.782 0.132 7.6 4.53 11.63
4/28/2022 12:30:00 AM 5.94 42.692 0.132 7.59 4.55 11.64
4/28/2022 12:45:00 AM 5.89 42.602 0.132 7.6 4.44 11.66
4/28/2022 1:00:00 AM 5.84 42.512 0.132 7.6 4.29 11.69
4/28/2022 1:15:00 AM 5.79 42.422 0.13 7.59 5.05 11.69
4/28/2022 1:30:00 AM 5.74 42.332 0.132 7.6 4.32 11.71
4/28/2022 1:45:00 AM 5.69 42.242 0.132 7.6 4.55 11.72
4/28/2022 2:00:00 AM 5.64 42.152 0.132 7.6 4.63 11.74
4/28/2022 2:15:00 AM 5.59 42.062 0.133 7.6 4.48 11.75
4/28/2022 2:30:00 AM 5.54 41.972 0.133 7.6 4.35 11.77
4/28/2022 2:45:00 AM 5.5 41.9 0.133 7.6 4.52 11.79
4/28/2022 3:00:00 AM 5.45 41.81 0.133 7.6 4.54 11.8
4/28/2022 3:15:00 AM 5.4 41.72 0.133 7.6 4.66 11.81
4/28/2022 3:30:00 AM 5.35 41.63 0.133 7.6 4.57 11.83
4/28/2022 3:45:00 AM 5.3 41.54 0.133 7.6 4.42 11.85
4/28/2022 4:00:00 AM 5.25 41.45 0.133 7.6 4.43 11.88
4/28/2022 4:15:00 AM 5.21 41.378 0.133 7.6 4.54 11.88
4/28/2022 4:30:00 AM 5.16 41.288 0.134 7.6 4.55 11.89
4/28/2022 4:45:00 AM 5.12 41.216 0.131 7.6 5.36 11.9
4/28/2022 5:00:00 AM 5.08 41.144 0.134 7.59 4.77 11.92
4/28/2022 5:15:00 AM 5.04 41.072 0.134 7.6 4.85 11.94
4/28/2022 5:30:00 AM 5.01 41.018 0.134 7.6 4.66 11.95
4/28/2022 5:45:00 AM 4.97 40.946 0.134 7.6 4.61 11.98
4/28/2022 6:00:00 AM 4.93 40.874 0.134 7.6 4.47 11.97
4/28/2022 6:15:00 AM 4.88 40.784 0.135 7.6 4.72 12
4/28/2022 6:30:00 AM 4.83 40.694 0.135 7.6 4.47 12.02
4/28/2022 6:45:00 AM 4.78 40.604 0.135 7.61 4.52 12.05
4/28/2022 7:00:00 AM 4.73 40.514 0.132 7.6 5.16 12.09
4/28/2022 7:15:00 AM 4.69 40.442 0.135 7.62 4.57 12.13
4/28/2022 7:30:00 AM 4.64 40.352 0.135 7.62 4.36 12.16
4/28/2022 7:45:00 AM 4.61 40.298 0.135 7.63 4.66 12.2
4/28/2022 8:00:00 AM 4.59 40.262 0.135 7.63 5.01 12.25
4/28/2022 8:15:00 AM 4.57 40.226 0.135 7.64 4.77 12.29
4/28/2022 8:30:00 AM 4.59 40.262 0.135 7.64 4.49 12.32
4/28/2022 8:45:00 AM 4.62 40.316 0.132 7.65 4.96 12.35
4/28/2022 9:00:00 AM 4.66 40.388 0.132 7.66 4.86 12.38
4/28/2022 9:15:00 AM 4.73 40.514 0.132 7.67 4.91 12.39
4/28/2022 9:30:00 AM 4.83 40.694 0.132 7.67 4.9 12.4
4/28/2022 9:45:00 AM 4.94 40.892 0.132 7.68 4.85 12.4
4/28/2022 10:00:00 AM 5.07 41.126 0.135 7.69 4.24 12.39
4/28/2022 10:15:00 AM 5.25 41.45 0.135 7.7 4.17 12.38
4/28/2022 10:30:00 AM 5.46 41.828 0.135 7.7 4.07 12.35
4/28/2022 10:45:00 AM 5.71 42.278 0.135 7.71 4.17 12.31
4/28/2022 11:00:00 AM 5.97 42.746 0.135 7.7 4.14 12.26
4/28/2022 11:15:00 AM 6.24 43.232 0.135 7.72 4.18 12.19
4/28/2022 11:30:00 AM 6.54 43.772 0.135 7.72 4.17 12.13
4/28/2022 11:45:00 AM 6.85 44.33 0.135 7.73 4.11 12.08
4/28/2022 12:00:00 PM 7.15 44.87 0.135 7.73 4.23 12.01
4/28/2022 12:15:00 PM 7.45 45.41 0.135 7.74 4.03 11.94
4/28/2022 12:30:00 PM 7.77 45.986 0.135 7.74 4.07 11.87
4/28/2022 12:45:00 PM 8.09 46.562 0.135 7.75 3.96 11.8
4/28/2022 1:00:00 PM 8.41 47.138 0.135 7.75 4.62 11.73
4/28/2022 1:15:00 PM 8.71 47.678 0.136 7.75 4.07 11.65
4/28/2022 1:30:00 PM 8.97 48.146 0.136 7.76 4.09 11.59
4/28/2022 1:45:00 PM 9.23 48.614 0.136 7.76 3.9 11.52
4/28/2022 2:00:00 PM 9.47 49.046 0.136 7.77 3.94 11.45
4/28/2022 2:15:00 PM 9.68 49.424 0.136 7.77 4.04 11.39
4/28/2022 2:30:00 PM 9.85 49.73 0.136 7.77 4 11.34
4/28/2022 2:45:00 PM 9.99 49.982 0.136 7.77 4.05 11.3
4/28/2022 3:00:00 PM 10.08 50.144 0.136 7.77 4 11.25
4/28/2022 3:15:00 PM 10.14 50.252 0.136 7.78 4.05 11.22
4/28/2022 3:30:00 PM 10.18 50.324 0.136 7.78 3.89 11.19
4/28/2022 3:45:00 PM 10.18 50.324 0.136 7.78 4.09 11.16
4/28/2022 4:00:00 PM 10.13 50.234 0.136 7.78 4.18 11.14
4/28/2022 4:15:00 PM 10.04 50.072 0.136 7.78 4.09 11.13
4/28/2022 4:30:00 PM 9.96 49.928 0.136 7.78 4 11.12
4/28/2022 4:45:00 PM 9.87 49.766 0.137 7.78 4.15 11.11
4/28/2022 5:00:00 PM 9.74 49.532 0.137 7.77 4.17 11.11
4/28/2022 5:15:00 PM 9.55 49.19 0.137 7.77 4.09 11.12
4/28/2022 5:30:00 PM 9.39 48.902 0.137 7.77 4.26 11.12
4/28/2022 5:45:00 PM 9.21 48.578 0.137 7.76 4.14 11.14
4/28/2022 6:00:00 PM 9.04 48.272 0.137 7.76 4.14 11.15
4/28/2022 6:15:00 PM 8.89 48.002 0.137 7.75 4.17 11.15
4/28/2022 6:30:00 PM 8.73 47.714 0.137 7.75 4.19 11.17
4/28/2022 6:45:00 PM 8.58 47.444 0.138 7.74 4.11 11.18
4/28/2022 7:00:00 PM 8.44 47.192 0.138 7.74 4.33 11.19
4/28/2022 7:15:00 PM 8.31 46.958 0.139 7.73 4.43 11.2
4/28/2022 7:30:00 PM 8.22 46.796 0.141 7.72 4.55 11.19
4/28/2022 7:45:00 PM 8.14 46.652 0.143 7.71 4.52 11.18
4/28/2022 8:00:00 PM 8.08 46.544 0.144 7.7 4.53 11.17
4/28/2022 8:15:00 PM 8.02 46.436 0.145 7.69 4.51 11.16
4/28/2022 8:30:00 PM 7.95 46.31 0.146 7.68 4.7 11.15
4/28/2022 8:45:00 PM 7.86 46.148 0.146 7.68 4.6 11.15
4/28/2022 9:00:00 PM 7.77 45.986 0.146 7.67 4.63 11.16
4/28/2022 9:15:00 PM 7.66 45.788 0.146 7.65 4.44 11.17
4/28/2022 9:30:00 PM 7.56 45.608 0.145 7.66 4.46 11.2
4/28/2022 9:45:00 PM 7.45 45.41 0.145 7.66 4.49 11.21
4/28/2022 10:00:00 PM 7.35 45.23 0.145 7.65 4.53 11.22
4/28/2022 10:15:00 PM 7.25 45.05 0.144 7.64 4.52 11.25
4/28/2022 10:30:00 PM 7.15 44.87 0.144 7.64 4.58 11.28
4/28/2022 10:45:00 PM 7.06 44.708 0.143 7.64 4.58 11.29
4/28/2022 11:00:00 PM 6.98 44.564 0.143 7.64 4.38 11.31
4/28/2022 11:15:00 PM 6.89 44.402 0.143 7.63 4.8 11.33
4/28/2022 11:30:00 PM 6.8 44.24 0.142 7.63 4.38 11.36
4/28/2022 11:45:00 PM 6.72 44.096 0.142 7.63 4.48 11.38
4/29/2022 12:00:00 AM 6.64 43.952 0.142 7.63 4.55 11.4
4/29/2022 12:15:00 AM 6.57 43.826 0.142 7.63 4.28 11.42
4/29/2022 12:30:00 AM 6.5 43.7 0.142 7.63 4.41 11.44
4/29/2022 12:45:00 AM 6.44 43.592 0.142 7.62 4.56 11.46
4/29/2022 1:00:00 AM 6.38 43.484 0.142 7.62 4.33 11.47
4/29/2022 1:15:00 AM 6.33 43.394 0.142 7.62 4.5 11.5
4/29/2022 1:30:00 AM 6.28 43.304 0.142 7.62 4.6 11.51
4/29/2022 1:45:00 AM 6.24 43.232 0.142 7.62 4.61 11.51
4/29/2022 2:00:00 AM 6.19 43.142 0.142 7.62 4.89 11.52
4/29/2022 2:15:00 AM 6.15 43.07 0.142 7.61 5.27 11.54
4/29/2022 2:30:00 AM 6.11 42.998 0.142 7.62 4.57 11.55
4/29/2022 2:45:00 AM 6.06 42.908 0.141 7.61 5.14 11.56
4/29/2022 3:00:00 AM 6.02 42.836 0.142 7.62 4.56 11.58
4/29/2022 3:15:00 AM 5.98 42.764 0.142 7.61 5.25 11.58
4/29/2022 3:30:00 AM 5.93 42.674 0.142 7.61 5.22 11.6
4/29/2022 3:45:00 AM 5.89 42.602 0.142 7.62 4.48 11.62
4/29/2022 4:00:00 AM 5.84 42.512 0.142 7.61 5.01 11.63
4/29/2022 4:15:00 AM 5.79 42.422 0.142 7.61 5.1 11.65
4/29/2022 4:30:00 AM 5.74 42.332 0.142 7.61 5.11 11.66
4/29/2022 4:45:00 AM 5.69 42.242 0.142 7.61 5.48 11.68
4/29/2022 5:00:00 AM 5.64 42.152 0.142 7.61 4.67 11.7
4/29/2022 5:15:00 AM 5.58 42.044 0.142 7.61 5.42 11.72
4/29/2022 5:30:00 AM 5.52 41.936 0.142 7.62 4.91 11.73
4/29/2022 5:45:00 AM 5.46 41.828 0.142 7.62 4.85 11.75
4/29/2022 6:00:00 AM 5.39 41.702 0.142 7.61 5.4 11.78
4/29/2022 6:15:00 AM 5.33 41.594 0.142 7.62 4.83 11.81
4/29/2022 6:30:00 AM 5.28 41.504 0.143 7.62 4.86 11.83
4/29/2022 6:45:00 AM 5.22 41.396 0.143 7.63 5.17 11.87
4/29/2022 7:00:00 AM 5.17 41.306 0.143 7.63 6.23 11.9
4/29/2022 7:15:00 AM 5.13 41.234 0.14 7.62 6.21 11.94
4/29/2022 7:30:00 AM 5.1 41.18 0.143 7.64 5.32 11.98
4/29/2022 7:45:00 AM 5.07 41.126 0.143 7.64 5.06 12.03
4/29/2022 8:00:00 AM 5.06 41.108 0.143 7.65 4.84 12.06
4/29/2022 8:15:00 AM 5.07 41.126 0.143 7.66 4.66 12.1
4/29/2022 8:30:00 AM 5.1 41.18 0.143 7.67 4.62 12.14
4/29/2022 8:45:00 AM 5.16 41.288 0.143 7.68 4.49 12.17
4/29/2022 9:00:00 AM 5.21 41.378 0.143 7.68 5.01 12.2
4/29/2022 9:15:00 AM 5.29 41.522 0.143 7.69 4.2 12.22
4/29/2022 9:30:00 AM 5.4 41.72 0.143 7.7 4.31 12.23
4/29/2022 9:45:00 AM 5.53 41.954 0.143 7.7 4.17 12.23
4/29/2022 10:00:00 AM 5.68 42.224 0.143 7.72 4.19 12.22
4/29/2022 10:15:00 AM 5.86 42.548 0.143 7.72 4.69 12.21
4/29/2022 10:30:00 AM 6.08 42.944 0.143 7.72 4.9 12.17
4/29/2022 10:45:00 AM 6.33 43.394 0.143 7.73 4.83 12.14
4/29/2022 11:00:00 AM 6.59 43.862 0.143 7.75 4.14 12.1
4/29/2022 11:15:00 AM 6.88 44.384 0.143 7.74 4.11 12.05
4/29/2022 11:30:00 AM 7.18 44.924 0.143 7.76 4.2 12
4/29/2022 11:45:00 AM 7.48 45.464 0.143 7.77 4.12 11.94
4/29/2022 12:00:00 PM 7.81 46.058 0.143 7.77 4.07 11.87
4/29/2022 12:15:00 PM 8.14 46.652 0.143 7.78 4.08 11.79
4/29/2022 12:30:00 PM 8.49 47.282 0.143 7.77 4.11 11.72
4/29/2022 12:45:00 PM 8.82 47.876 0.143 7.79 3.98 11.64
4/29/2022 1:00:00 PM 9.15 48.47 0.143 7.79 4.04 11.57
4/29/2022 1:15:00 PM 9.46 49.028 0.143 7.8 3.98 11.5
4/29/2022 1:30:00 PM 9.78 49.604 0.143 7.8 4.08 11.42
4/29/2022 1:45:00 PM 10.07 50.126 0.143 7.8 4 11.35
4/29/2022 2:00:00 PM 10.34 50.612 0.143 7.81 4.51 11.28
4/29/2022 2:15:00 PM 10.56 51.008 0.144 7.8 4.07 11.22
4/29/2022 2:30:00 PM 10.77 51.386 0.144 7.81 4.02 11.16
4/29/2022 2:45:00 PM 10.92 51.656 0.144 7.82 3.95 11.11
4/29/2022 3:00:00 PM 11.04 51.872 0.144 7.82 4.07 11.07
4/29/2022 3:15:00 PM 11.13 52.034 0.144 7.81 3.97 11.02
4/29/2022 3:30:00 PM 11.16 52.088 0.144 7.82 4.18 10.98
4/29/2022 3:45:00 PM 11.16 52.088 0.144 7.81 4.03 10.97
4/29/2022 4:00:00 PM 11.13 52.034 0.144 7.82 4.13 10.94
4/29/2022 4:15:00 PM 11.06 51.908 0.144 7.82 4 10.92
4/29/2022 4:30:00 PM 10.99 51.782 0.144 7.82 4.03 10.9
4/29/2022 4:45:00 PM 10.88 51.584 0.145 7.82 3.99 10.89
4/29/2022 5:00:00 PM 10.74 51.332 0.145 7.82 4.15 10.88
4/29/2022 5:15:00 PM 10.55 50.99 0.145 7.81 4.23 10.88
4/29/2022 5:30:00 PM 10.39 50.702 0.145 7.81 4.11 10.88
4/29/2022 5:45:00 PM 10.23 50.414 0.145 7.8 4.19 10.89
4/29/2022 6:00:00 PM 10.04 50.072 0.145 7.8 4.15 10.9
4/29/2022 6:15:00 PM 9.88 49.784 0.145 7.79 4.21 10.91
4/29/2022 6:30:00 PM 9.72 49.496 0.145 7.79 4.16 10.91
4/29/2022 6:45:00 PM 9.55 49.19 0.146 7.78 4.03 10.92
4/29/2022 7:00:00 PM 9.41 48.938 0.146 7.77 4.34 10.93
4/29/2022 7:15:00 PM 9.26 48.668 0.146 7.77 5.04 10.94
4/29/2022 7:30:00 PM 9.12 48.416 0.146 7.76 4.96 10.95
4/29/2022 7:45:00 PM 8.99 48.182 0.146 7.75 4.5 10.97
4/29/2022 8:00:00 PM 8.87 47.966 0.147 7.74 4.26 10.95
4/29/2022 8:15:00 PM 8.76 47.768 0.147 7.73 4.35 10.96
4/29/2022 8:30:00 PM 8.66 47.588 0.147 7.72 4.31 10.97
4/29/2022 8:45:00 PM 8.55 47.39 0.147 7.7 4.29 10.97
4/29/2022 9:00:00 PM 8.44 47.192 0.147 7.71 4.38 10.98
4/29/2022 9:15:00 PM 8.33 46.994 0.147 7.7 4.48 10.99
4/29/2022 9:30:00 PM 8.22 46.796 0.147 7.69 4.52 11.01
4/29/2022 9:45:00 PM 8.11 46.598 0.148 7.67 4.37 11.02
4/29/2022 10:00:00 PM 8 46.4 0.148 7.67 4.22 11.03
4/29/2022 10:15:00 PM 7.9 46.22 0.148 7.67 4.53 11.06
4/29/2022 10:30:00 PM 7.8 46.04 0.148 7.67 4.52 11.07
4/29/2022 10:45:00 PM 7.71 45.878 0.148 7.67 4.56 11.09
4/29/2022 11:00:00 PM 7.62 45.716 0.148 7.66 4.38 11.11
4/29/2022 11:15:00 PM 7.53 45.554 0.148 7.66 4.47 11.13
4/29/2022 11:30:00 PM 7.44 45.392 0.148 7.66 4.63 11.15
4/29/2022 11:45:00 PM 7.35 45.23 0.148 7.66 4.61 11.17
4/30/2022 12:00:00 AM 7.26 45.068 0.149 7.66 4.44 11.2
4/30/2022 12:15:00 AM 7.17 44.906 0.149 7.65 4.42 11.23
4/30/2022 12:30:00 AM 7.09 44.762 0.149 7.65 4.5 11.26
4/30/2022 12:45:00 AM 7.01 44.618 0.149 7.65 4.31 11.27
4/30/2022 1:00:00 AM 6.93 44.474 0.149 7.65 4.46 11.3
4/30/2022 1:15:00 AM 6.85 44.33 0.149 7.65 4.35 11.31
4/30/2022 1:30:00 AM 6.78 44.204 0.149 7.65 4.26 11.34
4/30/2022 1:45:00 AM 6.72 44.096 0.149 7.65 5.39 11.36
4/30/2022 2:00:00 AM 6.65 43.97 0.149 7.64 4.39 11.38
4/30/2022 2:15:00 AM 6.59 43.862 0.15 7.64 4.35 11.39
4/30/2022 2:30:00 AM 6.54 43.772 0.15 7.65 4.49 11.4
4/30/2022 2:45:00 AM 6.48 43.664 0.15 7.65 4.48 11.42
4/30/2022 3:00:00 AM 6.42 43.556 0.15 7.64 4.72 11.44
4/30/2022 3:15:00 AM 6.37 43.466 0.15 7.65 4.29 11.46
4/30/2022 3:30:00 AM 6.31 43.358 0.15 7.64 4.37 11.47
4/30/2022 3:45:00 AM 6.25 43.25 0.15 7.64 5.19 11.47
4/30/2022 4:00:00 AM 6.2 43.16 0.15 7.64 4.35 11.5
4/30/2022 4:15:00 AM 6.14 43.052 0.15 7.64 4.62 11.51
4/30/2022 4:30:00 AM 6.08 42.944 0.15 7.64 4.89 11.54
4/30/2022 4:45:00 AM 6.02 42.836 0.15 7.64 4.79 11.55
4/30/2022 5:00:00 AM 5.96 42.728 0.15 7.64 4.43 11.57
4/30/2022 5:15:00 AM 5.89 42.602 0.15 7.64 4.28 11.59
4/30/2022 5:30:00 AM 5.83 42.494 0.151 7.64 5.05 11.61
4/30/2022 5:45:00 AM 5.76 42.368 0.151 7.65 4.55 11.63
4/30/2022 6:00:00 AM 5.7 42.26 0.151 7.65 4.52 11.65
4/30/2022 6:15:00 AM 5.64 42.152 0.151 7.65 4.97 11.67
4/30/2022 6:30:00 AM 5.58 42.044 0.151 7.65 4.44 11.7
4/30/2022 6:45:00 AM 5.52 41.936 0.151 7.65 5.09 11.74
4/30/2022 7:00:00 AM 5.47 41.846 0.151 7.65 5.08 11.77
4/30/2022 7:15:00 AM 5.43 41.774 0.151 7.66 5.11 11.82
4/30/2022 7:30:00 AM 5.4 41.72 0.151 7.67 4.52 11.86
4/30/2022 7:45:00 AM 5.38 41.684 0.151 7.67 4.61 11.9
4/30/2022 8:00:00 AM 5.38 41.684 0.151 7.68 4.53 11.94
4/30/2022 8:15:00 AM 5.39 41.702 0.151 7.69 4.26 11.98
4/30/2022 8:30:00 AM 5.43 41.774 0.151 7.69 4.23 12.01
4/30/2022 8:45:00 AM 5.5 41.9 0.151 7.7 4.25 12.04
4/30/2022 9:00:00 AM 5.6 42.08 0.151 7.71 4.77 12.06
4/30/2022 9:15:00 AM 5.71 42.278 0.151 7.72 4.11 12.07
4/30/2022 9:30:00 AM 5.87 42.566 0.151 7.73 4.94 12.07
4/30/2022 9:45:00 AM 6.04 42.872 0.151 7.74 4.01 12.07
4/30/2022 10:00:00 AM 6.25 43.25 0.151 7.75 4.05 12.06
4/30/2022 10:15:00 AM 6.47 43.646 0.15 7.75 4.08 12.04
4/30/2022 10:30:00 AM 6.71 44.078 0.15 7.76 4.17 12.01
4/30/2022 10:45:00 AM 6.99 44.582 0.15 7.77 4.18 11.96
4/30/2022 11:00:00 AM 7.28 45.104 0.15 7.77 4.64 11.91
4/30/2022 11:15:00 AM 7.6 45.68 0.15 7.78 4.38 11.86
4/30/2022 11:30:00 AM 7.93 46.274 0.15 7.79 4.12 11.79
4/30/2022 11:45:00 AM 8.28 46.904 0.15 7.8 5.27 11.72
4/30/2022 12:00:00 PM 8.65 47.57 0.15 7.8 4.07 11.66
4/30/2022 12:15:00 PM 9.04 48.272 0.15 7.81 4.23 11.57
4/30/2022 12:30:00 PM 9.42 48.956 0.15 7.81 4.02 11.5
4/30/2022 12:45:00 PM 9.79 49.622 0.15 7.82 4.22 11.41
4/30/2022 1:00:00 PM 10.17 50.306 0.151 7.83 4.07 11.33
4/30/2022 1:15:00 PM 10.53 50.954 0.151 7.83 4.09 11.25
4/30/2022 1:30:00 PM 10.88 51.584 0.151 7.83 3.94 11.17
4/30/2022 1:45:00 PM 11.19 52.142 0.151 7.84 4.12 11.09
4/30/2022 2:00:00 PM 11.46 52.628 0.151 7.84 4.08 11.02
4/30/2022 2:15:00 PM 11.71 53.078 0.151 7.85 4.04 10.96
4/30/2022 2:30:00 PM 11.92 53.456 0.151 7.85 4.12 10.89
4/30/2022 2:45:00 PM 12.12 53.816 0.151 7.85 4.16 10.83
4/30/2022 3:00:00 PM 12.24 54.032 0.151 7.85 4.1 10.78
4/30/2022 3:15:00 PM 12.36 54.248 0.152 7.85 4.14 10.73
4/30/2022 3:30:00 PM 12.42 54.356 0.152 7.86 4.02 10.7
4/30/2022 3:45:00 PM 12.45 54.41 0.152 7.86 4.01 10.66
4/30/2022 4:00:00 PM 12.43 54.374 0.152 7.85 4.13 10.63
4/30/2022 4:15:00 PM 12.4 54.32 0.152 7.86 4.17 10.61
4/30/2022 4:30:00 PM 12.32 54.176 0.152 7.86 4.08 10.59
4/30/2022 4:45:00 PM 12.2 53.96 0.152 7.85 4.2 10.58
4/30/2022 5:00:00 PM 12.07 53.726 0.152 7.85 4.36 10.57
4/30/2022 5:15:00 PM 11.88 53.384 0.152 7.85 4.34 10.56
4/30/2022 5:30:00 PM 11.73 53.114 0.152 7.84 4.26 10.55
4/30/2022 5:45:00 PM 11.58 52.844 0.152 7.83 4.36 10.56
4/30/2022 6:00:00 PM 11.43 52.574 0.152 7.83 4.56 10.57
4/30/2022 6:15:00 PM 11.27 52.286 0.153 7.82 4.16 10.59
4/30/2022 6:30:00 PM 11.11 51.998 0.153 7.82 4.06 10.59
4/30/2022 6:45:00 PM 10.95 51.71 0.153 7.82 4.09 10.61
4/30/2022 7:00:00 PM 10.81 51.458 0.153 7.81 4.24 10.6
4/30/2022 7:15:00 PM 10.68 51.224 0.153 7.8 4.07 10.61
4/30/2022 7:30:00 PM 10.55 50.99 0.154 7.8 4.13 10.6
4/30/2022 7:45:00 PM 10.41 50.738 0.154 7.79 4.1 10.6
4/30/2022 8:00:00 PM 10.28 50.504 0.154 7.77 4.84 10.6
4/30/2022 8:15:00 PM 10.16 50.288 0.154 7.76 4.38 10.59
4/30/2022 8:30:00 PM 10.04 50.072 0.154 7.75 4.46 10.59
4/30/2022 8:45:00 PM 9.92 49.856 0.154 7.74 4.53 10.59
4/30/2022 9:00:00 PM 9.79 49.622 0.154 7.73 4.39 10.6
4/30/2022 9:15:00 PM 9.66 49.388 0.154 7.72 4.47 10.6
4/30/2022 9:30:00 PM 9.54 49.172 0.155 7.72 4.54 10.62
4/30/2022 9:45:00 PM 9.41 48.938 0.155 7.71 4.6 10.63
4/30/2022 10:00:00 PM 9.29 48.722 0.155 7.7 4.43 10.66
4/30/2022 10:15:00 PM 9.16 48.488 0.155 7.7 4.12 10.67
4/30/2022 10:30:00 PM 9.03 48.254 0.155 7.7 4.25 10.7
4/30/2022 10:45:00 PM 8.91 48.038 0.155 7.69 4.51 10.73
4/30/2022 11:00:00 PM 8.79 47.822 0.155 7.68 4.73 10.76
4/30/2022 11:15:00 PM 8.68 47.624 0.155 7.68 4.13 10.78
4/30/2022 11:30:00 PM 8.57 47.426 0.155 7.67 4.46 10.81
4/30/2022 11:45:00 PM 8.47 47.246 0.155 7.68 4.45 10.82
5/1/2022 12:00:00 AM 8.36 47.048 0.156 7.67 4.37 10.85
5/1/2022 12:15:00 AM 8.26 46.868 0.156 7.68 4.11 10.87
5/1/2022 12:30:00 AM 8.17 46.706 0.156 7.67 3.89 10.91
5/1/2022 12:45:00 AM 8.07 46.526 0.156 7.67 4.12 10.94
5/1/2022 1:00:00 AM 7.98 46.364 0.156 7.67 4.24 10.96
5/1/2022 1:15:00 AM 7.89 46.202 0.156 7.67 3.87 10.98
5/1/2022 1:30:00 AM 7.81 46.058 0.156 7.67 4.02 11
5/1/2022 1:45:00 AM 7.73 45.914 0.156 7.66 4.51 11.03
5/1/2022 2:00:00 AM 7.66 45.788 0.156 7.67 4.27 11.05
5/1/2022 2:15:00 AM 7.6 45.68 0.156 7.67 4.16 11.06
5/1/2022 2:30:00 AM 7.53 45.554 0.156 7.67 4.27 11.07
5/1/2022 2:45:00 AM 7.46 45.428 0.156 7.67 4.42 11.1
5/1/2022 3:00:00 AM 7.41 45.338 0.156 7.67 3.94 11.11
5/1/2022 3:15:00 AM 7.34 45.212 0.157 7.66 4.25 11.12
5/1/2022 3:30:00 AM 7.28 45.104 0.157 7.66 4.16 11.14
5/1/2022 3:45:00 AM 7.22 44.996 0.157 7.66 4.26 11.16
5/1/2022 4:00:00 AM 7.16 44.888 0.157 7.66 4.11 11.17
5/1/2022 4:15:00 AM 7.11 44.798 0.157 7.66 4.1 11.17
5/1/2022 4:30:00 AM 7.05 44.69 0.157 7.66 4.43 11.21
5/1/2022 4:45:00 AM 6.99 44.582 0.157 7.66 4.16 11.21
5/1/2022 5:00:00 AM 6.93 44.474 0.157 7.65 4.05 11.22
5/1/2022 5:15:00 AM 6.86 44.348 0.157 7.66 4.28 11.22
5/1/2022 5:30:00 AM 6.8 44.24 0.157 7.66 4.28 11.29
5/1/2022 5:45:00 AM 6.75 44.15 0.157 7.65 4.44 11.26
5/1/2022 6:00:00 AM 6.69 44.042 0.157 7.66 4.21 11.29
5/1/2022 6:15:00 AM 6.62 43.916 0.157 7.66 4.3 11.3
5/1/2022 6:30:00 AM 6.56 43.808 0.157 7.66 4.26 11.38
5/1/2022 6:45:00 AM 6.51 43.718 0.157 7.66 4.3 11.37
5/1/2022 7:00:00 AM 6.47 43.646 0.158 7.67 4.19 11.41
5/1/2022 7:15:00 AM 6.44 43.592 0.158 7.67 4.28 11.46
5/1/2022 7:30:00 AM 6.41 43.538 0.158 7.68 4.36 11.5
5/1/2022 7:45:00 AM 6.39 43.502 0.158 7.68 4.13 11.53
5/1/2022 8:00:00 AM 6.4 43.52 0.158 7.69 4.32 11.58
5/1/2022 8:15:00 AM 6.42 43.556 0.158 7.7 3.99 11.63
5/1/2022 8:30:00 AM 6.47 43.646 0.158 7.71 4.05 11.65
5/1/2022 8:45:00 AM 6.54 43.772 0.158 7.72 4.37 11.7
5/1/2022 9:00:00 AM 6.63 43.934 0.158 7.73 3.95 11.71
5/1/2022 9:15:00 AM 6.76 44.168 0.158 7.74 3.97 11.73
5/1/2022 9:30:00 AM 6.91 44.438 0.158 7.76 4.4 11.75
5/1/2022 9:45:00 AM 7.11 44.798 0.158 7.77 4.09 11.75
5/1/2022 10:00:00 AM 7.33 45.194 0.158 7.77 4.13 11.73
5/1/2022 10:15:00 AM 7.53 45.554 0.158 7.78 3.99 11.7
5/1/2022 10:30:00 AM 7.79 46.022 0.158 7.8 4.1 11.69
5/1/2022 10:45:00 AM 8.09 46.562 0.158 7.81 3.93 11.64
5/1/2022 11:00:00 AM 8.4 47.12 0.158 7.81 3.98 11.61
5/1/2022 11:15:00 AM 8.71 47.678 0.158 7.82 3.93 11.55
5/1/2022 11:30:00 AM 9.04 48.272 0.157 7.83 3.95 11.48
5/1/2022 11:45:00 AM 9.35 48.83 0.157 7.84 3.99 11.43
5/1/2022 12:00:00 PM 9.63 49.334 0.157 7.84 3.96 11.36
5/1/2022 12:15:00 PM 9.95 49.91 0.157 7.85 3.88 11.29
5/1/2022 12:30:00 PM 10.34 50.612 0.157 7.86 3.89 11.23
5/1/2022 12:45:00 PM 10.73 51.314 0.157 7.87 3.81 11.16
5/1/2022 1:00:00 PM 11.08 51.944 0.157 7.86 3.69 11.08
5/1/2022 1:15:00 PM 11.39 52.502 0.157 7.87 3.83 11
5/1/2022 1:30:00 PM 11.66 52.988 0.158 7.87 3.93 10.93
5/1/2022 1:45:00 PM 12.02 53.636 0.158 7.88 3.79 10.87
5/1/2022 2:00:00 PM 12.25 54.05 0.158 7.88 3.79 10.8
5/1/2022 2:15:00 PM 12.31 54.158 0.158 7.88 3.72 10.72
5/1/2022 2:30:00 PM 12.43 54.374 0.158 7.89 3.95 10.67
5/1/2022 2:45:00 PM 12.5 54.5 0.158 7.89 3.67 10.61
5/1/2022 3:00:00 PM 12.59 54.662 0.158 7.88 3.92 10.58
5/1/2022 3:15:00 PM 12.69 54.842 0.158 7.89 4.64 10.56
5/1/2022 3:30:00 PM 12.71 54.878 0.158 7.89 3.95 10.55
5/1/2022 3:45:00 PM 12.71 54.878 0.158 7.89 3.9 10.54
5/1/2022 4:00:00 PM 12.66 54.788 0.158 7.89 3.81 10.53
5/1/2022 4:15:00 PM 12.66 54.788 0.158 7.89 4.16 10.5
5/1/2022 4:30:00 PM 12.65 54.77 0.158 7.89 4.06 10.48
5/1/2022 4:45:00 PM 12.64 54.752 0.158 7.89 4.14 10.47
5/1/2022 5:00:00 PM 12.61 54.698 0.159 7.9 4.08 10.46
5/1/2022 5:15:00 PM 12.52 54.536 0.159 7.89 4.1 10.42
5/1/2022 5:30:00 PM 12.42 54.356 0.159 7.88 4.19 10.41
5/1/2022 5:45:00 PM 12.32 54.176 0.159 7.87 4.18 10.39
5/1/2022 6:00:00 PM 12.2 53.96 0.159 7.86 4.18 10.38
5/1/2022 6:15:00 PM 12.07 53.726 0.159 7.85 4.02 10.37
5/1/2022 6:30:00 PM 11.96 53.528 0.159 7.84 4.14 10.35
5/1/2022 6:45:00 PM 11.85 53.33 0.159 7.83 4.2 10.31
5/1/2022 7:00:00 PM 11.77 53.186 0.159 7.82 4.19 10.3
5/1/2022 7:15:00 PM 11.69 53.042 0.159 7.81 3.99 10.27
5/1/2022 7:30:00 PM 11.61 52.898 0.159 7.79 3.96 10.24
5/1/2022 7:45:00 PM 11.53 52.754 0.16 7.78 4.31 10.23
5/1/2022 8:00:00 PM 11.45 52.61 0.16 7.77 3.99 10.21
5/1/2022 8:15:00 PM 11.37 52.466 0.16 7.76 4.21 10.2
5/1/2022 8:30:00 PM 11.28 52.304 0.16 7.74 4.16 10.17
5/1/2022 8:45:00 PM 11.21 52.178 0.16 7.74 4.19 10.18
5/1/2022 9:00:00 PM 11.13 52.034 0.16 7.72 5.42 10.17
5/1/2022 9:15:00 PM 11.05 51.89 0.161 7.72 5.94 10.17
5/1/2022 9:30:00 PM 10.98 51.764 0.161 7.71 4.75 10.16
5/1/2022 9:45:00 PM 10.91 51.638 0.161 7.7 4.51 10.17
5/1/2022 10:00:00 PM 10.85 51.53 0.161 7.7 4.49 10.18
5/1/2022 10:15:00 PM 10.79 51.422 0.161 7.7 4.31 10.19
5/1/2022 10:30:00 PM 10.73 51.314 0.161 7.69 4.53 10.19
5/1/2022 10:45:00 PM 10.68 51.224 0.161 7.69 4.36 10.21
5/1/2022 11:00:00 PM 10.63 51.134 0.161 7.69 4.62 10.21
5/1/2022 11:15:00 PM 10.58 51.044 0.161 7.69 4.44 10.22
5/1/2022 11:30:00 PM 10.53 50.954 0.161 7.68 4.71 10.23
5/1/2022 11:45:00 PM 10.49 50.882 0.161 7.68 4.32 10.24
5/2/2022 12:00:00 AM 10.44 50.792 0.161 7.68 4.46 10.24
5/2/2022 12:15:00 AM 10.41 50.738 0.161 7.68 4.64 10.25
5/2/2022 12:30:00 AM 10.38 50.684 0.161 7.68 4.51 10.26
5/2/2022 12:45:00 AM 10.35 50.63 0.161 7.68 4.41 10.26
5/2/2022 1:00:00 AM 10.33 50.594 0.162 7.68 4.05 10.28
5/2/2022 1:15:00 AM 10.3 50.54 0.162 7.68 4.34 10.28
5/2/2022 1:30:00 AM 10.28 50.504 0.162 7.68 4.55 10.29
5/2/2022 1:45:00 AM 10.26 50.468 0.162 7.68 4.7 10.29
5/2/2022 2:00:00 AM 10.25 50.45 0.162 7.68 4.52 10.29
5/2/2022 2:15:00 AM 10.23 50.414 0.162 7.68 4.7 10.3
5/2/2022 2:30:00 AM 10.21 50.378 0.162 7.68 4.62 10.3
5/2/2022 2:45:00 AM 10.2 50.36 0.162 7.67 4.87 10.3
5/2/2022 3:00:00 AM 10.18 50.324 0.162 7.67 5.26 10.29
5/2/2022 3:15:00 AM 10.17 50.306 0.162 7.66 4.87 10.3
5/2/2022 3:30:00 AM 10.16 50.288 0.162 7.67 4.44 10.31
5/2/2022 3:45:00 AM 10.15 50.27 0.162 7.66 4.51 10.3
5/2/2022 4:00:00 AM 10.14 50.252 0.162 7.67 4.74 10.32
5/2/2022 4:15:00 AM 10.13 50.234 0.163 7.67 4.94 10.32
5/2/2022 4:30:00 AM 10.12 50.216 0.163 7.66 4.36 10.3
5/2/2022 4:45:00 AM 10.11 50.198 0.163 7.66 4.68 10.31
5/2/2022 5:00:00 AM 10.1 50.18 0.163 7.66 4.94 10.32
5/2/2022 5:15:00 AM 10.09 50.162 0.163 7.66 5.85 10.3
5/2/2022 5:30:00 AM 10.09 50.162 0.163 7.66 5.34 10.31
5/2/2022 5:45:00 AM 10.07 50.126 0.163 7.66 4.96 10.32
5/2/2022 6:00:00 AM 10.06 50.108 0.163 7.66 4.86 10.32
5/2/2022 6:15:00 AM 10.05 50.09 0.163 7.66 4.56 10.33
5/2/2022 6:30:00 AM 10.04 50.072 0.163 7.66 4.6 10.33
5/2/2022 6:45:00 AM 10.03 50.054 0.163 7.66 4.71 10.34
5/2/2022 7:00:00 AM 10.02 50.036 0.163 7.65 4.7 10.34
5/2/2022 7:15:00 AM 10.01 50.018 0.163 7.65 4.95 10.35
5/2/2022 7:30:00 AM 10.01 50.018 0.163 7.66 4.62 10.38
5/2/2022 7:45:00 AM 10.01 50.018 0.163 7.67 4.87 10.41
5/2/2022 8:00:00 AM 10.01 50.018 0.163 7.68 4.59 10.44
5/2/2022 8:15:00 AM 10.01 50.018 0.163 7.68 4.62 10.46
5/2/2022 8:30:00 AM 10.03 50.054 0.163 7.69 4.66 10.49
5/2/2022 8:45:00 AM 10.04 50.072 0.163 7.7 4.61 10.54
5/2/2022 9:00:00 AM 10.06 50.108 0.163 7.71 4.69 10.56
5/2/2022 9:15:00 AM 10.09 50.162 0.164 7.72 4.51 10.61
5/2/2022 9:30:00 AM 10.14 50.252 0.164 7.74 4.61 10.66
5/2/2022 9:45:00 AM 10.21 50.378 0.164 7.74 4.56 10.69
5/2/2022 10:00:00 AM 10.29 50.522 0.164 7.76 4.29 10.73
5/2/2022 10:15:00 AM 10.4 50.72 0.164 7.77 4.51 10.77
5/2/2022 10:30:00 AM 10.52 50.936 0.163 7.79 4.44 10.8
5/2/2022 10:45:00 AM 10.65 51.17 0.163 7.8 4.56 10.81
5/2/2022 11:00:00 AM 10.8 51.44 0.163 7.81 4.59 10.82
5/2/2022 11:15:00 AM 10.94 51.692 0.163 7.81 4.38 10.8
5/2/2022 11:30:00 AM 11.06 51.908 0.163 7.83 4.53 10.78
5/2/2022 11:45:00 AM 11.2 52.16 0.163 7.84 4.66 10.75
5/2/2022 12:00:00 PM 11.36 52.448 0.163 7.84 4.4 10.72
5/2/2022 12:15:00 PM 11.44 52.592 0.163 7.84 4.49 10.72
5/2/2022 12:30:00 PM 11.53 52.754 0.163 7.86 4.56 10.72
5/2/2022 12:45:00 PM 11.59 52.862 0.163 7.86 4.4 10.7
5/2/2022 1:00:00 PM 11.68 53.024 0.163 7.87 4.22 10.67
5/2/2022 1:15:00 PM 11.94 53.492 0.163 7.87 4.27 10.66
5/2/2022 1:30:00 PM 12.2 53.96 0.163 7.88 4.54 10.62
5/2/2022 1:45:00 PM 12.22 53.996 0.163 7.87 4.3 10.57
5/2/2022 2:00:00 PM 12.27 54.086 0.163 7.88 4.36 10.55
5/2/2022 2:15:00 PM 12.33 54.194 0.164 7.87 4.29 10.48
5/2/2022 2:30:00 PM 12.37 54.266 0.163 7.87 4.43 10.4
5/2/2022 2:45:00 PM 12.38 54.284 0.163 7.85 4.8 10.34
5/2/2022 3:00:00 PM 12.38 54.284 0.162 7.84 5.09 10.31
5/2/2022 3:15:00 PM 12.34 54.212 0.162 7.84 4.97 10.3
5/2/2022 3:30:00 PM 12.28 54.104 0.162 7.83 4.9 10.31
5/2/2022 3:45:00 PM 12.22 53.996 0.162 7.83 4.56 10.32
5/2/2022 4:00:00 PM 12.13 53.834 0.162 7.83 4.66 10.32
5/2/2022 4:15:00 PM 12.07 53.726 0.163 7.82 4.55 10.3
5/2/2022 4:30:00 PM 12.02 53.636 0.163 7.81 4.71 10.29
5/2/2022 4:45:00 PM 11.96 53.528 0.163 7.8 4.95 10.28
5/2/2022 5:00:00 PM 11.89 53.402 0.163 7.8 4.79 10.28
5/2/2022 5:15:00 PM 11.84 53.312 0.163 7.8 4.9 10.3
5/2/2022 5:30:00 PM 11.77 53.186 0.162 7.8 4.84 10.32
5/2/2022 5:45:00 PM 11.72 53.096 0.162 7.8 4.67 10.34
5/2/2022 6:00:00 PM 11.65 52.97 0.162 7.79 4.8 10.36
5/2/2022 6:15:00 PM 11.61 52.898 0.162 7.8 4.76 10.39
5/2/2022 6:30:00 PM 11.55 52.79 0.162 7.8 4.37 10.4
5/2/2022 6:45:00 PM 11.51 52.718 0.162 7.8 4.7 10.41
5/2/2022 7:00:00 PM 11.48 52.664 0.161 7.79 4.63 10.41
5/2/2022 7:15:00 PM 11.44 52.592 0.161 7.79 4.6 10.41
5/2/2022 7:30:00 PM 11.4 52.52 0.161 7.78 4.56 10.37
5/2/2022 7:45:00 PM 11.37 52.466 0.161 7.77 4.65 10.35
5/2/2022 8:00:00 PM 11.33 52.394 0.161 7.76 4.92 10.32
5/2/2022 8:15:00 PM 11.29 52.322 0.161 7.75 4.58 10.28
5/2/2022 8:30:00 PM 11.26 52.268 0.162 7.74 4.37 10.25
5/2/2022 8:45:00 PM 11.22 52.196 0.162 7.73 4.61 10.23
5/2/2022 9:00:00 PM 11.18 52.124 0.163 7.73 4.77 10.23
5/2/2022 9:15:00 PM 11.14 52.052 0.163 7.72 4.11 10.2
5/2/2022 9:30:00 PM 11.11 51.998 0.163 7.71 4.33 10.2
5/2/2022 9:45:00 PM 11.06 51.908 0.163 7.7 4.17 10.18
5/2/2022 10:00:00 PM 11.02 51.836 0.164 7.7 4.36 10.17
5/2/2022 10:15:00 PM 10.97 51.746 0.164 7.69 4.73 10.17
5/2/2022 10:30:00 PM 10.92 51.656 0.164 7.69 4.67 10.19
5/2/2022 10:45:00 PM 10.87 51.566 0.164 7.68 4.59 10.19
5/2/2022 11:00:00 PM 10.82 51.476 0.165 7.68 4.43 10.21
5/2/2022 11:15:00 PM 10.76 51.368 0.165 7.68 4.68 10.21
5/2/2022 11:30:00 PM 10.71 51.278 0.165 7.67 4.38 10.22
5/2/2022 11:45:00 PM 10.67 51.206 0.165 7.67 4.6 10.23
5/3/2022 12:00:00 AM 10.62 51.116 0.165 7.67 4.86 10.24
5/3/2022 12:15:00 AM 10.58 51.044 0.165 7.67 4.65 10.25
5/3/2022 12:30:00 AM 10.54 50.972 0.166 7.66 4.58 10.26
5/3/2022 12:45:00 AM 10.51 50.918 0.166 7.66 4.54 10.27
5/3/2022 1:00:00 AM 10.48 50.864 0.166 7.66 4.62 10.27
5/3/2022 1:15:00 AM 10.45 50.81 0.166 7.65 4.6 10.27
5/3/2022 1:30:00 AM 10.42 50.756 0.166 7.66 4.49 10.29
5/3/2022 1:45:00 AM 10.39 50.702 0.166 7.66 4.48 10.29
5/3/2022 2:00:00 AM 10.37 50.666 0.166 7.66 4.8 10.3
5/3/2022 2:15:00 AM 10.35 50.63 0.166 7.66 4.71 10.3
5/3/2022 2:30:00 AM 10.32 50.576 0.166 7.66 4.37 10.31
5/3/2022 2:45:00 AM 10.29 50.522 0.167 7.65 4.8 10.31
5/3/2022 3:00:00 AM 10.27 50.486 0.167 7.65 4.58 10.31
5/3/2022 3:15:00 AM 10.25 50.45 0.167 7.65 4.78 10.32
5/3/2022 3:30:00 AM 10.22 50.396 0.167 7.65 4.91 10.33
5/3/2022 3:45:00 AM 10.2 50.36 0.167 7.65 5.05 10.34
5/3/2022 4:00:00 AM 10.17 50.306 0.167 7.65 4.78 10.34
5/3/2022 4:15:00 AM 10.15 50.27 0.167 7.65 4.64 10.35
5/3/2022 4:30:00 AM 10.12 50.216 0.167 7.65 4.8 10.36
5/3/2022 4:45:00 AM 10.09 50.162 0.167 7.65 4.48 10.36
5/3/2022 5:00:00 AM 10.06 50.108 0.167 7.65 4.68 10.37
5/3/2022 5:15:00 AM 10.03 50.054 0.167 7.65 4.75 10.37
5/3/2022 5:30:00 AM 9.99 49.982 0.167 7.65 4.76 10.39
5/3/2022 5:45:00 AM 9.94 49.892 0.167 7.65 4.85 10.4
5/3/2022 6:00:00 AM 9.88 49.784 0.167 7.65 4.84 10.39
5/3/2022 6:15:00 AM 9.83 49.694 0.167 7.64 5.4 10.42
5/3/2022 6:30:00 AM 9.77 49.586 0.167 7.65 4.72 10.45
5/3/2022 6:45:00 AM 9.71 49.478 0.167 7.65 4.59 10.48
5/3/2022 7:00:00 AM 9.67 49.406 0.167 7.66 4.64 10.52
5/3/2022 7:15:00 AM 9.64 49.352 0.167 7.66 4.36 10.56
5/3/2022 7:30:00 AM 9.61 49.298 0.167 7.67 4.49 10.61
5/3/2022 7:45:00 AM 9.59 49.262 0.167 7.68 4.71 10.66
5/3/2022 8:00:00 AM 9.59 49.262 0.167 7.69 4.77 10.72
5/3/2022 8:15:00 AM 9.61 49.298 0.167 7.71 4.52 10.77
5/3/2022 8:30:00 AM 9.62 49.316 0.167 7.72 4.6 10.82
5/3/2022 8:45:00 AM 9.67 49.406 0.167 7.73 4.69 10.87
5/3/2022 9:00:00 AM 9.74 49.532 0.167 7.74 4.43 10.91
5/3/2022 9:15:00 AM 9.84 49.712 0.166 7.76 4.24 10.94
5/3/2022 9:30:00 AM 9.87 49.766 0.166 7.77 4.6 10.95
5/3/2022 9:45:00 AM 9.95 49.91 0.166 7.78 4.36 10.95
5/3/2022 10:00:00 AM 10.14 50.252 0.166 7.79 4.3 10.97
5/3/2022 10:15:00 AM 10.35 50.63 0.166 7.8 4.41 10.97
5/3/2022 10:30:00 AM 10.44 50.792 0.166 7.81 4.46 10.96
5/3/2022 10:45:00 AM 10.7 51.26 0.166 7.83 4.41 10.96
5/3/2022 11:00:00 AM 10.95 51.71 0.166 7.83 4.43 10.93
5/3/2022 11:15:00 AM 11.19 52.142 0.166 7.84 4.39 10.9
5/3/2022 11:30:00 AM 11.42 52.556 0.166 7.85 4.35 10.87
5/3/2022 11:45:00 AM 11.64 52.952 0.166 7.86 4.32 10.83
5/3/2022 12:00:00 PM 11.95 53.51 0.166 7.87 4.4 10.79
5/3/2022 12:15:00 PM 12.23 54.014 0.166 7.87 4.2 10.72
5/3/2022 12:30:00 PM 12.51 54.518 0.166 7.89 4.26 10.68
5/3/2022 12:45:00 PM 12.77 54.986 0.166 7.88 4.64 10.62
5/3/2022 1:00:00 PM 13.09 55.562 0.166 7.89 4.16 10.56
5/3/2022 1:15:00 PM 13.29 55.922 0.165 7.9 4.53 10.5
5/3/2022 1:30:00 PM 13.44 56.192 0.166 7.91 4.22 10.45
5/3/2022 1:45:00 PM 13.54 56.372 0.166 7.91 4.12 10.4
5/3/2022 2:00:00 PM 13.62 56.516 0.166 7.91 4.35 10.33
5/3/2022 2:15:00 PM 13.71 56.678 0.166 7.91 4.22 10.3
5/3/2022 2:30:00 PM 13.76 56.768 0.166 7.9 4.46 10.25
5/3/2022 2:45:00 PM 13.81 56.858 0.166 7.92 4.36 10.27
5/3/2022 3:00:00 PM 13.79 56.822 0.166 7.92 4.13 10.26
5/3/2022 3:15:00 PM 13.75 56.75 0.166 7.92 4.35 10.25
5/3/2022 3:30:00 PM 13.74 56.732 0.166 7.92 4.28 10.23
5/3/2022 3:45:00 PM 13.75 56.75 0.166 7.92 4.44 10.21
5/3/2022 4:00:00 PM 13.73 56.714 0.166 7.91 4.35 10.17
5/3/2022 4:15:00 PM 13.71 56.678 0.166 7.91 4.32 10.16
5/3/2022 4:30:00 PM 13.69 56.642 0.166 7.9 4.51 10.14
5/3/2022 4:45:00 PM 13.65 56.57 0.166 7.9 4.33 10.13
5/3/2022 5:00:00 PM 13.6 56.48 0.166 7.89 4.16 10.12
5/3/2022 5:15:00 PM 13.52 56.336 0.166 7.88 4.12 10.11
5/3/2022 5:30:00 PM 13.45 56.21 0.166 7.88 4.18 10.1
5/3/2022 5:45:00 PM 13.37 56.066 0.166 7.86 4.16 10.09
5/3/2022 6:00:00 PM 13.3 55.94 0.166 7.86 4.32 10.07
5/3/2022 6:15:00 PM 13.22 55.796 0.167 7.84 4.24 10.05
5/3/2022 6:30:00 PM 13.16 55.688 0.167 7.83 4.51 10.04
5/3/2022 6:45:00 PM 13.11 55.598 0.167 7.84 4.47 10.04
5/3/2022 7:00:00 PM 13.05 55.49 0.167 7.82 4.37 10
5/3/2022 7:15:00 PM 12.99 55.382 0.167 7.82 4.27 9.98
5/3/2022 7:30:00 PM 12.93 55.274 0.167 7.8 4.37 9.94
5/3/2022 7:45:00 PM 12.88 55.184 0.168 7.79 4.23 9.91
5/3/2022 8:00:00 PM 12.82 55.076 0.168 7.78 4.34 9.88
5/3/2022 8:15:00 PM 12.77 54.986 0.168 7.77 4.49 9.85
5/3/2022 8:30:00 PM 12.73 54.914 0.168 7.76 4.21 9.84
5/3/2022 8:45:00 PM 12.66 54.788 0.168 7.75 4.38 9.8
5/3/2022 9:00:00 PM 12.61 54.698 0.168 7.74 4.22 9.78
5/3/2022 9:15:00 PM 12.57 54.626 0.169 7.73 4.92 9.77
5/3/2022 9:30:00 PM 12.52 54.536 0.169 7.73 5.03 9.77
5/3/2022 9:45:00 PM 12.46 54.428 0.169 7.72 4.5 9.76
5/3/2022 10:00:00 PM 12.41 54.338 0.169 7.71 4.55 9.76
5/3/2022 10:15:00 PM 12.36 54.248 0.169 7.71 5.16 9.77
5/3/2022 10:30:00 PM 12.31 54.158 0.169 7.7 4.35 9.78
5/3/2022 10:45:00 PM 12.26 54.068 0.169 7.7 4.64 9.78
5/3/2022 11:00:00 PM 12.21 53.978 0.169 7.7 4.84 9.79
5/3/2022 11:15:00 PM 12.15 53.87 0.169 7.69 5.02 9.79
5/3/2022 11:30:00 PM 12.1 53.78 0.169 7.68 5.02 9.78
5/3/2022 11:45:00 PM 12.06 53.708 0.169 7.68 4.6 9.8
5/4/2022 12:00:00 AM 12.01 53.618 0.169 7.68 4.94 9.81
5/4/2022 12:15:00 AM 11.96 53.528 0.169 7.68 4.88 9.82
5/4/2022 12:30:00 AM 11.92 53.456 0.169 7.68 4.8 9.82
5/4/2022 12:45:00 AM 11.88 53.384 0.169 7.68 4.73 9.82
5/4/2022 1:00:00 AM 11.85 53.33 0.169 7.68 4.54 9.82
5/4/2022 1:15:00 AM 11.81 53.258 0.169 7.67 4.61 9.84
5/4/2022 1:30:00 AM 11.78 53.204 0.17 7.67 4.67 9.84
5/4/2022 1:45:00 AM 11.75 53.15 0.17 7.67 4.54 9.85
5/4/2022 2:00:00 AM 11.72 53.096 0.17 7.67 4.74 9.85
5/4/2022 2:15:00 AM 11.7 53.06 0.169 7.67 4.69 9.87
5/4/2022 2:30:00 AM 11.67 53.006 0.17 7.67 4.83 9.87
5/4/2022 2:45:00 AM 11.64 52.952 0.17 7.67 4.77 9.87
5/4/2022 3:00:00 AM 11.61 52.898 0.17 7.67 4.77 9.87
5/4/2022 3:15:00 AM 11.58 52.844 0.17 7.67 4.93 9.88
5/4/2022 3:30:00 AM 11.55 52.79 0.17 7.67 5.13 9.88
5/4/2022 3:45:00 AM 11.51 52.718 0.17 7.67 5.16 9.88
5/4/2022 4:00:00 AM 11.48 52.664 0.17 7.67 5.38 9.89
5/4/2022 4:15:00 AM 11.45 52.61 0.17 7.67 4.94 9.89
5/4/2022 4:30:00 AM 11.42 52.556 0.17 7.67 5.02 9.91
5/4/2022 4:45:00 AM 11.39 52.502 0.17 7.67 4.89 9.93
5/4/2022 5:00:00 AM 11.35 52.43 0.17 7.67 4.59 9.93
5/4/2022 5:15:00 AM 11.32 52.376 0.171 7.68 4.98 9.94
5/4/2022 5:30:00 AM 11.28 52.304 0.171 7.67 5.11 9.95
5/4/2022 5:45:00 AM 11.25 52.25 0.171 7.67 5.18 9.94
5/4/2022 6:00:00 AM 11.22 52.196 0.171 7.67 5.02 9.95
5/4/2022 6:15:00 AM 11.19 52.142 0.171 7.67 5.02 9.97
5/4/2022 6:30:00 AM 11.16 52.088 0.171 7.67 4.71 9.98
5/4/2022 6:45:00 AM 11.13 52.034 0.171 7.68 4.68 9.99
5/4/2022 7:00:00 AM 11.1 51.98 0.171 7.68 4.72 10.02
5/4/2022 7:15:00 AM 11.08 51.944 0.171 7.68 4.62 10.03
5/4/2022 7:30:00 AM 11.05 51.89 0.171 7.68 4.79 10.06
5/4/2022 7:45:00 AM 11.04 51.872 0.171 7.69 4.65 10.09
5/4/2022 8:00:00 AM 11.03 51.854 0.171 7.69 4.69 10.13
5/4/2022 8:15:00 AM 11.02 51.836 0.171 7.7 4.65 10.13
5/4/2022 8:30:00 AM 11.02 51.836 0.171 7.71 4.72 10.18
5/4/2022 8:45:00 AM 11.01 51.818 0.172 7.72 4.35 10.22
5/4/2022 9:00:00 AM 11 51.8 0.171 7.72 4.46 10.24
5/4/2022 9:15:00 AM 11 51.8 0.171 7.73 4.48 10.27
5/4/2022 9:30:00 AM 11.01 51.818 0.171 7.73 4.36 10.29
5/4/2022 9:45:00 AM 11.02 51.836 0.171 7.74 4.16 10.33
5/4/2022 10:00:00 AM 11.01 51.818 0.171 7.75 4.46 10.35
5/4/2022 10:15:00 AM 11.01 51.818 0.171 7.76 4.49 10.37
5/4/2022 10:30:00 AM 11.02 51.836 0.171 7.76 4.46 10.39
5/4/2022 10:45:00 AM 11.05 51.89 0.171 7.77 4.39 10.42
5/4/2022 11:00:00 AM 11.08 51.944 0.17 7.78 4.34 10.44
5/4/2022 11:15:00 AM 11.11 51.998 0.17 7.78 4.5 10.48
5/4/2022 11:30:00 AM 11.16 52.088 0.17 7.79 4.45 10.52
5/4/2022 11:45:00 AM 11.19 52.142 0.17 7.8 4.76 10.52
5/4/2022 12:00:00 PM 11.24 52.232 0.17 7.81 4.64 10.55
5/4/2022 12:15:00 PM 11.3 52.34 0.17 7.82 4.52 10.56
5/4/2022 12:30:00 PM 11.33 52.394 0.17 7.82 4.53 10.56
5/4/2022 12:45:00 PM 11.37 52.466 0.17 7.83 4.38 10.57
5/4/2022 1:00:00 PM 11.39 52.502 0.17 7.83 4.48 10.54
5/4/2022 1:15:00 PM 11.45 52.61 0.17 7.83 4.68 10.54
5/4/2022 1:30:00 PM 11.48 52.664 0.169 7.83 4.47 10.54
5/4/2022 1:45:00 PM 11.51 52.718 0.169 7.83 4.82 10.53
5/4/2022 2:00:00 PM 11.56 52.808 0.169 7.84 4.56 10.54
5/4/2022 2:15:00 PM 11.6 52.88 0.169 7.84 4.43 10.52
5/4/2022 2:30:00 PM 11.63 52.934 0.169 7.84 4.59 10.52
5/4/2022 2:45:00 PM 11.72 53.096 0.169 7.85 4.51 10.53
5/4/2022 3:00:00 PM 11.76 53.168 0.169 7.86 4.35 10.53
5/4/2022 3:15:00 PM 11.78 53.204 0.169 7.85 4.63 10.52
5/4/2022 3:30:00 PM 11.81 53.258 0.169 7.86 4.56 10.51
5/4/2022 3:45:00 PM 11.84 53.312 0.169 7.86 4.62 10.49
5/4/2022 4:00:00 PM 11.86 53.348 0.17 7.86 4.56 10.47
5/4/2022 4:15:00 PM 11.87 53.366 0.17 7.85 4.56 10.46
5/4/2022 4:30:00 PM 11.85 53.33 0.17 7.85 4.47 10.45
5/4/2022 4:45:00 PM 11.84 53.312 0.17 7.86 4.6 10.46
5/4/2022 5:00:00 PM 11.81 53.258 0.17 7.85 4.44 10.46
5/4/2022 5:15:00 PM 11.78 53.204 0.17 7.85 4.41 10.44
5/4/2022 5:30:00 PM 11.75 53.15 0.17 7.85 4.38 10.44
5/4/2022 5:45:00 PM 11.72 53.096 0.17 7.84 4.62 10.44
5/4/2022 6:00:00 PM 11.68 53.024 0.17 7.84 4.61 10.41
5/4/2022 6:15:00 PM 11.64 52.952 0.17 7.82 5.07 10.37
5/4/2022 6:30:00 PM 11.59 52.862 0.17 7.82 4.52 10.36
5/4/2022 6:45:00 PM 11.54 52.772 0.17 7.81 4.39 10.34
5/4/2022 7:00:00 PM 11.49 52.682 0.17 7.8 4.58 10.33
5/4/2022 7:15:00 PM 11.43 52.574 0.17 7.79 4.29 10.31
5/4/2022 7:30:00 PM 11.37 52.466 0.17 7.78 4.54 10.3
5/4/2022 7:45:00 PM 11.32 52.376 0.17 7.78 4.52 10.3
5/4/2022 8:00:00 PM 11.26 52.268 0.17 7.77 4.63 10.26
5/4/2022 8:15:00 PM 11.2 52.16 0.17 7.77 5.47 10.29
5/4/2022 8:30:00 PM 11.14 52.052 0.17 7.75 4.93 10.24
5/4/2022 8:45:00 PM 11.07 51.926 0.17 7.74 4.64 10.23
5/4/2022 9:00:00 PM 11.02 51.836 0.171 7.74 4.71 10.22
5/4/2022 9:15:00 PM 10.97 51.746 0.171 7.73 4.65 10.22
5/4/2022 9:30:00 PM 10.92 51.656 0.171 7.72 6.98 10.22
5/4/2022 9:45:00 PM 10.87 51.566 0.171 7.72 4.47 10.22
5/4/2022 10:00:00 PM 10.83 51.494 0.171 7.71 4.76 10.23
5/4/2022 10:15:00 PM 10.78 51.404 0.171 7.71 4.78 10.22
5/4/2022 10:30:00 PM 10.74 51.332 0.171 7.71 4.48 10.23
5/4/2022 10:45:00 PM 10.7 51.26 0.171 7.7 4.87 10.24
5/4/2022 11:00:00 PM 10.66 51.188 0.171 7.7 4.87 10.25
5/4/2022 11:15:00 PM 10.63 51.134 0.171 7.7 4.81 10.26
5/4/2022 11:30:00 PM 10.59 51.062 0.171 7.69 4.92 10.27
5/4/2022 11:45:00 PM 10.55 50.99 0.171 7.69 4.79 10.27
5/5/2022 12:00:00 AM 10.52 50.936 0.171 7.69 4.69 10.28
5/5/2022 12:15:00 AM 10.48 50.864 0.171 7.68 4.75 10.28
5/5/2022 12:30:00 AM 10.45 50.81 0.17 7.68 4.98 10.29
5/5/2022 12:45:00 AM 10.42 50.756 0.17 7.68 4.53 10.3
5/5/2022 1:00:00 AM 10.39 50.702 0.17 7.68 4.89 10.3
5/5/2022 1:15:00 AM 10.35 50.63 0.17 7.67 4.77 10.31
5/5/2022 1:30:00 AM 10.31 50.558 0.17 7.68 4.61 10.33
5/5/2022 1:45:00 AM 10.28 50.504 0.17 7.67 4.72 10.33
5/5/2022 2:00:00 AM 10.25 50.45 0.17 7.68 4.67 10.34
5/5/2022 2:15:00 AM 10.22 50.396 0.17 7.67 4.85 10.35
5/5/2022 2:30:00 AM 10.19 50.342 0.17 7.68 4.91 10.36
5/5/2022 2:45:00 AM 10.16 50.288 0.17 7.67 4.46 10.36
5/5/2022 3:00:00 AM 10.13 50.234 0.169 7.67 4.64 10.35
5/5/2022 3:15:00 AM 10.1 50.18 0.17 7.68 4.81 10.37
5/5/2022 3:30:00 AM 10.06 50.108 0.169 7.67 4.74 10.37
5/5/2022 3:45:00 AM 10.01 50.018 0.169 7.68 4.57 10.4
5/5/2022 4:00:00 AM 9.97 49.946 0.169 7.67 5.07 10.39
5/5/2022 4:15:00 AM 9.92 49.856 0.169 7.67 4.84 10.35
5/5/2022 4:30:00 AM 9.86 49.748 0.169 7.67 4.94 10.41
5/5/2022 4:45:00 AM 9.79 49.622 0.169 7.67 4.93 10.43
5/5/2022 5:00:00 AM 9.72 49.496 0.169 7.67 4.66 10.44
5/5/2022 5:15:00 AM 9.65 49.37 0.169 7.66 4.91 10.45
5/5/2022 5:30:00 AM 9.59 49.262 0.169 7.66 4.74 10.47
5/5/2022 5:45:00 AM 9.53 49.154 0.17 7.66 4.88 10.49
5/5/2022 6:00:00 AM 9.49 49.082 0.169 7.66 5.26 10.51
5/5/2022 6:15:00 AM 9.45 49.01 0.169 7.66 4.88 10.52
5/5/2022 6:30:00 AM 9.41 48.938 0.169 7.67 4.89 10.55
5/5/2022 6:45:00 AM 9.38 48.884 0.169 7.67 5.09 10.57
5/5/2022 7:00:00 AM 9.35 48.83 0.169 7.68 4.65 10.61
5/5/2022 7:15:00 AM 9.33 48.794 0.169 7.68 4.83 10.65
5/5/2022 7:30:00 AM 9.32 48.776 0.169 7.69 4.88 10.69
5/5/2022 7:45:00 AM 9.32 48.776 0.169 7.7 4.66 10.75
5/5/2022 8:00:00 AM 9.34 48.812 0.169 7.71 4.54 10.79
5/5/2022 8:15:00 AM 9.35 48.83 0.169 7.72 4.47 10.84
5/5/2022 8:30:00 AM 9.37 48.866 0.169 7.73 4.48 10.85
5/5/2022 8:45:00 AM 9.4 48.92 0.168 7.74 4.64 10.9
5/5/2022 9:00:00 AM 9.47 49.046 0.168 7.75 4.58 10.95
5/5/2022 9:15:00 AM 9.54 49.172 0.168 7.76 4.59 10.97
5/5/2022 9:30:00 AM 9.66 49.388 0.168 7.77 4.29 10.99
5/5/2022 9:45:00 AM 9.8 49.64 0.168 7.78 4.26 11
5/5/2022 10:00:00 AM 9.96 49.928 0.168 7.79 4.28 10.99
5/5/2022 10:15:00 AM 10.15 50.27 0.168 7.8 4.35 11
5/5/2022 10:30:00 AM 10.37 50.666 0.168 7.81 4.37 11
5/5/2022 10:45:00 AM 10.62 51.116 0.168 7.83 4.38 10.98
5/5/2022 11:00:00 AM 10.88 51.584 0.168 7.84 4.22 10.95
5/5/2022 11:15:00 AM 11.15 52.07 0.168 7.84 4.49 10.9
5/5/2022 11:30:00 AM 11.44 52.592 0.168 7.85 4.47 10.88
5/5/2022 11:45:00 AM 11.76 53.168 0.167 7.86 4.46 10.83
5/5/2022 12:00:00 PM 12.08 53.744 0.167 7.86 4.39 10.77
5/5/2022 12:15:00 PM 12.44 54.392 0.167 7.88 4.37 10.72
5/5/2022 12:30:00 PM 12.76 54.968 0.168 7.88 4.44 10.66
5/5/2022 12:45:00 PM 13.09 55.562 0.168 7.89 4.32 10.59
5/5/2022 1:00:00 PM 13.44 56.192 0.168 7.9 4.34 10.54
5/5/2022 1:15:00 PM 13.78 56.804 0.168 7.91 4.42 10.48
5/5/2022 1:30:00 PM 14.04 57.272 0.168 7.91 4.36 10.41
5/5/2022 1:45:00 PM 14.29 57.722 0.168 7.92 4.22 10.35
5/5/2022 2:00:00 PM 14.5 58.1 0.168 7.92 4.31 10.26
5/5/2022 2:15:00 PM 14.74 58.532 0.168 7.93 4.33 10.24
5/5/2022 2:30:00 PM 14.91 58.838 0.168 7.94 4.26 10.19
5/5/2022 2:45:00 PM 15.08 59.144 0.168 7.94 4.31 10.15
5/5/2022 3:00:00 PM 15.18 59.324 0.168 7.94 4.32 10.1
5/5/2022 3:15:00 PM 15.21 59.378 0.168 7.94 4.33 10.07
5/5/2022 3:30:00 PM 15.25 59.45 0.168 7.95 4.35 10.03
5/5/2022 3:45:00 PM 15.24 59.432 0.168 7.95 4.57 10.02
5/5/2022 4:00:00 PM 15.2 59.36 0.168 7.95 4.3 10
5/5/2022 4:15:00 PM 15.16 59.288 0.169 7.95 4.33 9.99
5/5/2022 4:30:00 PM 15.06 59.108 0.169 7.94 4.25 9.96
5/5/2022 4:45:00 PM 14.96 58.928 0.169 7.94 4.48 9.94
5/5/2022 5:00:00 PM 14.87 58.766 0.169 7.94 4.43 9.96
5/5/2022 5:15:00 PM 14.74 58.532 0.169 7.94 4.74 9.95
5/5/2022 5:30:00 PM 14.62 58.316 0.169 7.93 4.7 9.95
5/5/2022 5:45:00 PM 14.48 58.064 0.169 7.92 4.67 9.94
5/5/2022 6:00:00 PM 14.36 57.848 0.169 7.92 4.4 9.95
5/5/2022 6:15:00 PM 14.24 57.632 0.169 7.92 4.58 9.96
5/5/2022 6:30:00 PM 14.1 57.38 0.17 7.91 4.69 9.95
5/5/2022 6:45:00 PM 13.96 57.128 0.17 7.9 4.57 9.93
5/5/2022 7:00:00 PM 13.84 56.912 0.17 7.89 4.56 9.9
5/5/2022 7:15:00 PM 13.72 56.696 0.17 7.87 4.43 9.9
5/5/2022 7:30:00 PM 13.6 56.48 0.17 7.86 4.44 9.88
5/5/2022 7:45:00 PM 13.48 56.264 0.17 7.83 4.82 9.84
5/5/2022 8:00:00 PM 13.36 56.048 0.17 7.82 4.45 9.81
5/5/2022 8:15:00 PM 13.24 55.832 0.17 7.8 4.56 9.78
5/5/2022 8:30:00 PM 13.13 55.634 0.17 7.79 4.8 9.76
5/5/2022 8:45:00 PM 13.01 55.418 0.171 7.77 4.72 9.75
5/5/2022 9:00:00 PM 12.9 55.22 0.171 7.76 4.79 9.73
5/5/2022 9:15:00 PM 12.79 55.022 0.171 7.75 4.72 9.73
5/5/2022 9:30:00 PM 12.68 54.824 0.172 7.74 5.01 9.73
5/5/2022 9:45:00 PM 12.58 54.644 0.173 7.73 5.46 9.73
5/5/2022 10:00:00 PM 12.49 54.482 0.174 7.72 4.84 9.71
5/5/2022 10:15:00 PM 12.41 54.338 0.176 7.72 4.89 9.72
5/5/2022 10:30:00 PM 12.34 54.212 0.178 7.71 4.81 9.72
5/5/2022 10:45:00 PM 12.28 54.104 0.18 7.7 4.74 9.73
5/5/2022 11:00:00 PM 12.22 53.996 0.182 7.7 4.85 9.73
5/5/2022 11:15:00 PM 12.16 53.888 0.183 7.69 5.13 9.73
5/5/2022 11:30:00 PM 12.09 53.762 0.183 7.69 5.23 9.73
5/5/2022 11:45:00 PM 12.02 53.636 0.183 7.69 4.91 9.75
5/6/2022 12:00:00 AM 11.94 53.492 0.182 7.68 4.88 9.76
5/6/2022 12:15:00 AM 11.86 53.348 0.182 7.68 4.8 9.78
5/6/2022 12:30:00 AM 11.77 53.186 0.181 7.68 4.74 9.81
5/6/2022 12:45:00 AM 11.69 53.042 0.18 7.68 4.77 9.83
5/6/2022 1:00:00 AM 11.6 52.88 0.179 7.68 4.9 9.85
5/6/2022 1:15:00 AM 11.52 52.736 0.178 7.67 4.72 9.87
5/6/2022 1:30:00 AM 11.43 52.574 0.178 7.67 4.73 9.87
5/6/2022 1:45:00 AM 11.35 52.43 0.177 7.67 4.6 9.9
5/6/2022 2:00:00 AM 11.27 52.286 0.177 7.67 4.81 9.93
5/6/2022 2:15:00 AM 11.2 52.16 0.176 7.67 4.46 9.93
5/6/2022 2:30:00 AM 11.13 52.034 0.176 7.67 4.35 9.96
5/6/2022 2:45:00 AM 11.06 51.908 0.176 7.67 4.58 9.97
5/6/2022 3:00:00 AM 11 51.8 0.175 7.67 4.55 9.99
5/6/2022 3:15:00 AM 10.95 51.71 0.175 7.67 4.44 10.01
5/6/2022 3:30:00 AM 10.89 51.602 0.175 7.67 4.34 10.03
5/6/2022 3:45:00 AM 10.85 51.53 0.175 7.67 4.59 10.05
5/6/2022 4:00:00 AM 10.8 51.44 0.175 7.67 4.61 10.05
5/6/2022 4:15:00 AM 10.76 51.368 0.175 7.67 4.25 10.06
5/6/2022 4:30:00 AM 10.72 51.296 0.175 7.67 4.33 10.08
5/6/2022 4:45:00 AM 10.68 51.224 0.175 7.66 6.05 10.09
5/6/2022 5:00:00 AM 10.64 51.152 0.175 7.67 5.55 10.09
5/6/2022 5:15:00 AM 10.61 51.098 0.175 7.67 4.94 10.1
5/6/2022 5:30:00 AM 10.57 51.026 0.175 7.67 4.86 10.11
5/6/2022 5:45:00 AM 10.53 50.954 0.175 7.67 4.71 10.11
5/6/2022 6:00:00 AM 10.5 50.9 0.176 7.67 4.73 10.12
5/6/2022 6:15:00 AM 10.48 50.864 0.176 7.67 4.73 10.13
5/6/2022 6:30:00 AM 10.46 50.828 0.176 7.67 4.9 10.15
5/6/2022 6:45:00 AM 10.43 50.774 0.176 7.66 4.67 10.14
5/6/2022 7:00:00 AM 10.41 50.738 0.176 7.67 4.78 10.17
5/6/2022 7:15:00 AM 10.39 50.702 0.176 7.67 7.29 10.25
5/6/2022 7:30:00 AM 10.38 50.684 0.176 7.68 4.5 10.28
5/6/2022 7:45:00 AM 10.36 50.648 0.176 7.69 4.35 10.31
5/6/2022 8:00:00 AM 10.36 50.648 0.176 7.69 4.12 10.33
5/6/2022 8:15:00 AM 10.35 50.63 0.176 7.7 4.1 10.37
5/6/2022 8:30:00 AM 10.35 50.63 0.176 7.71 4.15 10.4
5/6/2022 8:45:00 AM 10.36 50.648 0.176 7.72 4.05 10.45
5/6/2022 9:00:00 AM 10.38 50.684 0.176 7.73 4 10.49
5/6/2022 9:15:00 AM 10.43 50.774 0.176 7.74 4.08 10.53
5/6/2022 9:30:00 AM 10.48 50.864 0.176 7.75 4.13 10.59
5/6/2022 9:45:00 AM 10.53 50.954 0.176 7.77 4.04 10.64
5/6/2022 10:00:00 AM 10.58 51.044 0.176 7.78 4.02 10.67
5/6/2022 10:15:00 AM 10.62 51.116 0.176 7.8 3.96 10.69
5/6/2022 10:30:00 AM 10.68 51.224 0.176 7.81 3.99 10.72
5/6/2022 10:45:00 AM 10.74 51.332 0.176 7.82 4.14 10.73
5/6/2022 11:00:00 AM 10.82 51.476 0.175 7.83 3.92 10.74
5/6/2022 11:15:00 AM 10.89 51.602 0.175 7.84 3.86 10.75
5/6/2022 11:30:00 AM 10.95 51.71 0.175 7.85 3.89 10.76
5/6/2022 11:45:00 AM 11.01 51.818 0.175 7.86 3.78 10.77
5/6/2022 12:00:00 PM 11.07 51.926 0.175 7.87 3.81 10.77
5/6/2022 12:15:00 PM 11.13 52.034 0.175 7.88 3.74 10.76
5/6/2022 12:30:00 PM 11.21 52.178 0.175 7.89 3.76 10.75
5/6/2022 12:45:00 PM 11.28 52.304 0.175 7.9 3.68 10.76
5/6/2022 1:00:00 PM 11.33 52.394 0.175 7.9 3.75 10.75
5/6/2022 1:15:00 PM 11.37 52.466 0.175 7.91 3.74 10.74
5/6/2022 1:30:00 PM 11.4 52.52 0.175 7.91 3.72 10.72
5/6/2022 1:45:00 PM 11.43 52.574 0.175 7.91 3.61 10.7
5/6/2022 2:00:00 PM 11.46 52.628 0.175 7.91 3.72 10.66
5/6/2022 2:15:00 PM 11.49 52.682 0.175 7.91 3.62 10.66
5/6/2022 2:30:00 PM 11.52 52.736 0.175 7.91 3.7 10.64
5/6/2022 2:45:00 PM 11.56 52.808 0.175 7.92 3.6 10.64
5/6/2022 3:00:00 PM 11.58 52.844 0.175 7.92 3.52 10.64
5/6/2022 3:15:00 PM 11.59 52.862 0.175 7.92 3.65 10.63
5/6/2022 3:30:00 PM 11.6 52.88 0.175 7.93 3.74 10.62
5/6/2022 3:45:00 PM 11.62 52.916 0.175 7.92 3.52 10.61
5/6/2022 4:00:00 PM 11.63 52.934 0.175 7.92 3.63 10.6
5/6/2022 4:15:00 PM 11.64 52.952 0.175 7.92 3.53 10.59
5/6/2022 4:30:00 PM 11.65 52.97 0.175 7.92 3.63 10.58
5/6/2022 4:45:00 PM 11.64 52.952 0.175 7.92 3.54 10.56
5/6/2022 5:00:00 PM 11.61 52.898 0.175 7.91 3.57 10.53
5/6/2022 5:15:00 PM 11.6 52.88 0.175 7.91 3.53 10.51
5/6/2022 5:30:00 PM 11.58 52.844 0.175 7.9 3.49 10.49
5/6/2022 5:45:00 PM 11.56 52.808 0.175 7.9 3.44 10.48
5/6/2022 6:00:00 PM 11.53 52.754 0.175 7.89 3.53 10.46
5/6/2022 6:15:00 PM 11.5 52.7 0.176 7.89 3.48 10.44
5/6/2022 6:30:00 PM 11.47 52.646 0.176 7.88 3.52 10.43
5/6/2022 6:45:00 PM 11.44 52.592 0.176 7.87 3.51 10.39
5/6/2022 7:00:00 PM 11.4 52.52 0.176 7.86 3.53 10.37
5/6/2022 7:15:00 PM 11.36 52.448 0.176 7.85 3.63 10.33
5/6/2022 7:30:00 PM 11.32 52.376 0.176 7.84 3.63 10.31
5/6/2022 7:45:00 PM 11.28 52.304 0.176 7.82 3.61 10.29
5/6/2022 8:00:00 PM 11.24 52.232 0.176 7.81 3.52 10.25
5/6/2022 8:15:00 PM 11.19 52.142 0.176 7.8 3.72 10.23
5/6/2022 8:30:00 PM 11.14 52.052 0.177 7.78 3.67 10.2
5/6/2022 8:45:00 PM 11.1 51.98 0.177 7.78 3.79 10.18
5/6/2022 9:00:00 PM 11.05 51.89 0.177 7.76 3.74 10.17
5/6/2022 9:15:00 PM 11 51.8 0.177 7.76 3.85 10.17
5/6/2022 9:30:00 PM 10.94 51.692 0.177 7.75 3.75 10.15
5/6/2022 9:45:00 PM 10.89 51.602 0.177 7.74 3.87 10.15
5/6/2022 10:00:00 PM 10.84 51.512 0.177 7.73 3.83 10.16
5/6/2022 10:15:00 PM 10.79 51.422 0.177 7.73 3.94 10.15
5/6/2022 10:30:00 PM 10.74 51.332 0.177 7.72 3.87 10.17
5/6/2022 10:45:00 PM 10.68 51.224 0.177 7.72 3.93 10.17
5/6/2022 11:00:00 PM 10.63 51.134 0.177 7.71 3.94 10.18
5/6/2022 11:15:00 PM 10.58 51.044 0.178 7.7 3.99 10.19
5/6/2022 11:30:00 PM 10.53 50.954 0.178 7.7 3.94 10.19
5/6/2022 11:45:00 PM 10.49 50.882 0.178 7.7 3.9 10.19
5/7/2022 12:00:00 AM 10.44 50.792 0.178 7.7 3.97 10.21
5/7/2022 12:15:00 AM 10.4 50.72 0.178 7.7 3.81 10.22
5/7/2022 12:30:00 AM 10.35 50.63 0.178 7.69 4.04 10.23
5/7/2022 12:45:00 AM 10.3 50.54 0.178 7.69 3.81 10.23
5/7/2022 1:00:00 AM 10.25 50.45 0.179 7.69 3.84 10.25
5/7/2022 1:15:00 AM 10.21 50.378 0.179 7.69 3.76 10.25
5/7/2022 1:30:00 AM 10.17 50.306 0.178 7.69 3.76 10.25
5/7/2022 1:45:00 AM 10.13 50.234 0.178 7.69 3.89 10.27
5/7/2022 2:00:00 AM 10.09 50.162 0.178 7.69 3.84 10.28
5/7/2022 2:15:00 AM 10.05 50.09 0.178 7.69 4.02 10.29
5/7/2022 2:30:00 AM 10.01 50.018 0.178 7.69 4.03 10.3
5/7/2022 2:45:00 AM 9.97 49.946 0.178 7.69 3.9 10.31
5/7/2022 3:00:00 AM 9.94 49.892 0.178 7.69 3.93 10.32
5/7/2022 3:15:00 AM 9.9 49.82 0.178 7.69 3.89 10.32
5/7/2022 3:30:00 AM 9.86 49.748 0.178 7.69 3.88 10.34
5/7/2022 3:45:00 AM 9.82 49.676 0.178 7.7 3.95 10.34
5/7/2022 4:00:00 AM 9.77 49.586 0.178 7.7 3.85 10.35
5/7/2022 4:15:00 AM 9.72 49.496 0.178 7.7 3.96 10.37
5/7/2022 4:30:00 AM 9.68 49.424 0.178 7.7 3.91 10.37
5/7/2022 4:45:00 AM 9.62 49.316 0.178 7.71 3.9 10.39
5/7/2022 5:00:00 AM 9.57 49.226 0.178 7.71 4.06 10.39
5/7/2022 5:15:00 AM 9.51 49.118 0.178 7.71 3.99 10.4
5/7/2022 5:30:00 AM 9.45 49.01 0.179 7.71 4.05 10.42
5/7/2022 5:45:00 AM 9.4 48.92 0.179 7.71 3.91 10.43
5/7/2022 6:00:00 AM 9.35 48.83 0.179 7.71 4.06 10.45
5/7/2022 6:15:00 AM 9.31 48.758 0.179 7.72 4.57 10.46
5/7/2022 6:30:00 AM 9.26 48.668 0.179 7.71 3.87 10.5
5/7/2022 6:45:00 AM 9.22 48.596 0.179 7.72 3.88 10.51
5/7/2022 7:00:00 AM 9.18 48.524 0.179 7.72 3.79 10.55
5/7/2022 7:15:00 AM 9.14 48.452 0.179 7.73 3.87 10.59
5/7/2022 7:30:00 AM 9.12 48.416 0.179 7.74 3.81 10.65
5/7/2022 7:45:00 AM 9.1 48.38 0.179 7.75 3.77 10.69
5/7/2022 8:00:00 AM 9.1 48.38 0.179 7.76 3.8 10.76
5/7/2022 8:15:00 AM 9.09 48.362 0.179 7.77 3.85 10.81
5/7/2022 8:30:00 AM 9.1 48.38 0.179 7.79 3.75 10.87
5/7/2022 8:45:00 AM 9.12 48.416 0.179 7.8 3.81 10.92
5/7/2022 9:00:00 AM 9.15 48.47 0.179 7.81 3.73 10.98
5/7/2022 9:15:00 AM 9.19 48.542 0.179 7.83 3.71 11.02
5/7/2022 9:30:00 AM 9.23 48.614 0.179 7.84 3.66 11.06
5/7/2022 9:45:00 AM 9.29 48.722 0.179 7.85 3.64 11.1
5/7/2022 10:00:00 AM 9.36 48.848 0.178 7.86 3.65 11.12
5/7/2022 10:15:00 AM 9.45 49.01 0.178 7.88 3.67 11.15
5/7/2022 10:30:00 AM 9.54 49.172 0.178 7.89 3.48 11.15
5/7/2022 10:45:00 AM 9.62 49.316 0.178 7.9 3.53 11.16
5/7/2022 11:00:00 AM 9.7 49.46 0.178 7.91 3.59 11.16
5/7/2022 11:15:00 AM 9.78 49.604 0.178 7.92 3.57 11.15
5/7/2022 11:30:00 AM 9.89 49.802 0.178 7.92 3.48 11.14
5/7/2022 11:45:00 AM 10.01 50.018 0.178 7.93 3.46 11.14
5/7/2022 12:00:00 PM 10.14 50.252 0.178 7.94 3.51 11.13
5/7/2022 12:15:00 PM 10.29 50.522 0.178 7.95 3.49 11.12
5/7/2022 12:30:00 PM 10.49 50.882 0.178 7.95 3.46 11.1
5/7/2022 12:45:00 PM 10.69 51.242 0.178 7.96 3.5 11.08
5/7/2022 1:00:00 PM 10.88 51.584 0.178 7.97 3.47 11.05
5/7/2022 1:15:00 PM 11.06 51.908 0.178 7.97 3.67 11.02
5/7/2022 1:30:00 PM 11.2 52.16 0.178 7.98 3.58 10.97
5/7/2022 1:45:00 PM 11.33 52.394 0.178 7.99 3.51 10.93
5/7/2022 2:00:00 PM 11.47 52.646 0.178 7.99 3.51 10.9
5/7/2022 2:15:00 PM 11.6 52.88 0.178 7.99 3.6 10.87
5/7/2022 2:30:00 PM 11.69 53.042 0.178 8 3.32 10.83
5/7/2022 2:45:00 PM 11.77 53.186 0.178 8 3.5 10.8
5/7/2022 3:00:00 PM 11.84 53.312 0.178 8 3.5 10.78
5/7/2022 3:15:00 PM 11.88 53.384 0.178 8.01 3.59 10.75
5/7/2022 3:30:00 PM 11.92 53.456 0.178 8.01 3.49 10.73
5/7/2022 3:45:00 PM 11.95 53.51 0.178 8.01 3.48 10.7
5/7/2022 4:00:00 PM 11.98 53.564 0.178 8 3.43 10.69
5/7/2022 4:15:00 PM 12 53.6 0.178 8.01 3.36 10.68
5/7/2022 4:30:00 PM 11.99 53.582 0.178 8.01 3.62 10.66
5/7/2022 4:45:00 PM 11.98 53.564 0.179 8 3.5 10.65
5/7/2022 5:00:00 PM 11.95 53.51 0.179 8.01 3.89 10.64
5/7/2022 5:15:00 PM 11.91 53.438 0.179 8 3.44 10.62
5/7/2022 5:30:00 PM 11.88 53.384 0.179 8 3.44 10.6
5/7/2022 5:45:00 PM 11.83 53.294 0.179 7.99 3.52 10.58
5/7/2022 6:00:00 PM 11.79 53.222 0.179 7.99 3.46 10.55
5/7/2022 6:15:00 PM 11.73 53.114 0.179 7.98 3.47 10.53
5/7/2022